[[{"header":{"parameterUnit":"m.s-1","parameterCategory":1,"la1":30.6,"la2":28.766,"lo1":-90.7593,"lo2":-88.6598,"dy":0.0162,"dx":0.0183,"nx":116,"ny":114,"refTime":"2024-03-11T18:00:00:Z","depth":0,"parameterNumber":2,"parameterNumberName":"U-component_of_WINDS"},"data":[0.0,0.0,0.0,0.0,0.0,0.0,0.0,0.0,0.0,0.0,0.0,0.0,0.0,0.0,0.0,0.0,0.0,0.0,0.0,0.0,0.0,0.0,0.0,0.0,0.0,0.0,0.0,0.0,0.0,0.0,0.0,0.0,0.0,0.0,0.0,0.0,0.0,0.0,0.0,0.0,0.0,0.0,0.0,0.0,0.0,0.0,0.0,0.0,0.0,0.0,0.0,0.0,0.0,0.0,0.0,0.0,0.0,0.0,0.0,0.0,0.0,0.0,0.0,0.0,0.0,0.0,0.0,0.0,0.0,0.0,0.0,0.0,0.0,0.0,0.0,0.0,0.0,0.0,0.0,0.0,0.0,0.0,0.0,0.0,0.0,0.0,0.0,0.0,0.0,0.0,0.0,0.0,0.0,0.0,0.0,0.0,0.0,0.0,0.0,0.0,0.0,0.0,0.0,0.0,0.0,0.0,0.0,0.0,0.0,0.0,0.0,0.0,0.0,0.0,0.0,0.0,0.0,0.0,0.0,0.0,0.0,0.0,0.0,0.0,0.0,0.0,0.0,0.0,0.0,0.0,0.0,0.0,0.0,0.0,0.0,0.0,0.0,0.0,0.0,0.0,0.0,0.0,0.0,0.0,0.0,0.0,0.0,0.0,0.0,0.0,0.0,0.0,0.0,0.0,0.0,0.0,0.0,0.0,0.0,0.0,0.0,0.0,0.0,0.0,0.0,0.0,0.0,0.0,0.0,0.0,0.0,0.0,0.0,0.0,0.0,0.0,0.0,0.0,0.0,0.0,0.0,0.0,0.0,0.0,0.0,0.0,0.0,0.0,0.0,0.0,0.0,0.0,0.0,0.0,0.0,0.0,0.0,0.0,0.0,0.0,0.0,0.0,0.0,0.0,0.0,0.0,0.0,0.0,0.0,0.0,0.0,0.0,0.0,0.0,0.0,0.0,0.0,0.0,0.0,0.0,0.0,0.0,0.0,0.0,0.0,0.0,0.0,0.0,0.0,0.0,0.0,0.0,0.0,0.0,0.0,0.0,0.0,0.0,0.0,0.0,0.0,0.0,0.0,0.0,0.0,0.0,0.0,0.0,0.0,0.0,0.0,0.0,0.0,0.0,0.0,0.0,0.0,0.0,0.0,0.0,0.0,0.0,0.0,0.0,0.0,0.0,0.0,0.0,0.0,0.0,0.0,0.0,0.0,0.0,0.0,0.0,0.0,0.0,0.0,0.0,0.0,0.0,0.0,0.0,0.0,0.0,0.0,0.0,0.0,0.0,0.0,0.0,0.0,0.0,0.0,0.0,0.0,0.0,0.0,0.0,0.0,0.0,0.0,0.0,0.0,0.0,0.0,0.0,0.0,0.0,0.0,0.0,0.0,0.0,0.0,0.0,0.0,0.0,0.0,0.0,0.0,0.0,0.0,0.0,0.0,0.0,0.0,0.0,0.0,0.0,0.0,0.0,0.0,0.0,0.0,0.0,0.0,0.0,0.0,0.0,0.0,0.0,0.0,0.0,0.0,0.0,0.0,0.0,0.0,0.0,0.0,0.0,0.0,0.0,0.0,0.0,0.0,0.0,0.0,0.0,0.0,0.0,0.0,0.0,0.0,0.0,0.0,0.0,0.0,0.0,0.0,0.0,0.0,0.0,0.0,0.0,0.0,0.0,0.0,0.0,0.0,0.0,0.0,0.0,0.0,0.0,0.0,0.0,0.0,0.0,0.0,0.0,0.0,0.0,0.0,0.0,0.0,0.0,0.0,0.0,0.0,0.0,0.0,0.0,0.0,0.0,0.0,0.0,0.0,0.0,0.0,0.0,0.0,0.0,0.0,0.0,0.0,0.0,0.0,0.0,0.0,0.0,0.0,0.0,0.0,0.0,0.0,0.0,0.0,0.0,0.0,0.0,0.0,0.0,0.0,0.0,0.0,0.0,0.0,0.0,0.0,0.0,0.0,0.0,0.0,0.0,0.0,0.0,0.0,0.0,0.0,0.0,0.0,0.0,0.0,0.0,0.0,0.0,0.0,0.0,0.0,0.0,0.0,0.0,0.0,0.0,0.0,0.0,0.0,0.0,0.0,0.0,0.0,0.0,0.0,0.0,0.0,0.0,0.0,0.0,0.0,0.0,0.0,0.0,0.0,0.0,0.0,0.0,0.0,0.0,0.0,0.0,0.0,0.0,0.0,0.0,0.0,0.0,0.0,0.0,0.0,0.0,0.0,0.0,0.0,0.0,0.0,0.0,0.0,0.0,0.0,0.0,0.0,0.0,0.0,0.0,0.0,0.0,0.0,0.0,0.0,0.0,0.0,0.0,0.0,0.0,0.0,0.0,0.0,0.0,0.0,0.0,0.0,0.0,0.0,0.0,0.0,0.0,0.0,0.0,0.0,0.0,0.0,0.0,0.0,0.0,0.0,0.0,0.0,0.0,0.0,0.0,0.0,0.0,0.0,0.0,0.0,0.0,0.0,0.0,0.0,0.0,0.0,0.0,0.0,0.0,0.0,0.0,0.0,0.0,0.0,0.0,0.0,0.0,0.0,0.0,0.0,0.0,0.0,0.0,0.0,0.0,0.0,0.0,0.0,0.0,0.0,0.0,0.0,0.0,0.0,0.0,0.0,0.0,0.0,0.0,0.0,0.0,0.0,0.0,0.0,0.0,0.0,0.0,0.0,0.0,0.0,0.0,0.0,0.0,0.0,0.0,0.0,0.0,0.0,0.0,0.0,0.0,0.0,0.0,0.0,0.0,0.0,0.0,0.0,0.0,0.0,0.0,0.0,0.0,0.0,0.0,0.0,0.0,0.0,0.0,0.0,0.0,0.0,0.0,0.0,0.0,0.0,0.0,0.0,0.0,0.0,0.0,0.0,0.0,0.0,0.0,0.0,0.0,0.0,0.0,0.0,0.0,0.0,0.0,0.0,0.0,0.0,0.0,0.0,0.0,0.0,0.0,0.0,0.0,0.0,0.0,0.0,0.0,0.0,0.0,0.0,0.0,0.0,0.0,0.0,0.0,0.0,0.0,0.0,0.0,0.0,0.0,0.0,0.0,0.0,0.0,0.0,0.0,0.0,0.0,0.0,0.0,0.0,0.0,0.0,0.0,0.0,0.0,0.0,0.0,0.0,0.0,0.0,0.0,0.0,0.0,0.0,0.0,0.0,0.0,0.0,0.0,0.0,0.0,0.0,0.0,0.0,0.0,0.0,0.0,0.0,0.0,0.0,0.0,0.0,0.0,0.0,0.0,0.0,0.0,0.0,0.0,0.0,0.0,0.0,0.0,0.0,0.0,0.0,0.0,0.0,0.0,0.0,0.0,0.0,0.0,0.0,0.0,0.0,0.0,0.0,0.0,0.0,0.0,0.0,0.0,0.0,0.0,0.0,0.0,0.0,0.0,0.0,0.0,0.0,0.0,0.0,0.0,0.0,0.0,0.0,0.0,0.0,0.0,0.0,0.0,0.0,0.0,0.0,0.0,0.0,0.0,0.0,0.0,0.0,0.0,0.0,0.0,0.0,0.0,0.0,0.0,0.0,0.0,0.0,0.0,0.0,0.0,0.0,0.0,0.0,0.0,0.0,0.0,0.0,0.0,0.0,0.0,0.0,0.0,0.0,0.0,0.0,0.0,0.0,0.0,0.0,0.0,0.0,0.0,0.0,0.0,0.0,0.0,0.0,0.0,0.0,0.0,0.0,0.0,0.0,0.0,0.0,0.0,0.0,0.0,0.0,0.0,0.0,0.0,0.0,0.0,0.0,0.0,0.0,0.0,0.0,0.0,0.0,0.0,0.0,0.0,0.0,0.0,0.0,0.0,0.0,0.0,0.0,0.0,0.0,0.0,0.0,0.0,0.0,0.0,0.0,0.0,0.0,0.0,0.0,0.0,0.0,0.0,0.0,0.0,0.0,0.0,0.0,0.0,0.0,0.0,0.0,0.0,0.0,0.0,0.0,0.0,0.0,0.0,0.0,0.0,0.0,0.0,0.0,0.0,0.0,0.0,0.0,0.0,0.0,0.0,0.0,0.0,0.0,0.0,0.0,0.0,0.0,0.0,0.0,0.0,0.0,0.0,0.0,0.0,0.0,0.0,0.0,0.0,0.0,0.0,0.0,0.0,0.0,0.0,0.0,0.0,0.0,0.0,0.0,0.0,0.0,0.0,0.0,0.0,0.0,0.0,0.0,0.0,0.0,0.0,0.0,0.0,0.0,0.0,0.0,0.0,0.0,0.0,0.0,0.0,0.0,0.0,0.0,0.0,0.0,0.0,0.0,0.0,0.0,0.0,0.0,0.0,0.0,0.0,0.0,0.0,0.0,0.0,0.0,0.0,0.0,0.0,0.0,0.0,0.0,0.0,0.0,0.0,0.0,0.0,0.0,0.0,0.0,0.0,0.0,0.0,0.0,0.0,0.0,0.0,0.0,0.0,0.0,0.0,0.0,0.0,0.0,0.0,0.0,0.0,0.0,0.0,0.0,0.0,0.0,0.0,0.0,0.0,0.0,0.0,0.0,0.0,0.0,0.0,0.0,0.0,0.0,0.0,0.0,0.0,0.0,0.0,0.0,0.0,0.0,0.0,0.0,0.0,0.0,0.0,0.0,0.0,0.0,0.0,0.0,0.0,0.0,0.0,0.0,0.0,0.0,0.0,0.0,0.0,0.0,0.0,0.0,0.0,0.0,0.0,0.0,0.0,0.0,0.0,0.0,0.0,0.0,0.0,0.0,0.0,0.0,0.0,0.0,0.0,0.0,0.0,0.0,0.0,0.0,0.0,0.0,0.0,0.0,0.0,0.0,0.0,0.0,0.0,0.0,0.0,0.0,0.0,0.0,0.0,0.0,0.0,0.0,0.0,0.0,0.0,0.0,0.0,0.0,0.0,0.0,0.0,0.0,0.0,0.0,0.0,0.0,0.0,0.0,0.0,0.0,0.0,0.0,0.0,0.0,0.0,0.0,0.0,0.0,0.0,0.0,0.0,0.0,0.0,0.0,0.0,0.0,0.0,0.0,0.0,0.0,0.0,0.0,0.0,0.0,0.0,0.0,0.0,0.0,0.0,0.0,0.0,0.0,0.0,0.0,0.0,0.0,0.0,0.0,0.0,0.0,0.0,0.0,0.0,0.0,0.0,0.0,0.0,0.0,0.0,0.0,0.0,0.0,0.0,0.0,0.0,0.0,0.0,0.0,0.0,0.0,0.0,0.0,0.0,0.0,0.0,0.0,0.0,0.0,0.0,0.0,0.0,0.0,0.0,0.0,0.0,0.0,0.0,0.0,0.0,0.0,0.0,0.0,0.0,0.0,0.0,0.0,0.0,0.0,0.0,0.0,0.0,0.0,0.0,0.0,0.0,0.0,0.0,0.0,0.0,0.0,0.0,0.0,0.0,0.0,0.0,0.0,0.0,0.0,0.0,0.0,0.0,0.0,0.0,0.0,0.0,0.0,0.0,0.0,0.0,0.0,0.0,0.0,0.0,0.0,0.0,0.0,0.0,0.0,0.0,0.0,0.0,0.0,0.0,0.0,0.0,0.0,0.0,0.0,0.0,0.0,0.0,0.0,0.0,0.0,0.0,0.0,0.0,0.0,0.0,0.0,0.0,0.0,0.0,0.0,0.0,0.0,0.0,0.0,0.0,0.0,0.0,0.0,0.0,0.0,0.0,0.0,0.0,0.0,0.0,0.0,0.0,0.0,0.0,0.0,0.0,0.0,0.0,0.0,0.0,0.0,0.0,0.0,0.0,0.0,0.0,0.0,0.0,0.0,0.0,0.0,0.0,0.0,0.0,0.0,0.0,0.0,0.0,0.0,0.0,0.0,0.0,0.0,0.0,0.0,0.0,0.0,0.0,0.0,0.0,0.0,0.0,0.0,0.0,0.0,0.0,0.0,0.0,0.0,0.0,0.0,0.0,0.0,0.0,0.0,0.0,0.0,0.0,0.0,0.0,0.0,0.0,0.0,0.0,0.0,0.0,0.0,0.0,0.0,0.0,0.0,0.0,0.0,0.0,0.0,0.0,0.0,0.0,0.0,0.0,0.0,0.0,0.0,0.0,0.0,0.0,0.0,0.0,0.0,0.0,0.0,0.0,0.0,0.0,0.0,0.0,0.0,0.0,-1.384,0.0,0.0,0.0,0.0,0.0,0.0,0.0,0.0,0.0,0.0,0.0,0.0,0.0,0.0,0.0,0.0,0.0,0.0,0.0,0.0,0.0,0.0,0.0,0.0,0.0,0.0,0.0,0.0,0.0,0.0,0.0,0.0,0.0,0.0,0.0,0.0,0.0,-1.6742,-1.7242,-1.7921,-1.822,-1.8106,-1.9112,0.0,0.0,0.0,0.0,0.0,0.0,0.0,0.0,0.0,0.0,0.0,0.0,0.0,0.0,0.0,0.0,0.0,0.0,0.0,0.0,0.0,0.0,0.0,0.0,0.0,0.0,0.0,0.0,0.0,0.0,0.0,0.0,0.0,0.0,0.0,0.0,0.0,0.0,0.0,0.0,0.0,0.0,0.0,0.0,0.0,0.0,0.0,0.0,0.0,0.0,0.0,0.0,0.0,0.0,0.0,0.0,0.0,0.0,0.0,0.0,0.0,0.0,0.0,0.0,0.0,0.0,0.0,0.0,0.0,0.0,0.0,0.0,0.0,-1.275,0.0,0.0,0.0,0.0,0.0,0.0,0.0,0.0,0.0,0.0,0.0,0.0,0.0,0.0,0.0,0.0,0.0,0.0,0.0,0.0,0.0,0.0,0.0,-1.5121,-1.5444,-1.4871,-1.5723,-1.6053,-1.5507,-1.5571,-1.5721,-1.588,-1.5608,-1.5578,-1.5883,-1.6345,-1.6718,-1.6993,-1.718,-1.7491,-1.7943,0.0,0.0,0.0,0.0,0.0,0.0,0.0,0.0,0.0,0.0,0.0,0.0,0.0,0.0,0.0,0.0,0.0,0.0,0.0,0.0,0.0,0.0,0.0,0.0,0.0,0.0,0.0,0.0,0.0,0.0,0.0,0.0,0.0,0.0,0.0,0.0,0.0,0.0,0.0,0.0,0.0,0.0,0.0,0.0,0.0,0.0,0.0,0.0,0.0,0.0,0.0,0.0,0.0,0.0,0.0,0.0,0.0,0.0,0.0,0.0,0.0,0.0,0.0,0.0,0.0,0.0,0.0,-1.2884,-1.2594,-1.2307,-1.1813,-1.1688,-1.1894,-1.2735,-1.2787,-1.2217,0.0,0.0,0.0,0.0,0.0,0.0,0.0,0.0,0.0,0.0,0.0,0.0,0.0,0.0,0.0,0.0,0.0,0.0,0.0,0.0,0.0,0.0,-1.5021,-1.4836,-1.4188,-1.3956,-1.3616,-1.3016,-1.3262,-1.3422,-1.3464,-1.3846,-1.4147,-1.429,-1.5252,-1.565,-1.5413,-1.5542,-1.588,-1.6405,-1.7049,-1.7552,-1.8026,-2.0386,0.0,0.0,0.0,0.0,0.0,0.0,0.0,0.0,0.0,0.0,0.0,0.0,0.0,0.0,0.0,0.0,0.0,0.0,0.0,0.0,0.0,0.0,0.0,0.0,0.0,0.0,0.0,0.0,0.0,0.0,0.0,0.0,0.0,0.0,0.0,0.0,0.0,0.0,0.0,0.0,0.0,0.0,0.0,-1.6811,-1.6198,0.0,0.0,0.0,0.0,0.0,0.0,0.0,0.0,0.0,0.0,0.0,0.0,0.0,-1.2446,-1.2389,-1.1699,-1.1496,-1.1769,-1.1733,-1.1686,-1.1634,-1.1563,-1.1426,-1.1249,-1.1378,0.0,-1.0658,-1.1091,0.0,0.0,0.0,0.0,0.0,0.0,0.0,0.0,0.0,0.0,0.0,0.0,0.0,0.0,0.0,0.0,0.0,0.0,0.0,0.0,0.0,-1.4304,-1.3994,-1.3322,-1.3174,-1.2757,-1.1873,-1.252,-1.2932,-1.2937,-1.328,-1.3669,-1.4091,-1.4506,-1.4561,-1.4253,-1.4128,-1.4443,-1.5219,-1.6136,-1.6884,-1.7545,-1.9674,-2.0661,-2.0749,-2.0797,0.0,0.0,0.0,0.0,0.0,0.0,0.0,0.0,0.0,0.0,0.0,0.0,0.0,0.0,0.0,0.0,0.0,0.0,0.0,0.0,0.0,0.0,0.0,0.0,0.0,0.0,0.0,0.0,0.0,0.0,0.0,0.0,0.0,0.0,0.0,0.0,0.0,0.0,0.0,-1.7462,-1.6491,-1.5073,-1.5064,-1.4812,0.0,0.0,0.0,0.0,0.0,0.0,0.0,0.0,0.0,-1.1911,-1.1228,-1.0886,-1.1009,-1.044,-1.0349,-1.0751,-1.0638,-1.0639,-1.0805,-1.0678,-1.0606,-1.0632,-1.0507,-1.0238,-0.9943,-1.0592,-1.0218,-0.934,0.0,0.0,0.0,0.0,-0.9405,-0.8755,0.0,0.0,0.0,0.0,0.0,0.0,0.0,0.0,0.0,0.0,0.0,0.0,-1.346,-1.3127,-1.264,-1.207,-1.2199,-1.1852,-1.0807,-1.16,-1.2241,-1.2459,-1.257,-1.2972,-1.3718,-1.3463,-1.3277,-1.3195,-1.2912,-1.3212,-1.4084,-1.526,-1.614,-1.6793,-1.8574,-1.9705,-2.0377,-2.091,-2.0527,0.0,0.0,0.0,0.0,0.0,0.0,0.0,0.0,0.0,0.0,0.0,0.0,0.0,0.0,0.0,0.0,0.0,0.0,0.0,0.0,0.0,0.0,0.0,0.0,0.0,0.0,0.0,0.0,0.0,0.0,0.0,0.0,0.0,0.0,0.0,0.0,0.0,0.0,-1.7121,-1.5834,-1.4171,-1.4049,-1.3567,0.0,0.0,0.0,0.0,0.0,0.0,-1.1483,-1.1158,-1.0791,-1.0388,-0.9689,-0.9454,-0.9689,-0.9452,-0.9474,-0.9761,-0.9697,-0.977,-0.9937,-0.9743,-0.9742,-0.9886,-0.9693,-0.9527,-0.9372,-1.0012,-0.9873,-0.9364,-0.9543,-0.9311,-0.8851,-0.8832,-0.8249,-0.7473,0.0,0.0,0.0,0.0,0.0,0.0,0.0,0.0,0.0,0.0,0.0,-1.1462,-1.2296,-1.1344,-1.0539,-1.0245,-1.0536,-1.0299,-0.9287,-0.9731,-1.041,-1.1248,-1.1173,-1.1548,-1.2476,-1.1791,-1.1641,-1.2081,-1.1939,-1.2221,-1.2905,-1.4181,-1.5104,-1.5754,-1.755,-1.8741,-1.9418,-1.9943,-2.008,-1.9904,0.0,0.0,0.0,0.0,0.0,0.0,0.0,0.0,0.0,0.0,0.0,0.0,0.0,0.0,0.0,0.0,0.0,0.0,0.0,0.0,0.0,0.0,0.0,0.0,0.0,0.0,0.0,0.0,0.0,0.0,0.0,0.0,0.0,0.0,0.0,0.0,0.0,0.0,0.0,-1.4505,-1.3079,0.0,0.0,0.0,0.0,-1.0817,-1.077,-1.02,-0.8769,-0.891,-0.8914,-0.8628,-0.8591,-0.8464,-0.8287,-0.8719,-0.8818,-0.8577,-0.9039,-0.9131,-0.8978,-0.8969,-0.8939,-0.8894,-0.8841,-0.8794,-0.8706,-0.9306,-0.9308,-0.8901,-0.8479,-0.8029,-0.7573,-0.6702,-0.6207,-0.5942,0.0,0.0,0.0,0.0,0.0,0.0,0.0,0.0,-1.1246,-1.1514,-1.104,-1.0722,-1.0864,-0.9727,-0.8823,-0.8514,-0.8481,-0.8147,-0.7414,-0.8867,-0.9847,-1.0046,-1.0996,-1.1479,-1.1444,-1.0635,-1.0447,-1.0918,-1.0799,-1.1319,-1.2421,-1.3281,-1.4146,-1.508,-1.6097,-1.6882,-1.7551,-1.9522,-1.9981,-1.9333,-1.9196,-1.8776,0.0,0.0,0.0,0.0,0.0,0.0,0.0,0.0,0.0,0.0,0.0,0.0,0.0,0.0,0.0,0.0,0.0,0.0,0.0,0.0,0.0,0.0,0.0,0.0,0.0,0.0,0.0,0.0,0.0,0.0,0.0,0.0,0.0,0.0,0.0,0.0,0.0,-1.2809,-1.2124,0.0,-1.0152,-1.0244,-0.9963,-0.8923,-0.8885,-0.8547,-0.7724,-0.799,-0.8006,-0.7627,-0.7752,-0.7848,-0.7866,-0.7886,-0.7916,-0.8004,-0.7971,-0.7808,-0.757,-0.7665,-0.765,-0.7533,-0.773,-0.7808,-0.7802,-0.8084,-0.819,-0.8089,-0.7738,-0.7196,-0.6551,-0.5901,-0.5555,-0.5307,0.0,0.0,0.0,0.0,0.0,0.0,0.0,0.0,-1.0686,-1.0776,-1.0007,-0.9396,-0.9272,-0.7949,-0.6982,-0.6816,-0.6822,-0.6563,-0.5958,-0.7722,-0.8807,-0.8864,-1.0229,-1.0637,-0.9914,-0.946,-0.9371,-0.9688,-0.994,-1.0573,-1.1578,-1.2214,-1.3028,-1.3978,-1.4719,-1.537,-1.6102,-1.8194,-1.8866,-1.8591,-1.8786,-1.849,-1.7967,0.0,0.0,0.0,0.0,0.0,0.0,0.0,0.0,0.0,0.0,0.0,0.0,0.0,0.0,0.0,0.0,0.0,0.0,0.0,0.0,0.0,0.0,0.0,0.0,0.0,0.0,0.0,0.0,0.0,0.0,0.0,0.0,0.0,0.0,0.0,-1.1727,-1.1232,-1.0694,-0.9878,-0.8641,-0.8597,-0.8338,-0.7601,-0.7575,-0.7418,-0.695,-0.7169,-0.7132,-0.6786,-0.7095,-0.7187,-0.7015,-0.7153,-0.7225,-0.723,-0.7138,-0.695,-0.6719,-0.6815,-0.6767,-0.6642,-0.6833,-0.6914,-0.683,-0.687,-0.6893,-0.6994,-0.7129,-0.6853,-0.6317,-0.6005,-0.5816,-0.5652,0.0,0.0,0.0,0.0,0.0,0.0,0.0,-0.967,-0.9935,-0.9935,-0.8431,-0.7398,-0.7533,-0.5969,-0.4995,-0.5113,-0.557,-0.5608,-0.5039,-0.6267,-0.727,-0.7806,-0.8785,-0.886,-0.7886,-0.8247,-0.8436,-0.8458,-0.9332,-0.9939,-1.0288,-1.0951,-1.1714,-1.2482,-1.3419,-1.4272,-1.5044,-1.5861,-1.6726,-1.7616,-1.8016,-1.7889,-1.7534,0.0,0.0,0.0,0.0,0.0,0.0,0.0,0.0,0.0,0.0,0.0,0.0,0.0,0.0,0.0,0.0,0.0,0.0,0.0,0.0,0.0,0.0,0.0,0.0,0.0,0.0,0.0,0.0,0.0,0.0,0.0,0.0,0.0,-1.1696,-1.0991,-1.0163,-0.9834,-0.8806,-0.7872,-0.7243,-0.7101,-0.6966,-0.6748,-0.6922,-0.683,-0.6384,-0.6346,-0.6257,-0.6083,-0.6536,-0.6405,-0.573,-0.658,-0.6789,-0.6288,-0.6468,-0.6554,-0.6554,-0.6447,-0.6345,-0.625,-0.6165,-0.602,-0.5833,-0.5641,-0.553,-0.5521,-0.6517,-0.6868,-0.68,-0.671,-0.6795,-0.6729,0.0,0.0,0.0,0.0,0.0,0.0,0.0,-0.8764,-0.8837,-0.8837,-0.7318,-0.6181,-0.601,-0.467,-0.3714,-0.361,-0.409,-0.4573,-0.5029,-0.6457,-0.7713,-0.8623,-0.7844,-0.7186,-0.6832,-0.6933,-0.709,-0.7349,-0.8355,-0.9136,-0.9676,-1.0463,-1.1068,-1.1431,-1.2102,-1.2641,-1.312,-1.3767,-1.436,-1.4947,-1.6496,-1.7188,-1.7324,0.0,0.0,0.0,0.0,0.0,0.0,0.0,0.0,0.0,0.0,0.0,0.0,0.0,0.0,0.0,0.0,0.0,0.0,0.0,0.0,0.0,0.0,0.0,0.0,0.0,0.0,0.0,0.0,0.0,0.0,0.0,-0.8211,-0.7947,-0.9031,-0.8127,-0.7446,-0.765,-0.7061,-0.6599,-0.643,-0.6189,-0.5988,-0.5816,-0.5816,-0.5725,-0.5408,-0.5443,-0.5586,-0.5813,-0.5756,-0.58,-0.5939,-0.5931,-0.5847,-0.5739,-0.6168,-0.6024,-0.5373,-0.5735,-0.5544,-0.5011,-0.5085,-0.4994,-0.4759,-0.4746,-0.4468,-0.4189,-0.5008,-0.5154,-0.4806,-0.4453,-0.3978,-0.3521,0.0,0.0,0.0,0.0,0.0,0.0,0.0,-0.7723,-0.7664,-0.7326,-0.6116,-0.506,-0.4471,-0.3499,-0.2859,-0.2685,-0.3079,-0.3755,-0.4779,-0.6117,-0.6953,0.0,0.0,-0.5794,-0.56,-0.5699,-0.5938,-0.6385,-0.7237,-0.7916,-0.8442,-0.9194,-0.9735,-1.0125,-1.0635,-1.1086,-1.1561,-1.2101,-1.2462,-1.2887,-1.4391,-1.5506,-1.6327,-1.6859,-1.7395,-1.7842,-1.7926,-1.7823,-1.7589,-1.7498,0.0,0.0,0.0,0.0,0.0,0.0,0.0,0.0,0.0,0.0,0.0,0.0,0.0,0.0,0.0,0.0,0.0,0.0,0.0,0.0,0.0,0.0,0.0,0.0,-0.6651,-0.6233,-0.6464,-0.6216,-0.6034,-0.6198,-0.5991,-0.5772,-0.5636,-0.55,-0.5366,-0.5235,-0.528,-0.5212,-0.503,-0.4901,-0.5113,-0.5689,-0.5403,-0.5422,-0.5705,-0.558,-0.5393,-0.5192,-0.5484,-0.5354,-0.4814,-0.5048,-0.4833,0.0,-0.4262,-0.4146,-0.3929,-0.3801,-0.3528,0.0,0.0,0.0,0.0,0.0,-0.3633,-0.2848,0.0,0.0,0.0,0.0,0.0,0.0,0.0,-0.6556,-0.6416,-0.5697,-0.4879,-0.398,-0.3025,-0.2484,-0.2209,-0.2186,-0.2487,-0.3218,-0.4408,-0.5378,0.0,-0.4497,-0.449,-0.4456,-0.4248,-0.4462,-0.4892,-0.5473,-0.6061,-0.6571,-0.7004,-0.7521,-0.8132,-0.8751,-0.915,-0.9659,-1.026,-1.0614,-1.0907,-1.1174,-1.1917,-1.3266,-1.4868,-1.5682,-1.6048,-1.6157,-1.6439,-1.6536,-1.6536,-1.6394,0.0,0.0,0.0,0.0,0.0,0.0,0.0,0.0,0.0,0.0,0.0,0.0,0.0,0.0,0.0,0.0,0.0,0.0,0.0,0.0,0.0,0.0,0.0,0.0,-0.5233,-0.4676,-0.4287,-0.4921,-0.5411,-0.5238,-0.5203,-0.5121,-0.4893,-0.486,-0.4867,-0.4867,-0.4895,-0.4945,-0.4956,0.0,0.0,0.0,0.0,-0.5118,-0.5204,-0.5353,-0.5163,-0.4616,-0.4665,-0.4665,-0.4618,-0.4453,-0.4257,-0.4034,-0.3626,-0.3397,-0.3303,-0.2807,-0.2624,-0.2669,-0.3558,-0.4022,-0.4253,-0.4708,-0.4248,-0.3287,0.0,0.0,0.0,0.0,0.0,0.0,0.0,-0.5336,-0.5222,-0.5085,-0.3792,-0.2767,-0.2387,-0.1525,-0.1279,-0.2044,-0.2484,-0.3215,-0.4433,0.0,-0.424,-0.35,-0.2666,-0.2348,-0.2654,-0.3123,-0.3557,-0.3996,-0.4924,-0.5677,-0.6231,-0.6813,-0.7349,-0.7791,-0.8023,-0.8273,-0.8571,-0.8836,-0.9026,-0.9263,-0.9759,-1.1282,-1.3393,-1.4241,-1.4995,-1.5576,-1.5637,-1.5893,-1.6134,-1.5724,-1.5061,-1.4311,-1.4014,0.0,0.0,0.0,0.0,0.0,0.0,0.0,0.0,0.0,0.0,0.0,0.0,0.0,0.0,0.0,0.0,0.0,0.0,0.0,0.0,-0.4966,-0.4174,-0.3611,-0.3717,-0.39,-0.4032,-0.4162,-0.4093,-0.4,-0.3952,-0.4012,-0.4051,-0.4051,-0.4005,-0.4005,-0.4071,-0.3994,-0.4191,-0.4711,-0.4417,-0.4404,-0.4722,-0.4451,-0.4244,-0.4161,0.0,0.0,-0.4161,-0.4325,-0.4166,-0.3646,-0.2967,-0.2516,-0.2258,-0.1714,-0.1364,-0.1262,-0.1858,-0.2107,-0.2107,-0.1798,-0.155,-0.1355,0.0,0.0,0.0,0.0,0.0,0.0,0.0,-0.4625,-0.4594,-0.4291,-0.3496,-0.2796,-0.2397,-0.1917,-0.1847,-0.2487,-0.339,-0.3603,0.0,-0.3449,-0.3096,-0.1521,-0.1177,-0.1194,-0.1548,-0.1925,-0.2378,-0.2908,-0.3591,-0.4261,-0.4915,-0.5399,-0.5854,-0.6272,-0.6546,-0.6853,-0.7161,-0.7617,-0.7855,-0.7987,-0.8494,-0.9441,-1.0684,-1.2282,-1.3453,-1.4263,-1.45,-1.4805,-1.5031,-1.4815,-1.4158,-1.3367,-1.3173,-1.2353,-1.1482,0.0,0.0,0.0,0.0,0.0,0.0,0.0,0.0,0.0,0.0,0.0,0.0,0.0,0.0,-0.5613,-0.4756,0.0,-0.3911,-0.3519,-0.3203,-0.3002,-0.2915,-0.2915,-0.3094,-0.3674,-0.3709,-0.3658,-0.3697,-0.3735,-0.3913,-0.4377,-0.4047,-0.3922,-0.4249,-0.3757,-0.3728,-0.421,-0.3693,-0.3714,-0.4272,-0.3814,-0.3581,-0.3581,-0.3883,-0.3883,-0.3581,-0.358,-0.3429,-0.318,-0.2373,-0.1918,-0.1767,-0.1061,-0.0808,-0.0808,-0.0808,-0.0959,-0.1162,-0.0909,-0.0707,-0.0606,0.0,0.0,0.0,0.0,0.0,0.0,0.0,-0.408,-0.4059,-0.3643,-0.3393,-0.3062,-0.2634,-0.255,-0.2687,-0.3134,-0.4311,-0.3984,0.0,-0.2339,-0.1861,0.0487,0.019,-0.0154,-0.047,-0.0784,-0.1215,-0.1764,-0.2193,-0.2701,-0.337,-0.3759,-0.4146,-0.4574,-0.5002,-0.5389,-0.5777,-0.6433,-0.6745,-0.6841,-0.7391,-0.7648,-0.7874,-0.9927,-1.1398,-1.25,-1.2981,-1.3278,-1.3471,-1.3446,-1.2886,-1.2195,-1.2064,-1.131,-1.05,-1.0458,-1.0106,0.0,0.0,0.0,0.0,0.0,0.0,0.0,0.0,0.0,-0.542,-0.4912,-0.4453,-0.3887,-0.2834,-0.2929,-0.2949,-0.2295,-0.2482,-0.2574,-0.2224,-0.218,-0.2498,-0.3223,-0.3403,-0.3432,-0.3503,-0.3523,-0.3836,-0.4614,-0.4039,-0.3876,-0.4283,-0.3589,-0.3316,-0.3674,-0.3176,-0.3177,-0.3781,-0.338,-0.318,-0.318,-0.313,-0.313,-0.313,-0.2826,-0.2725,-0.2674,-0.1869,-0.1415,-0.1263,-0.0606,-0.0455,-0.0606,-0.0152,-0.0253,-0.0657,-0.0657,-0.0505,-0.0303,0.0,0.0,0.0,0.0,0.0,0.0,0.0,0.0,-0.3277,-0.3556,-0.3021,-0.2661,-0.2849,-0.2497,-0.2654,-0.3634,-0.4407,0.0,-0.1947,-0.1406,-0.0362,0.146,0.1602,0.1446,0.1058,0.0627,0.0196,-0.0236,-0.0666,-0.1175,-0.1842,-0.2077,-0.2506,-0.3052,-0.3483,-0.3798,-0.4112,-0.4737,-0.5085,-0.5276,-0.5715,-0.5996,-0.6249,-0.7106,-0.8547,-1.0129,-1.0627,-1.1117,-1.1531,-1.1112,-1.0935,-1.0725,-1.011,-0.9659,-0.935,-0.9183,0.0,-0.8367,-0.8214,-0.7383,-0.6579,-0.6486,-0.6239,-0.5924,0.0,0.0,-0.4659,-0.4435,-0.3512,-0.2675,-0.2549,-0.2236,-0.2026,-0.2161,-0.203,-0.1996,-0.2175,-0.218,-0.2228,-0.2322,-0.2604,-0.2813,-0.282,-0.2871,-0.3052,-0.3359,-0.3066,-0.2865,-0.3015,-0.3075,-0.2926,-0.2571,-0.2977,-0.3079,-0.2927,-0.313,-0.318,-0.318,-0.2977,-0.2826,-0.2826,-0.2573,-0.2422,-0.2422,-0.1615,-0.0859,-0.0152,-0.0101,-0.0051,-0.0101,0.0,-0.0051,-0.0101,-0.0101,-0.0051,-0.0051,0.0,0.0,0.0,0.0,0.0,0.0,0.0,0.0,0.0,-0.4213,-0.38,-0.3619,-0.3916,-0.3593,-0.3493,-0.3833,-0.395,0.0,-0.1057,-0.0497,0.0657,0.2674,0.254,0.2353,0.2195,0.1763,0.1372,0.1098,0.0705,0.0157,-0.0509,-0.0706,-0.1185,-0.1918,-0.2088,-0.2488,-0.3081,-0.3545,-0.3992,-0.4307,-0.4501,-0.4732,-0.5049,-0.5059,-0.5783,-0.6942,-0.8528,-0.9321,0.0,0.0,-0.9234,-0.9113,-0.8711,-0.8549,-0.8476,-0.8296,-0.7885,0.0,-0.6642,-0.6174,-0.5722,0.0,-0.4659,-0.433,-0.3705,-0.3358,-0.3179,-0.309,-0.269,-0.2334,-0.2334,-0.231,-0.2198,0.0,-0.201,-0.1984,-0.1811,-0.1812,-0.182,-0.1841,-0.2376,-0.2674,-0.2498,-0.2766,-0.3091,-0.3426,-0.2854,-0.2751,-0.3225,-0.2903,-0.2602,-0.2421,-0.2474,-0.2524,-0.2573,-0.2524,-0.2575,-0.2725,-0.2623,-0.2573,-0.2573,-0.2271,-0.1919,-0.1464,-0.1111,-0.0606,0.0,0.0,0.0,0.0,0.0,0.0,0.0,0.0,0.0,0.0,0.0,0.0,0.0,0.0,0.0,0.0,0.0,0.0,0.0,0.0,-0.4409,-0.4368,-0.4491,-0.426,-0.3953,-0.3648,0.0,0.0,0.0,0.0427,0.1646,0.362,0.3507,0.3409,0.3409,0.3017,0.2672,0.2452,0.2175,0.166,0.0949,0.0752,0.0159,-0.0683,-0.079,-0.1267,-0.201,-0.2487,-0.2938,-0.3372,-0.3489,-0.3684,-0.3917,-0.3682,-0.388,-0.4551,-0.6647,-0.759,0.0,0.0,-0.7759,-0.7698,-0.743,-0.7363,-0.7339,-0.7237,-0.6843,-0.6173,-0.5255,-0.4966,0.0,-0.3758,-0.3267,-0.2865,-0.233,-0.2062,-0.1974,-0.1974,-0.1974,-0.2019,-0.2154,-0.2361,-0.2343,-0.1988,-0.2062,-0.2039,-0.1572,-0.1582,-0.1692,-0.1813,-0.2513,-0.2817,-0.2371,-0.2769,-0.3082,-0.3272,-0.2674,-0.2523,-0.3127,-0.2672,-0.2321,-0.217,-0.2121,-0.2171,-0.2271,-0.2171,-0.2222,-0.2422,-0.2321,-0.2271,-0.2271,-0.2021,-0.1516,-0.0909,-0.0808,-0.0556,-0.0101,-0.0051,0.0,0.0,0.0,0.0,0.0,0.0,0.0,0.0,0.0,0.0,0.0,0.0,0.0,0.0,0.0,0.0,0.0,0.0,0.0,0.0,0.0,-0.3883,-0.3567,0.0,0.0,0.0,0.0,0.1409,0.283,0.4106,0.4649,0.4927,0.4927,0.4538,0.4156,0.3845,0.3845,0.3399,0.2633,0.2433,0.1806,0.0826,0.0432,-0.0079,-0.0708,-0.1372,-0.1882,-0.2275,-0.2668,-0.2826,-0.2863,-0.3056,-0.3253,-0.3618,-0.4908,0.0,0.0,0.0,-0.649,-0.6608,-0.6263,-0.5988,0.0,-0.5764,-0.5406,-0.4914,-0.416,0.0,-0.2911,-0.2597,-0.2016,-0.148,-0.1436,-0.1436,-0.1436,-0.1436,-0.1436,-0.157,-0.2109,-0.22,-0.2215,-0.2169,-0.2177,-0.2052,-0.157,-0.1794,-0.2061,-0.2354,-0.3089,-0.3274,0.0,-0.2671,-0.2723,-0.2472,-0.2171,-0.2022,-0.2071,-0.2271,-0.217,-0.1617,-0.212,-0.2271,-0.2022,-0.2271,-0.2371,-0.2422,-0.2122,-0.2022,-0.2022,-0.1718,-0.1465,-0.1162,-0.0909,-0.0657,-0.0354,-0.0101,0.0,0.0,0.0,0.0,0.0,0.0,0.0,0.0,0.0,0.0,0.0,0.0,0.0,0.0,0.0,0.0,0.0,0.0,0.0,0.0,0.0,0.0,0.0,0.0,0.0,0.0,0.0,0.1553,0.257,0.3928,0.4355,0.4551,0.4551,0.4585,0.456,0.4437,0.4277,0.4038,0.3602,0.2975,0.2272,0.1525,0.0949,0.0277,-0.0442,-0.079,-0.1256,-0.1806,-0.1806,-0.214,-0.2651,-0.261,-0.2916,-0.3485,0.0,0.0,0.0,0.0,-0.5474,-0.5435,-0.5247,0.0,-0.4819,-0.4685,-0.4469,-0.4071,-0.3042,0.0,-0.1791,-0.1254,-0.0807,-0.0538,-0.0718,-0.0718,-0.0807,-0.1121,-0.1211,-0.13,-0.1615,-0.1815,-0.1837,-0.1525,-0.1639,-0.1561,-0.1096,-0.1295,-0.15,-0.1617,-0.2318,0.0,0.0,0.0,0.0,-0.2472,-0.2321,-0.2322,-0.2523,-0.2272,-0.2121,-0.2119,-0.2121,-0.2071,-0.2022,-0.192,-0.1869,-0.1869,-0.1768,-0.1718,-0.1718,-0.1617,-0.1465,-0.1162,-0.0909,-0.0657,-0.0404,-0.0101,0.0,0.0,0.0202,0.0253,0.0303,0.0512,0.0562,0.0505,0.0,0.0,0.0,0.0,0.0,0.0,0.0,0.0,0.0,0.0,0.0,0.0,0.0,0.0,0.0,0.0,0.0,0.0,0.0,0.0,0.2433,0.3406,0.3808,0.3985,0.3911,0.4012,0.41,0.4214,0.4288,0.4187,0.3876,0.3321,0.267,0.1884,0.1384,0.0634,-0.0201,-0.0395,-0.0987,-0.1749,-0.1498,-0.1921,-0.2629,-0.2404,-0.2638,0.0,0.0,0.0,0.0,-0.4553,-0.4573,-0.443,-0.4224,-0.3906,-0.3519,-0.3151,-0.3012,-0.2776,-0.1701,-0.1164,-0.0761,-0.0134,0.0134,0.0179,-0.0045,-0.0179,-0.0403,-0.0852,-0.0948,-0.1086,-0.1482,-0.1688,-0.1662,-0.1283,-0.1435,-0.1404,-0.0848,-0.1092,-0.1392,-0.1469,-0.2122,-0.239,0.0,0.0,0.0,-0.217,-0.2221,-0.2271,-0.2373,-0.2021,-0.192,-0.212,-0.197,-0.1869,-0.1869,-0.1667,-0.1617,-0.1617,-0.1617,-0.1617,-0.1617,-0.1617,-0.1516,-0.1314,-0.096,-0.0707,-0.0505,-0.0051,0.0152,0.0152,0.0455,0.0556,0.0556,0.0768,0.0919,0.091,0.0,0.0,0.0,0.0,0.0,0.0,0.0,0.0,0.0,0.0,0.0,0.0,0.0,0.0,0.0,0.0,0.0,0.0,0.0,0.0,0.0,0.2538,0.3114,0.3338,0.3173,0.3,0.3043,0.3315,0.3855,0.39,0.3476,0.3516,0.2953,0.1914,0.1682,0.1017,0.0,-0.0196,-0.0991,-0.2021,-0.1702,-0.2057,-0.2763,-0.2421,0.0,0.0,0.0,0.0,0.0,0.0,0.0,0.0,-0.3197,-0.2653,-0.201,-0.1293,-0.1211,-0.1166,-0.0224,0.0045,0.0179,0.0628,0.0718,0.0673,0.0448,0.0224,-0.009,-0.0583,-0.0683,-0.0872,0.0,0.0,-0.1655,-0.1395,-0.1572,-0.1494,-0.0783,-0.1176,-0.168,0.0,0.0,0.0,0.0,0.0,0.0,-0.1667,0.0,-0.192,-0.1667,-0.1617,-0.1566,-0.1566,-0.1566,-0.1566,-0.1617,-0.1566,-0.1566,-0.1566,-0.1566,-0.1566,-0.1566,-0.1566,-0.1566,-0.1516,-0.101,-0.0758,-0.0707,0.0101,0.0404,0.0455,0.0707,0.0808,0.0859,0.086,0.1011,0.1217,0.0,0.0,0.0,0.0,0.0,0.0,0.0,0.0,0.0,0.0,0.0,0.0,0.0,0.0,0.0,0.0,0.0,0.0,0.0,0.0,0.0,0.0,0.0,0.0,0.0,0.0,0.0,0.0,0.0,0.3185,0.3187,0.2874,0.2464,0.204,0.1523,0.0966,0.0334,-0.0111,-0.0641,-0.1195,0.0,-0.1788,-0.252,0.0,0.0,0.0,0.0,0.0,0.0,0.0,0.0,0.0,0.0,-0.1601,-0.1514,-0.094,-0.0718,-0.0493,0.0134,0.0538,0.0852,0.0987,0.0987,0.0897,0.0493,0.0448,0.0403,-0.009,-0.018,-0.0226,0.0,0.0,0.0,-0.072,-0.1013,0.0,-0.0771,-0.0886,0.0,-0.1392,0.0,-0.1641,-0.1816,-0.1919,0.0,0.0,-0.1918,-0.2271,-0.2221,-0.1615,-0.1313,-0.1313,-0.1313,-0.1415,-0.1617,-0.1415,-0.1313,-0.1313,-0.1111,-0.1111,-0.1313,-0.1111,-0.101,-0.096,-0.0455,-0.0202,-0.0152,0.0455,0.0707,0.0707,0.101,0.1212,0.1417,0.1691,0.1957,0.2169,0.0,0.0,0.0,0.0,0.0,0.0,0.0,0.0,0.0,0.0,0.0,0.0,0.0,0.0,0.0,0.0,0.0,0.0,0.0,0.0,0.0,0.0,0.0,0.0,0.0,0.0,0.0,0.0,0.0,0.0,0.0,0.1919,0.1747,0.142,0.0947,0.0474,0.0,-0.0474,0.0,0.0,0.0,0.0,0.0,0.0,0.0,0.0,0.0,0.0,0.0,0.0,0.0,-0.1549,-0.0715,-0.0446,-0.0355,0.0224,0.0,0.0493,0.1031,0.1292,0.1415,0.1371,0.1186,0.1004,0.0742,0.0704,0.0575,0.0221,0.0224,0.0,0.0182,0.0,0.0,0.0,0.0,0.0,-0.0416,-0.0517,-0.067,0.0,-0.0975,0.0,-0.121,-0.1465,-0.1465,0.0,-0.1615,-0.1817,-0.1716,-0.1262,-0.101,-0.101,-0.101,-0.1111,-0.1263,-0.1111,-0.101,-0.101,-0.0859,-0.096,-0.1212,-0.0909,-0.0859,-0.0909,0.0,0.0152,0.0253,0.1019,0.1373,0.1365,0.1696,0.1905,0.1998,0.2242,0.2414,0.2523,0.0,0.0,0.0,0.0,0.0,0.0,0.0,0.0,0.0,0.0,0.0,0.0,0.0,0.0,0.0,0.0,0.0,0.0,0.0,0.0,0.0,0.0,0.0,0.0,0.0,0.0,0.0,0.0,0.0,0.0,0.0,0.0,0.0,0.0,0.0,0.0,0.0,0.0,0.0,0.0,0.0,0.0,0.0,0.0,0.0,0.0,0.0,0.0,0.0,0.0,-0.0622,-0.0525,0.0267,0.0575,0.083,0.1556,0.156,0.1468,0.2002,0.1931,0.173,0.1644,0.1323,0.1053,0.1011,0.0942,0.0783,0.0522,0.0,0.0833,0.0648,0.0371,0.028,0.0428,0.0,-0.0234,-0.0047,-0.0239,-0.0433,-0.0438,-0.0636,-0.0741,-0.0804,-0.1213,-0.1368,-0.1112,-0.1114,-0.1013,-0.0808,-0.0758,-0.0758,-0.0758,-0.0758,-0.0758,-0.0758,-0.0758,-0.0758,-0.0758,-0.0707,-0.0859,-0.1061,-0.0808,-0.0808,-0.1011,0.0,0.0,0.0455,0.1544,0.2003,0.193,0.2413,0.258,0.2555,0.2649,0.2668,0.2727,0.0,0.0,0.0,0.0,0.0,0.0,0.0,0.0,0.0,0.0,-0.289,-0.2396,0.0,0.0,0.0,0.0,0.0,0.0,0.0,0.0,0.0,0.0,0.0,0.0,0.0,0.0,0.0,0.0,0.0,0.0,0.0,0.0,0.0,0.0,0.0,0.0,0.0,0.0,0.0,0.0,0.0,0.0,0.0,0.0,0.0,0.0,0.0,0.0,0.0,0.0,-0.0091,-0.0268,0.0672,0.0841,0.0827,0.1528,0.1424,0.1192,0.1659,0.157,0.1397,0.1355,0.1309,0.1221,0.1053,0.1456,0.0,0.0,0.1619,0.1898,0.1666,0.1407,0.114,0.0858,0.0434,0.0096,-0.0187,0.0,-0.0483,0.0,0.0,0.0,0.0,0.0,0.0,0.0,0.0,-0.0616,-0.0809,-0.0606,-0.0455,-0.0455,-0.0707,-0.0707,-0.0455,-0.0455,-0.0455,-0.0455,-0.0253,-0.0303,-0.0505,-0.0253,-0.0152,-0.0202,0.0205,0.0,0.0152,0.1235,0.1604,0.1497,0.2235,0.2677,0.2918,0.2928,0.3118,0.3318,0.0,0.0,0.0,0.0,0.0,0.0,0.0,-0.4826,-0.4591,-0.4202,-0.3738,-0.3387,-0.3253,-0.3254,-0.3359,0.0,0.0,0.0,0.0,0.0,0.0,0.0,0.0,0.0,0.0,0.0,0.0,0.0,0.0,0.0,0.0,0.0,0.0,0.0,0.0,0.0,0.0,0.0,0.0,0.0,0.0,0.0,0.0,0.0,0.0,0.0,0.0,0.0,0.0,0.0,0.0543,0.0629,0.1135,0.1404,0.157,0.1995,0.2047,0.2012,0.2352,0.2061,0.1654,0.1654,0.1393,0.1142,0.1321,0.0,0.0,0.0,0.2038,0.2183,0.2112,0.1879,0.0,0.1448,0.1171,0.0826,0.033,0.0,0.0,0.0,0.0,0.0,0.0,0.0,0.0,0.0,0.0,-0.0561,-0.0404,-0.0253,-0.0202,-0.0202,-0.0303,-0.0303,-0.0202,-0.0202,-0.0202,-0.0202,-0.0202,-0.0253,-0.0404,-0.0253,-0.0203,-0.0154,0.0362,0.0,0.0923,0.174,0.2216,0.2392,0.2887,0.3133,0.3243,0.3273,0.3411,0.3544,0.0,0.0,0.0,0.0,0.0,0.0,0.0,-0.527,-0.5231,-0.4714,-0.4517,-0.4371,-0.4202,-0.4088,-0.4119,0.0,0.0,0.0,0.0,0.0,0.0,0.0,0.0,0.0,0.0,0.0,0.0,0.0,0.0,0.0,0.0,0.0,0.0,0.0,0.0,0.0,0.0,0.0,0.0,0.0,0.0,0.0,0.0,0.0,0.0,0.0,0.0,0.0,0.0,0.0,0.1124,0.1492,0.164,0.1964,0.2323,0.2553,0.2712,0.2871,0.3039,0.2578,0.2016,0.1936,0.1433,0.1107,0.1579,0.1678,0.0,0.0,0.2381,0.2482,0.2473,0.2315,0.2131,0.0,0.1915,0.1562,0.0962,0.0912,0.0,0.0,0.0,0.0,0.0,0.0,0.0,0.0,0.0,0.0,0.0051,0.0051,0.0051,0.0101,0.0051,0.0,0.0,0.0,0.0,0.0,-0.0202,-0.0303,-0.0303,-0.0303,-0.0306,-0.026,0.0365,0.0,0.0,0.2106,0.2691,0.311,0.3459,0.3546,0.3522,0.357,0.3587,0.3587,0.0,0.0,0.0,0.0,0.0,0.0,0.0,-0.5351,-0.521,-0.5383,-0.4923,-0.4812,-0.5375,-0.4839,-0.4606,0.0,0.0,0.0,0.0,0.0,0.0,0.0,0.0,0.0,0.0,0.0,0.0,0.0,0.0,0.0,0.0,0.0,0.0,0.0,0.0,0.0,0.0,0.0,0.0,0.0,0.0,0.0,0.0,0.0,0.0,0.0,0.0,0.0,0.0,0.0,0.0,0.1834,0.2123,0.2362,0.2535,0.2919,0.0,0.0,0.3021,0.2605,0.2086,0.1734,0.1456,0.1344,0.162,0.0,0.0,0.2493,0.2963,0.3234,0.3048,0.2994,0.0,0.0,0.0,0.2009,0.1273,0.1371,0.0,0.0,0.0,0.0,0.0,0.0,0.0,0.0,0.0,0.0,0.0354,0.0152,0.0101,0.0354,0.0152,0.0,0.0,0.0,0.0,0.0,0.0,-0.0051,-0.0051,-0.0051,-0.0051,-0.0052,0.0053,0.0,0.0,0.1464,0.202,0.2451,0.3226,0.3536,0.3579,0.3585,0.3587,0.3587,0.0,0.0,0.0,0.0,0.0,0.0,-0.4964,-0.5083,-0.5183,-0.5079,-0.5014,-0.5069,-0.5383,-0.5232,-0.5224,-0.5509,0.0,0.0,0.0,0.0,0.0,0.0,0.0,0.0,0.0,0.0,0.0,0.0,0.0,0.0,0.0,0.0,0.0,0.0,0.0,0.0,0.0,0.0,0.0,0.0,0.0,0.0,0.0,0.0,0.0,0.0,0.0,0.0,0.0,0.0,0.0,0.0,0.2492,0.2875,0.0,0.0,0.3694,0.381,0.3688,0.3108,0.2511,0.2198,0.1885,0.1786,0.2224,0.0,0.2651,0.3172,0.346,0.3563,0.3282,0.3282,0.3122,0.0,0.0,0.0,0.1544,0.0,0.0,0.0,0.0,0.0,0.0,0.0,0.0,0.0,0.0,0.0,0.0925,0.0661,0.0556,0.0657,0.0556,0.0404,0.0253,0.0253,0.0152,0.0,-0.0152,-0.0152,0.0,-0.0154,-0.0156,0.0,0.0,0.0,0.0,0.1422,0.1974,0.232,0.3193,0.3565,0.3587,0.3587,0.3587,0.3587,0.0,0.0,0.0,0.0,0.0,-0.4867,-0.4666,-0.4893,-0.5053,-0.4954,-0.5019,-0.5171,-0.5393,-0.5581,-0.5752,-0.5968,-0.5887,0.0,0.0,0.0,0.0,0.0,0.0,0.0,0.0,0.0,0.0,0.0,0.0,0.0,0.0,0.0,0.0,0.0,0.0,0.0,0.0,0.0,0.0,0.0,0.0,0.0,0.0,0.0,0.0,0.0,0.0,0.0,0.0,0.0,0.0,0.0,0.0,0.0,0.0,0.0,0.4357,0.4578,0.4411,0.3837,0.3204,0.2842,0.2524,0.235,0.0,0.0,0.299,0.3579,0.3743,0.3676,0.3365,0.3399,0.3226,0.0,0.0,0.2451,0.1828,0.1934,0.0,0.0,0.0,0.0,0.0,0.0,0.0,0.0,0.0,0.0,0.1151,0.1075,0.101,0.0909,0.0758,0.0606,0.0404,0.0404,0.0253,0.0,-0.0101,-0.0102,0.0,-0.0208,-0.021,-0.0108,0.0,0.0,0.0,0.1379,0.1985,0.2315,0.3216,0.3587,0.3587,0.3587,0.3587,0.3587,0.0,0.0,0.0,0.0,0.0,0.0,-0.5158,-0.4857,-0.477,-0.5241,-0.5002,-0.5041,-0.5636,-0.5929,-0.6184,-0.6367,-0.639,0.0,0.0,0.0,0.0,0.0,0.0,0.0,0.0,0.0,0.0,-0.7186,0.0,0.0,0.0,0.0,0.0,0.0,0.0,0.0,0.0,0.0,0.0,0.0,0.0,0.0,0.0,0.0,0.0,0.0,0.0,0.0,0.0,0.0,0.0,0.0,0.0,0.0,0.0,0.0,0.4939,0.5155,0.4937,0.4645,0.4235,0.3566,0.3231,0.3123,0.0,0.0,0.3031,0.3577,0.3702,0.3632,0.3419,0.3383,0.3239,0.2761,0.271,0.0,0.2062,0.2243,0.0,0.0,0.0,0.0,0.0,0.0,0.0,0.0,0.0,0.0,0.0851,0.1288,0.1465,0.1212,0.0657,0.0404,0.0404,0.0404,0.0253,0.0,0.0253,0.0255,0.0,0.0,-0.0159,0.0,0.0,0.0,0.0,0.1281,0.1999,0.241,0.3286,0.3587,0.3587,0.3587,0.3587,0.3587,0.0,0.0,0.0,0.0,0.0,0.0,0.0,-0.5248,-0.5275,-0.5404,-0.555,-0.5701,-0.589,-0.6397,-0.6657,-0.6543,-0.6713,0.0,0.0,0.0,0.0,0.0,0.0,0.0,0.0,0.0,-0.7715,-0.7955,-0.736,-0.6972,0.0,0.0,0.0,0.0,0.0,0.0,0.0,0.0,0.0,0.0,0.0,0.0,0.0,0.0,0.0,0.0,0.0,0.0,0.0,0.0,0.0,0.0,0.0,0.0,0.0,0.3854,0.4613,0.5114,0.4726,0.4395,0.4028,0.3695,0.3193,0.2917,0.3326,0.0,0.3151,0.3557,0.3665,0.3646,0.3572,0.3562,0.3455,0.2986,0.2909,0.0,0.0,0.0,0.0,0.0,0.0,0.0,0.0,0.0,0.0,0.0,0.0,0.0,0.1518,0.1592,0.1502,0.1213,0.101,0.0859,0.0657,0.0657,0.0606,0.0556,0.046,0.0364,0.0265,0.0268,0.0108,0.0,0.0,0.0,0.0,0.1159,0.1654,0.1562,0.3048,0.3587,0.3587,0.3587,0.3587,0.3587,0.0,0.0,0.0,0.0,0.0,0.0,0.0,-0.5599,-0.5604,-0.568,-0.6022,-0.6298,-0.6381,-0.7015,-0.7333,-0.6996,-0.7321,0.0,0.0,0.0,0.0,0.0,0.0,0.0,0.0,-0.8097,-0.7817,-0.8011,-0.7477,-0.7049,-0.6716,-0.6354,-0.615,0.0,0.0,0.0,0.0,0.0,0.0,0.0,0.0,0.0,-0.4001,0.0,0.0,0.0,0.0,0.0,0.0,0.0,0.0,0.0,0.0,0.0,0.0,0.0,0.4193,0.4769,0.0,0.4293,0.4172,0.3996,0.3705,0.3502,0.0,0.0,0.3615,0.3799,0.3895,0.3879,0.3767,0.3599,0.3446,0.3218,0.3039,0.2884,0.0,0.0,0.0,0.0,0.0,0.0,0.0,0.0,0.0,0.0,0.0,0.0,0.1804,0.172,0.1582,0.1238,0.1237,0.1134,0.0979,0.0979,0.0928,0.0826,0.0782,0.0688,0.0592,0.0436,0.0,0.0,0.0,0.0,0.0,0.116,0.171,0.1778,0.3105,0.3643,0.3757,0.3643,0.3587,0.3587,0.0,0.0,0.0,0.0,0.0,0.0,0.0,-0.5997,-0.5847,-0.6017,-0.6446,-0.6822,-0.7025,-0.7756,-0.8074,-0.7696,0.0,0.0,0.0,0.0,0.0,0.0,0.0,0.0,0.0,-0.7967,-0.7547,-0.7455,-0.7113,-0.6782,-0.6387,-0.6086,-0.6234,-0.6656,0.0,0.0,0.0,0.0,0.0,0.0,-0.4611,-0.4652,0.0,0.0,0.0,0.0,0.0,0.0,0.0,0.0,0.0,0.0,0.0,0.0,0.0,0.0,0.0,0.0,0.0,0.4342,0.4546,0.4368,0.448,0.4572,0.4344,0.0,0.0,0.4255,0.4255,0.4191,0.4047,0.3592,0.3325,0.3558,0.3151,0.2979,0.0,0.2895,0.0,0.0,0.0,0.0,0.0,0.0,0.0,0.0,0.0,0.0,0.1807,0.1726,0.1603,0.1336,0.1336,0.1335,0.1278,0.1278,0.1171,0.0959,0.1173,0.1129,0.0873,0.0548,0.0,0.0,0.0,0.0,0.0,0.1281,0.2109,0.2734,0.334,0.3757,0.3924,0.3699,0.3587,0.3643,0.0,0.0,0.0,0.0,0.0,0.0,0.0,0.0,0.0,0.0,-0.69,-0.7251,-0.7504,-0.817,-0.8525,0.0,0.0,0.0,0.0,0.0,0.0,0.0,0.0,0.0,0.0,-0.8448,-0.8068,-0.7053,-0.7363,-0.7129,-0.642,-0.6478,-0.6568,-0.6685,-0.6055,0.0,0.0,0.0,0.0,0.0,-0.5512,-0.5512,0.0,0.0,0.0,0.0,-0.3997,-0.3183,0.0,0.0,0.0,0.0,0.0,0.0,0.0,0.0,0.2777,0.3062,0.3114,0.0,0.4362,0.4293,0.4076,0.3901,0.0,0.0,0.0,0.0,0.0,0.3834,0.4049,0.3821,0.3769,0.4309,0.3943,0.3529,0.33,0.0,0.0,0.0,0.0,0.0,0.0,0.0,0.0,0.0,0.0,0.1784,0.1784,0.1778,0.1774,0.1663,0.1663,0.1532,0.1278,0.1278,0.1376,0.1517,0.1181,0.092,0.0806,0.0551,0.0,0.0,0.0,0.0,0.0438,0.1114,0.1777,0.2464,0.3286,0.3643,0.3699,0.3643,0.3587,0.3643,0.0,0.0,0.0,0.0,0.0,0.0,0.0,0.0,0.0,0.0,0.0,-0.7874,-0.8339,-0.882,0.0,0.0,0.0,0.0,0.0,0.0,0.0,0.0,0.0,0.0,-0.8202,-0.8104,-0.7681,-0.6905,-0.7031,-0.6759,-0.6137,-0.6375,-0.6511,-0.6564,-0.6267,0.0,0.0,0.0,0.0,0.0,-0.5667,0.0,0.0,0.0,0.0,0.0,-0.391,-0.313,0.0,-0.1372,-0.0746,-0.0315,0.0,0.0,0.0,0.0,0.2013,0.2268,0.2383,0.3066,0.3761,0.3798,0.3674,0.3633,0.3857,0.0,0.0,0.0,0.0,0.4002,0.4318,0.3998,0.3878,0.4528,0.4143,0.0,0.0,0.0,0.0,0.0,0.0,0.0,0.0,0.0,0.0,0.0,0.0,0.1964,0.1964,0.1851,0.1795,0.1795,0.1795,0.1723,0.1528,0.1516,0.161,0.1756,0.1463,0.1197,0.1026,0.0776,0.0449,0.0,0.0,0.0,0.1106,0.1385,0.216,0.31,0.3463,0.3699,0.3757,0.3643,0.3587,0.3643,0.0,0.0,0.0,0.0,0.0,0.0,0.0,0.0,0.0,0.0,0.0,0.0,0.0,0.0,0.0,0.0,0.0,0.0,0.0,0.0,0.0,0.0,0.0,-0.8429,-0.8275,-0.7652,-0.7172,-0.6772,-0.6604,-0.6298,-0.5868,-0.6173,-0.6383,-0.6518,-0.6323,-0.605,0.0,0.0,0.0,0.0,-0.5509,0.0,0.0,0.0,0.0,0.0,0.0,0.0,0.0,-0.1177,-0.0707,-0.0631,-0.0202,0.0,0.0,0.0,0.0,0.0,0.1929,0.2412,0.286,0.3035,0.3317,0.3542,0.3812,0.0,0.0,0.0,0.0,0.0,0.0,0.4152,0.0,0.0,0.0,0.0,0.3473,0.3281,0.0,0.0,0.0,0.0,0.0,0.0,0.0,0.0,0.0,0.2238,0.23,0.1964,0.1795,0.1851,0.1795,0.1795,0.1795,0.1765,0.1747,0.1797,0.1639,0.1476,0.1203,0.089,0.0617,0.0,0.0,0.0,0.1793,0.1822,0.2656,0.3924,0.3699,0.3757,0.3924,0.3699,0.3587,0.3643,0.0,0.0,0.0,0.0,0.0,0.0,0.0,0.0,0.0,0.0,0.0,0.0,0.0,0.0,0.0,0.0,0.0,0.0,0.0,0.0,0.0,0.0,-0.9892,-0.9388,-0.8171,-0.8328,-0.7708,-0.6216,-0.6791,-0.6714,-0.6081,-0.6556,-0.6898,-0.7043,-0.6344,-0.6178,-0.6409,0.0,0.0,-0.5559,-0.5398,0.0,0.0,0.0,0.0,0.0,0.0,0.0,0.0,-0.157,-0.1178,-0.1065,-0.0444,0.0,0.0,0.0,0.0,0.0,0.1779,0.1742,0.1827,0.2428,0.2822,0.3136,0.0,0.0,0.0,0.0,0.0,0.0,0.0,0.4268,0.4154,0.0,0.0,0.0,0.0,0.0,0.0,0.0,0.0,0.0,0.0,0.0,0.0,0.0,0.0,0.232,0.2635,0.2076,0.1907,0.2132,0.1908,0.1795,0.1795,0.1544,0.1465,0.1712,0.0978,0.0711,0.093,0.0389,0.0112,0.0,0.0,0.0895,0.1795,0.2067,0.2739,0.3643,0.3643,0.3643,0.3643,0.3587,0.3587,0.3643,0.0,0.0,0.0,0.0,0.0,0.0,0.0,0.0,0.0,0.0,0.0,0.0,0.0,0.0,0.0,0.0,0.0,0.0,0.0,0.0,0.0,-0.9594,-0.9746,-0.9309,-0.8238,-0.8186,-0.768,-0.6699,-0.6953,-0.6775,-0.616,-0.6541,-0.6895,-0.7153,-0.6341,-0.6083,-0.6173,-0.5559,-0.5287,-0.5249,0.0,0.0,0.0,0.0,0.0,0.0,0.0,0.0,0.0,0.0,-0.1681,-0.1405,-0.0973,0.0,0.0,0.0,0.0,0.0,0.0784,0.0839,0.0938,0.1301,0.1838,0.2417,0.0,0.0,0.0,0.0,0.0,0.0,0.0,0.0,0.4386,0.4716,0.0,0.0,0.0,0.0,0.0,0.0,0.0,0.0,0.0,0.0,0.0,0.0,0.0,0.0,0.2914,0.2524,0.2356,0.2469,0.2188,0.2011,0.1992,0.1523,0.1449,0.1705,0.1289,0.1132,0.1133,0.0831,0.0729,0.0728,0.0,0.1446,0.2298,0.2443,0.2891,0.3587,0.3587,0.3587,0.3643,0.3757,0.3813,0.3867,0.0,0.0,0.0,0.0,0.0,0.0,0.0,0.0,0.0,0.0,0.0,0.0,0.0,0.0,0.0,0.0,0.0,0.0,0.0,0.0,-1.007,-0.9199,-0.9096,-0.8829,-0.8323,-0.8009,-0.7615,-0.7081,-0.7057,-0.6739,-0.6176,-0.643,-0.6718,-0.694,-0.6197,-0.5862,-0.5786,-0.5249,-0.5031,-0.5014,0.0,0.0,0.0,0.0,0.0,0.0,0.0,0.0,0.0,0.0,0.0,0.0,0.0,0.0,0.0,-0.0306,-0.0045,0.0139,0.0231,0.0376,0.0524,0.0668,0.0,0.0,0.0,0.0,0.0,0.0,0.0,0.0,0.0,0.449,0.0,0.0,0.0,0.0,0.0,0.0,0.0,0.0,0.0,0.0,0.0,0.0,0.0,0.0,0.0,0.0,0.3193,0.2861,0.275,0.2806,0.2412,0.2175,0.2201,0.1669,0.1494,0.1714,0.1601,0.1444,0.1295,0.1219,0.1234,0.1289,0.1548,0.2051,0.2691,0.2932,0.3214,0.3587,0.3587,0.3643,0.3755,0.4036,0.4148,0.426,0.0,0.0,0.0,0.0,0.0,0.0,0.0,0.0,0.0,0.0,0.0,0.0,0.0,0.0,0.0,0.0,0.0,0.0,0.0,0.0,-0.9125,-0.8486,-0.8231,-0.8183,-0.8385,-0.8364,-0.7823,-0.6744,-0.7035,-0.6813,-0.6104,-0.6325,-0.6391,-0.6337,-0.577,-0.5569,-0.5598,-0.5171,-0.5078,-0.5165,-0.482,0.0,0.0,0.0,0.0,0.0,0.0,0.0,0.0,0.0,0.0,0.0,0.0,0.0,-0.0568,0.0133,0.0364,0.0463,0.0925,0.0892,0.0906,0.1383,0.1715,0.0,0.0,0.0,0.0,0.0,0.0,0.0,0.0,0.482,0.4724,0.0,0.0,0.0,0.0,0.0,0.0,0.0,0.0,0.0,0.0,0.0,0.0,0.0,0.0,0.0,0.3529,0.3029,0.2805,0.3082,0.2523,0.2187,0.2184,0.1842,0.1718,0.1801,0.1236,0.1085,0.1285,0.1064,0.1065,0.1346,0.2238,0.2631,0.275,0.3585,0.3808,0.3587,0.3587,0.3757,0.4036,0.4369,0.465,0.4819,0.0,0.0,0.0,0.0,0.0,0.0,0.0,0.0,0.0,0.0,0.0,0.0,0.0,0.0,0.0,0.0,0.0,0.0,0.0,0.0,-0.9111,-0.8357,-0.8047,-0.7699,-0.728,-0.7716,-0.766,-0.7071,-0.6854,-0.6617,-0.6303,-0.6453,-0.6437,-0.6269,-0.5901,-0.5685,-0.5559,-0.5171,-0.4965,-0.494,-0.4784,-0.4796,0.0,0.0,0.0,0.0,0.0,0.0,0.0,0.0,-0.206,-0.1586,-0.0853,-0.0564,-0.0354,0.0353,0.0721,0.0835,0.0893,0.1185,0.1435,0.1501,0.2088,0.0,0.0,0.0,0.0,0.0,0.0,0.0,0.0,0.0,0.0,0.0,0.0,0.0,0.0,0.0,0.0,0.0,0.0,0.0,0.0,0.0,0.0,0.0,0.0,0.0,0.3583,0.333,0.316,0.308,0.2692,0.2413,0.2188,0.1843,0.1729,0.1777,0.1513,0.1457,0.1602,0.1898,0.2076,0.2244,0.3139,0.3419,0.3309,0.3813,0.3868,0.3643,0.3757,0.3924,0.4036,0.4538,0.4817,0.4929,0.0,0.0,0.0,0.0,0.0,0.0,0.0,0.0,0.0,0.0,0.0,0.0,0.0,0.0,0.0,0.0,0.0,0.0,0.0,-0.8827,-0.8715,-0.8097,-0.7755,-0.7185,-0.6436,-0.6939,-0.7128,-0.6885,-0.6544,-0.6366,-0.631,-0.6383,-0.6306,-0.6092,-0.5794,-0.5544,-0.5365,-0.4976,-0.4867,-0.4953,-0.4718,-0.4792,0.0,0.0,0.0,0.0,0.0,0.0,0.0,0.0,-0.2108,-0.1488,-0.0819,-0.0482,-0.0134,0.0618,0.1041,0.1261,0.1263,0.1653,0.2057,0.0,0.0,0.0,0.0,0.0,0.0,0.0,0.0,0.0,0.0,0.0,0.0,0.0,0.0,0.0,0.0,0.0,0.0,0.0,0.0,0.0,0.0,0.0,0.0,0.0,0.0,0.0,0.0,0.3493,0.3325,0.3088,0.283,0.2561,0.2337,0.1957,0.1799,0.1907,0.195,0.1887,0.182,0.2289,0.2637,0.2861,0.3645,0.3868,0.3757,0.4036,0.3979,0.3757,0.4036,0.4204,0.4372,0.4985,0.5154,0.5154,0.0,0.0,0.0,0.0,0.0,0.0,0.0,0.0,0.0,0.0,0.0,0.0,0.0,0.0,0.0,0.0,0.0,0.0,-0.7612,-0.7741,-0.7741,-0.7607,-0.7194,-0.6693,-0.6005,-0.6105,-0.6132,-0.6009,-0.6056,-0.6098,-0.6098,-0.6097,-0.5955,-0.5681,-0.5274,-0.505,-0.4976,-0.4582,-0.4786,-0.5316,-0.4747,-0.4858,-0.5267,0.0,0.0,0.0,0.0,0.0,0.0,0.0,-0.1615,-0.13,-0.0852,-0.0359,0.0135,0.0897,0.134,0.1702,0.2089,0.2404,0.2666,0.0,0.0,0.0,0.0,0.0,0.0,0.0,0.0,0.0,0.0,0.0,0.0,0.0,0.0,0.0,0.0,0.0,0.0,0.0,0.0,0.0,0.0,0.0,0.0,0.0,0.0,0.0,0.0,0.3412,0.3252,0.2984,0.2764,0.2625,0.257,0.2078,0.193,0.2186,0.2384,0.2279,0.1795,0.2075,0.2522,0.3137,0.3757,0.3982,0.4036,0.4369,0.4314,0.4036,0.437,0.4648,0.4985,0.5599,0.5656,0.5437,0.0,0.0,0.0,0.0,0.0,0.0,0.0,0.0,0.0,0.0,0.0,0.0,0.0,0.0,0.0,0.0,0.0,0.0,-0.7588,-0.7673,-0.7555,-0.7116,-0.6776,-0.6116,-0.5105,-0.4907,-0.5135,-0.5873,-0.5796,-0.5708,-0.5598,-0.5689,-0.5706,-0.5622,-0.5126,-0.4965,-0.5039,-0.4585,-0.4465,-0.4551,-0.4358,-0.4274,-0.4249,0.0,0.0,0.0,0.0,0.0,0.0,0.0,0.0,0.0,-0.0134,0.0317,0.0687,0.1238,0.1804,0.229,0.2201,0.2665,0.0,0.351,0.0,0.0,0.0,0.0,0.0,0.0,0.0,0.0,0.0,0.0,0.0,0.0,0.0,0.0,0.0,0.0,0.0,0.0,0.0,0.0,0.0,0.0,0.0,0.0,0.0,0.0,0.0,0.3372,0.3158,0.2716,0.2839,0.2685,0.2255,0.2094,0.2045,0.211,0.2356,0.2333,0.2131,0.3209,0.3488,0.3138,0.4203,0.426,0.3699,0.3811,0.4033,0.4369,0.448,0.4648,0.4931,0.538,0.5601,0.5712,0.0,0.0,0.0,0.0,0.0,0.0,0.0,0.0,0.0,0.0,-0.6095,-0.6371,0.0,0.0,0.0,0.0,0.0,0.0,-0.737,-0.7272,-0.7078,-0.6722,-0.6357,-0.5719,-0.4765,-0.4406,-0.461,-0.5404,-0.5311,-0.5305,-0.5349,-0.5405,-0.5303,-0.5118,-0.4743,-0.464,-0.4758,-0.426,-0.4209,-0.4427,-0.4021,-0.3841,-0.3736,0.0,0.0,0.0,0.0,0.0,0.0,0.0,0.0,0.0,0.0179,0.0637,0.111,0.1757,0.2386,0.2846,0.2859,0.3327,0.0,0.4078,0.4371,0.481,0.5539,0.0,0.0,0.0,0.0,0.0,0.0,0.0,0.0,0.0,0.0,0.0,0.0,0.0,0.0,0.0,0.0,0.0,0.0,0.0,0.0,0.0,0.0,0.0,0.0,0.3461,0.3198,0.2712,0.2837,0.2804,0.2451,0.2253,0.2261,0.2477,0.2726,0.2747,0.2692,0.364,0.3928,0.3606,0.4411,0.4482,0.4091,0.3867,0.4091,0.4648,0.4814,0.5039,0.532,0.5768,0.588,0.5822,0.0,0.0,-0.4193,-0.4193,0.0,0.0,0.0,0.0,0.0,0.0,-0.6519,-0.6771,0.0,0.0,0.0,-0.6994,-0.6708,-0.6625,-0.6836,-0.6567,-0.6359,-0.6254,-0.588,-0.537,-0.4766,-0.4404,-0.4377,-0.4724,-0.4769,-0.4937,-0.5249,-0.5108,-0.4795,-0.4349,-0.42,-0.4141,-0.4157,-0.3637,-0.392,-0.4615,-0.3641,-0.3407,-0.3543,-0.2473,0.0,0.0,0.0,0.0,0.0,0.0,0.0,0.0,0.0359,0.0865,0.148,0.2362,0.2949,0.3365,0.3792,0.0,0.0,0.4651,0.4999,0.0,0.5869,0.0,0.0,0.0,0.0,0.0,0.0,0.0,0.0,0.0,0.0,0.0,0.0,0.0,0.0,0.0,0.0,0.0,0.0,0.0,0.0,0.0,0.0,0.0,0.0,0.3586,0.3332,0.2826,0.2872,0.2976,0.303,0.2538,0.256,0.0,0.3267,0.3397,0.3504,0.377,0.4076,0.437,0.4446,0.465,0.4873,0.426,0.4428,0.4985,0.5262,0.5541,0.5877,0.6434,0.627,0.588,0.0,0.0,-0.4052,-0.4052,0.0,0.0,0.0,0.0,0.0,0.0,0.0,0.0,0.0,0.0,0.0,-0.6243,-0.6121,-0.5943,-0.5693,-0.5649,-0.5501,-0.5245,-0.4786,-0.4458,-0.4244,-0.3932,-0.3833,-0.4017,-0.4537,-0.4782,-0.4736,-0.4733,-0.4427,-0.3918,-0.3664,-0.3526,-0.3398,-0.3078,-0.3054,-0.3242,-0.2885,-0.2694,-0.2566,-0.2015,-0.1651,0.0,0.0,0.0,0.0,0.0,0.0,0.0,0.13,0.173,0.2089,0.2733,0.3287,0.3703,0.3838,0.4248,0.0,0.0,0.5743,0.636,0.6087,0.6539,0.0,0.0,0.0,0.0,0.0,0.0,0.0,0.0,0.0,0.0,0.0,0.0,0.0,0.0,0.0,0.0,0.0,0.0,0.0,0.0,0.0,0.0,0.3586,0.3383,0.313,0.2826,0.304,0.3177,0.3289,0.2934,0.3065,0.0,0.3628,0.3753,0.4067,0.4534,0.4718,0.4646,0.4283,0.4428,0.4873,0.4538,0.4761,0.5268,0.5096,0.532,0.5822,0.5933,0.6102,0.6219,0.0,0.0,0.0,0.0,0.0,0.0,0.0,0.0,0.0,0.0,0.0,0.0,0.0,-0.6301,0.0,0.0,-0.5678,-0.5485,-0.5438,-0.541,-0.5213,-0.4772,-0.433,-0.4043,-0.3948,-0.3781,-0.3811,-0.4039,-0.44,0.0,0.0,0.0,0.0,-0.3186,-0.306,-0.297,-0.2898,-0.2743,-0.2715,-0.2787,-0.2392,-0.2188,-0.2039,-0.1564,-0.1163,-0.0785,-0.0223,0.0,0.0,0.0,0.0,0.0,0.0,0.0,0.3057,0.3698,0.4065,0.4399,0.4582,0.0,0.0,0.5593,0.0,0.6792,0.6786,0.6786,0.0,0.0,0.0,0.0,0.0,0.0,0.0,0.0,0.0,0.0,0.0,0.0,0.0,0.0,0.0,0.0,0.0,0.0,0.0,0.0,0.0,0.3887,0.3636,0.3583,0.338,0.3027,0.323,0.3462,0.3526,0.3268,0.3506,0.4256,0.3866,0.397,0.4502,0.4894,0.5006,0.4974,0.4618,0.4707,0.5098,0.4817,0.4987,0.5437,0.5547,0.5656,0.5822,0.61,0.6158,0.6049,0.0,0.0,0.0,0.0,0.0,0.0,0.0,0.0,0.0,0.0,0.0,0.0,0.0,-0.6229,-0.5947,0.0,0.0,0.0,-0.5355,-0.5258,-0.4977,-0.4522,-0.4195,-0.3961,-0.3825,-0.3825,-0.3961,-0.4233,0.0,0.0,0.0,0.0,0.0,-0.2416,0.0,-0.2425,-0.2405,-0.2303,-0.2384,-0.255,-0.1952,-0.17,-0.162,0.0,0.0,-0.013,0.0133,0.0492,0.0897,0.1256,0.0,0.0,0.0,0.0,0.3998,0.4708,0.5002,0.5135,0.5502,0.0,0.5829,0.6365,0.6689,0.0,0.7484,0.7033,0.0,0.0,0.0,0.0,0.0,0.0,0.0,0.0,0.0,0.0,0.0,0.0,0.0,0.0,0.0,0.0,0.0,0.0,0.0,0.0,0.0,0.4137,0.3736,0.3883,0.3783,0.3331,0.3484,0.3667,0.3782,0.3476,0.3827,0.4807,0.4304,0.4387,0.4936,0.5091,0.5149,0.5172,0.5054,0.5154,0.5435,0.5154,0.521,0.5493,0.5993,0.6049,0.5877,0.6437,0.6325,0.588,0.0,0.0,0.0,0.0,0.0,0.0,0.0,0.0,0.0,0.0,-0.6125,-0.6216,-0.6604,-0.5953,-0.5388,-0.5142,-0.5091,-0.4909,-0.4422,0.0,0.0,-0.409,-0.4028,-0.3995,-0.3961,-0.3961,-0.3995,-0.4028,0.0,0.0,0.0,0.0,0.0,-0.2138,0.0,0.0,-0.171,-0.1494,-0.1541,-0.1725,-0.1228,-0.0926,0.0,0.0,0.0,0.0,0.0,0.1236,0.1435,0.2374,0.2688,0.0,0.0,0.0,0.4687,0.5235,0.5596,0.5835,0.0,0.0,0.6623,0.0,0.6942,0.7235,0.0,0.0,0.0,0.0,0.0,0.0,0.0,0.0,0.0,0.0,0.0,0.0,0.0,0.0,0.0,0.0,0.0,0.0,0.0,0.0,0.0,0.0,0.4284,0.4135,0.4288,0.4085,0.3982,0.3882,0.3684,0.3769,0.4147,0.3579,0.3957,0.5226,0.5558,0.5609,0.549,0.5468,0.5329,0.5135,0.5245,0.5485,0.5766,0.571,0.571,0.5766,0.5822,0.5822,0.5822,0.6216,0.633,0.6272,0.0,0.0,0.0,0.0,0.0,0.0,0.0,0.0,0.0,0.0,0.0,-0.6119,-0.5987,-0.5741,-0.5374,-0.4942,-0.4848,-0.4604,-0.413,-0.4159,-0.4078,-0.3727,-0.3828,-0.3758,-0.346,-0.3426,-0.3426,0.0,0.0,0.0,0.0,-0.2696,-0.2337,0.0,0.0,0.0,0.0,0.0,-0.0817,-0.0667,-0.0466,-0.035,0.0,0.0,0.0,0.0,0.0,0.0,0.0,0.3345,0.3818,0.4094,0.4858,0.0,0.0,0.0,0.6306,0.642,0.6825,0.719,0.749,0.0,0.7786,0.7932,0.8226,0.0,0.0,0.0,0.0,0.0,0.0,0.0,0.0,0.0,0.0,0.0,0.0,0.0,0.0,0.0,0.0,0.0,0.0,0.0,0.0,0.0,0.4336,0.4185,0.4185,0.4185,0.4086,0.3784,0.3784,0.39,0.4084,0.392,0.4233,0.5145,0.5941,0.6125,0.5709,0.5932,0.5778,0.5455,0.5482,0.5683,0.5962,0.5962,0.585,0.5744,0.6132,0.61,0.5822,0.6161,0.6274,0.6274,0.0,0.0,0.0,0.0,0.0,0.0,0.0,0.0,0.0,0.0,0.0,-0.5921,-0.5561,0.0,0.0,0.0,-0.4519,-0.4262,-0.3823,-0.393,-0.3797,-0.3328,-0.3424,-0.3324,-0.2922,-0.2922,0.0,0.0,0.0,0.0,-0.2439,-0.2074,-0.1742,0.0,-0.1338,0.0,0.0,0.0,0.0,0.0,0.0,0.0,0.0,0.0,0.0,0.0,0.0,0.0,0.0,0.0,0.0,0.0,0.0,0.0,0.0,0.0,0.0,0.0,0.0,0.0,0.8481,0.857,0.8676,0.8726,0.0,0.0,0.0,0.0,0.0,0.0,0.0,0.0,0.0,0.0,0.0,0.0,0.0,0.0,0.0,0.0,0.0,0.0,0.0,0.0,0.0,0.0,0.4438,0.4336,0.4234,0.4384,0.4338,0.3935,0.4034,0.4083,0.3982,0.4383,0.4872,0.5547,0.6513,0.6656,0.6138,0.6439,0.6309,0.5947,0.5918,0.6041,0.6262,0.6262,0.6096,0.5937,0.646,0.6381,0.5991,0.6272,0.6383,0.6383,0.0,0.0,0.0,0.0,0.0,0.0,0.0,0.0,0.0,0.0,0.0,-0.5355,-0.5822,-0.5153,-0.4566,-0.4353,-0.4156,-0.382,-0.3259,-0.3259,-0.3092,-0.2753,-0.2753,0.0,-0.272,-0.272,0.0,0.0,0.0,0.0,-0.2037,-0.1822,-0.1573,-0.1294,-0.0862,-0.0627,-0.0588,0.0,0.0,0.0,0.0,0.1239,0.0,0.0,0.0,0.0,0.0,0.0,0.0,0.0,0.0,0.0,0.0,0.0,0.0,0.0,0.0,0.0,0.0,0.8942,0.0,0.9227,0.9361,0.0,0.0,0.0,0.0,0.0,0.0,0.0,0.0,0.0,0.0,0.0,0.0,0.0,0.0,0.0,0.0,0.0,0.0,0.0,0.0,0.0,0.0,0.0,0.4537,0.4487,0.4734,0.4784,0.4784,0.4734,0.4487,0.4236,0.3982,0.501,0.6043,0.7069,0.7608,0.7495,0.6953,0.697,0.6812,0.6549,0.6604,0.6649,0.6649,0.6649,0.6649,0.6649,0.6712,0.655,0.633,0.6604,0.6659,0.6659,0.0,0.0,0.0,0.0,0.0,0.0,0.0,0.0,0.0,0.0,0.0,0.0,0.0,-0.4655,-0.4303,-0.4,-0.3671,-0.336,-0.3092,-0.2822,-0.2586,-0.2388,-0.2249,-0.208,-0.1814,0.0,0.0,0.0,0.0,-0.109,-0.102,-0.0889,-0.0685,-0.0471,-0.0707,-0.0594,-0.0201,0.0241,0.0,0.0,0.1176,0.1577,0.0,0.0,0.0,0.0,0.0,0.0,0.0,0.0,0.0,0.0,0.0,0.0,0.0,0.0,0.0,0.0,0.0,0.0,0.0,1.0453,1.0453,1.031,1.0019,0.908,0.0,0.0,0.0,0.0,0.0,0.0,0.0,0.0,0.0,0.0,0.0,0.0,0.0,0.0,0.0,0.0,0.0,0.0,0.0,0.0,0.0,0.4786,0.5037,0.4885,0.4736,0.4537,0.4438,0.4463,0.4616,0.5348,0.6132,0.6929,0.731,0.7487,0.757,0.7573,0.7566,0.748,0.7362,0.7116,0.6884,0.6884,0.6772,0.661,0.6903,0.6826,0.6548,0.6659,0.6824,0.699,0.0,0.0,0.0,0.0,0.0,0.0,0.0,0.0,0.0,0.0,0.0,0.0,0.0,0.0,-0.3751,-0.3355,-0.3058,-0.279,-0.2654,-0.2318,-0.2016,-0.1748,-0.1545,-0.1248,-0.0886,0.0,0.0,0.0,0.0,0.0,0.0,-0.0113,-0.0038,0.0,-0.0275,-0.0238,0.0,0.0,0.0,0.0967,0.0,0.202,0.2237,0.0,0.0,0.0,0.0,0.0,0.0,0.0,0.0,0.0,0.0,0.0,0.0,0.0,0.0,0.0,0.0,0.0,0.0,0.0,0.0,1.121,1.0788,0.0,0.0,0.0,0.0,0.0,0.0,0.0,0.0,0.0,0.0,0.0,0.0,0.0,0.0,0.0,0.0,0.0,0.0,0.0,0.0,0.0,0.0,0.0,0.5037,0.4887,0.4686,0.4388,0.4313,0.4671,0.5482,0.5777,0.6534,0.7672,0.7829,0.8037,0.8234,0.8234,0.823,0.8156,0.7989,0.7613,0.7207,0.7098,0.6931,0.6772,0.718,0.7157,0.6879,0.6993,0.699,0.699,0.0,0.0,0.0,0.0,0.0,0.0,0.0,0.0,0.0,0.0,0.0,0.0,0.0,0.0,0.0,-0.2452,-0.2288,-0.212,-0.1918,-0.1715,-0.1344,-0.0807,-0.0572,-0.0307,0.0,0.0,0.0,0.0,0.0,0.0,0.0,0.0,0.0307,0.0079,0.0471,0.0393,0.0079,0.0,0.0804,0.099,0.0,0.2542,0.2707,0.0,0.0,0.0,0.5156,0.5646,0.0,0.0,0.0,0.0,0.0,0.0,0.0,0.0,0.0,0.0,0.0,0.0,0.0,0.0,0.0,0.0,1.1434,0.0,1.0993,0.0,0.0,0.0,0.0,0.0,0.0,0.0,0.0,0.0,0.0,0.0,0.0,0.0,0.0,0.0,0.0,0.0,0.0,0.0,0.4784,0.4784,0.4834,0.4784,0.4686,0.4442,0.4263,0.491,0.6479,0.6322,0.7305,0.9372,0.9375,0.921,0.8923,0.8923,0.8758,0.854,0.854,0.8211,0.7607,0.7324,0.721,0.721,0.7493,0.7438,0.721,0.7493,0.7215,0.6715,0.0,0.0,0.0,0.0,0.0,0.0,0.0,0.0,0.0,0.0,0.0,0.0,0.0,0.0,-0.2699,-0.2421,-0.2288,-0.212,-0.1918,-0.148,-0.1008,-0.047,-0.0103,0.0174,0.042,0.0,0.0,0.0,0.0,0.0,0.0,0.0,0.0,0.0,0.1257,0.1178,0.0945,0.1147,0.0,0.0,0.21,0.2674,0.0,0.0,0.0,0.0,0.0,0.5924,0.6411,0.0,0.6833,0.721,0.0,0.0,0.0,0.0,0.0,0.0,1.0947,0.0,0.0,0.0,0.0,0.0,1.1966,1.1956,1.1717,0.0,0.0,0.0,0.0,0.0,0.0,0.0,0.0,0.0,0.0,0.0,0.0,0.0,0.0,0.0,0.0,0.0,0.0,0.0,0.4887,0.4885,0.509,0.4887,0.4815,0.4832,0.5216,0.5742,0.6424,0.7076,0.7967,0.8994,0.927,0.943,0.9537,0.9537,0.9537,0.9427,0.921,0.9044,0.8826,0.81,0.7657,0.7493,0.7551,0.7438,0.721,0.7493,0.7382,0.7043,0.0,0.0,-0.4897,-0.5295,0.0,0.0,0.0,0.0,0.0,0.0,0.0,0.0,0.0,0.0,0.0,-0.2356,-0.2154,-0.1951,-0.1681,-0.1143,-0.0608,-0.0068,0.0347,0.0672,0.0977,0.0,0.0,0.0,0.0,0.0,0.0,0.0,0.0,0.0,0.0,0.0,0.0,0.0,0.0,0.0,0.2401,0.0,0.0,0.3804,0.4521,0.0,0.0,0.0,0.6713,0.693,0.7246,0.0,0.0,0.0,0.0,0.0,0.0,0.0,0.0,0.0,0.0,0.0,0.0,0.0,1.2689,1.2833,1.2811,0.0,0.0,0.0,0.0,0.0,0.0,0.0,0.0,0.0,0.0,0.0,0.0,0.0,0.0,0.0,0.0,0.5238,0.519,0.519,0.4937,0.4885,0.5037,0.4885,0.4811,0.4761,0.521,0.5844,0.6579,0.7341,0.8301,0.9403,0.9662,0.9871,1.0036,1.0036,1.0036,0.9981,0.9706,0.9651,0.9706,0.8654,0.8045,0.7826,0.8217,0.7881,0.7265,0.7768,0.7546,0.699,0.0,0.0,-0.5058,-0.5209,-0.5162,-0.4972,0.0,0.0,0.0,0.0,0.0,0.0,0.0,0.0,0.0,0.0,-0.1991,-0.1687,-0.1312,-0.0775,-0.0239,0.0315,0.0667,0.1043,0.1469,0.1327,0.0,0.0,0.0,0.0,0.0,0.0,0.0,0.0,0.2203,0.2307,0.0,0.0,0.0,0.2283,0.2899,0.3346,0.0,0.0,0.4835,0.0,0.5949,0.6438,0.6928,0.737,0.7797,0.0,0.0,0.0,0.0,0.0,1.0557,0.0,0.0,0.0,0.0,0.0,0.0,0.0,1.3424,1.3787,1.4017,1.3814,1.2844,0.0,0.0,0.0,0.0,0.0,0.0,0.0,0.0,0.0,0.0,0.0,0.0,0.0,0.6002,0.5591,0.529,0.524,0.5037,0.4885,0.4834,0.4834,0.474,0.4502,0.4879,0.5636,0.6895,0.7389,0.8489,1.0225,1.03,1.0366,1.0366,1.0366,1.0366,1.0312,1.0036,1.0088,1.0253,0.9203,0.8484,0.8156,0.8878,0.8377,0.7321,0.8152,0.782,0.6826,-0.5131,-0.5084,-0.4991,-0.4976,-0.4997,-0.4906,0.0,0.0,0.0,0.0,0.0,0.0,0.0,0.0,0.0,0.0,-0.1923,-0.1515,-0.1179,-0.0721,-0.0174,0.0525,0.0608,0.0836,0.1249,0.1415,0.155,0.0,0.0,0.0,0.0,0.0,0.0,0.0,0.2723,0.2804,0.0,0.0,0.0,0.3548,0.3626,0.0,0.4186,0.4692,0.5188,0.5722,0.6166,0.6653,0.7143,0.0,0.7763,0.7862,0.0,0.0,0.0,0.0,0.0,0.0,0.0,0.0,0.0,0.0,0.0,0.0,1.3724,1.4372,1.4592,0.0,1.298,0.0,0.0,0.0,0.0,0.0,0.0,0.0,0.0,0.0,0.0,0.0,0.0,0.0,0.6044,0.5892,0.5739,0.5536,0.5486,0.5336,0.514,0.514,0.5126,0.5203,0.574,0.6367,0.7109,0.8254,0.9151,0.9723,1.035,1.0637,1.0637,1.0637,1.0637,1.0637,1.0527,1.0582,1.0582,1.0363,0.9533,0.8377,0.8048,0.766,0.7321,0.8152,0.8152,0.7768,-0.48,-0.4891,-0.491,-0.4932,-0.5004,-0.4885,-0.4367,0.0,0.0,0.0,0.0,0.0,0.0,0.0,0.0,0.0,0.0,0.0,0.0,0.0,0.0141,0.0714,0.0893,0.1158,0.1486,0.1638,0.1813,0.0,0.0,0.0,0.0,0.0,0.0,0.0,0.0,0.0,0.0,0.0,0.3976,0.4314,0.4272,0.0,0.4941,0.5255,0.563,0.6074,0.6296,0.6697,0.7139,0.7544,0.7931,0.0,0.0,0.8977,0.9261,0.0,1.0285,1.0391,0.0,0.0,0.0,1.1554,0.0,0.0,0.0,1.4609,1.4947,1.4135,1.3935,0.0,0.0,0.0,0.0,0.0,0.0,0.0,0.0,0.0,0.0,0.0,0.0,0.0,0.6329,0.6223,0.6037,0.5636,0.5586,0.5486,0.519,0.519,0.5313,0.5514,0.5925,0.6541,0.7333,0.852,0.9272,0.962,1.0334,1.0692,1.0692,1.0692,1.0692,1.0692,1.0586,1.0582,1.0692,1.0257,0.9702,0.9151,0.8985,0.8377,0.7709,0.8598,0.8764,0.8484,-0.4523,-0.4677,-0.4822,-0.4872,-0.4925,-0.4747,-0.4157,0.0,0.0,0.0,0.0,0.0,0.0,0.0,0.0,0.0,0.0,0.0,0.0,0.0,0.0395,0.077,0.1116,0.1415,0.1627,0.1713,0.1959,0.2299,0.0,0.0,0.0,0.0,0.0,0.0,0.0,0.0,0.0,0.0,0.0,0.4856,0.0,0.5177,0.5551,0.5772,0.6074,0.6432,0.6561,0.6874,0.7319,0.7635,0.0,0.9008,0.9188,0.9536,0.0,0.0,0.0,0.0,0.0,0.0,0.0,0.0,0.0,1.3177,0.0,0.0,0.0,1.4855,0.0,0.0,0.0,0.0,0.0,0.0,0.0,0.0,0.0,0.0,0.0,0.0,0.0,0.0,0.0,0.6631,0.6337,0.5887,0.5837,0.5689,0.5391,0.529,0.5388,0.5687,0.5889,0.6488,0.7508,0.8498,0.9177,0.9575,1.0319,1.0692,1.0692,1.0692,1.0692,1.0692,1.0476,1.0472,1.0637,0.9926,0.9651,0.9761,0.9923,0.9258,0.8266,0.9154,0.9316,0.9089,-0.4564,-0.4681,-0.4644,-0.4499,-0.4491,-0.4371,0.0,0.0,0.0,0.0,0.0,0.0,0.0,0.0,0.0,0.0,0.0,0.0,-0.0876,0.0,0.0,0.0377,0.0752,0.0979,0.0984,0.1393,0.1629,0.1598,0.0,0.0,0.0,0.0,0.0,0.0,0.2736,0.0,0.0,0.0,0.4713,0.0,0.5664,0.5724,0.0,0.6157,0.6343,0.6473,0.7136,0.758,0.7896,0.0,0.8942,0.9318,0.0,1.0161,0.0,0.0,0.0,0.0,0.0,0.0,0.0,0.0,1.238,0.0,0.0,0.0,1.4355,1.4581,0.0,0.0,0.0,0.0,0.0,0.0,0.0,0.0,0.0,0.0,0.0,0.0,0.0,0.0,0.0,0.7273,0.6989,0.6692,0.6642,0.6442,0.5942,0.5689,0.5687,0.5942,0.5992,0.65,0.7569,0.855,0.9122,0.9414,1.0263,1.0692,1.0692,1.0692,1.0692,1.0692,1.0692,1.0692,1.0692,1.0582,1.0143,0.9434,0.9147,0.8978,0.8868,0.9537,0.9706,0.9757,-0.4114,-0.4272,-0.4272,-0.4075,-0.4036,-0.3926,0.0,0.0,0.0,0.0,0.0,0.0,0.0,0.0,0.0,0.0,0.0,-0.1236,0.0,0.0,0.0,0.0,0.0645,0.0901,0.1083,0.1503,0.1735,0.1741,0.1838,0.0,0.0,0.0,0.0,0.0,0.2852,0.0,0.3946,0.0,0.0,0.0,0.0,0.0,0.0,0.6697,0.6918,0.7092,0.7536,0.776,0.794,0.0,0.903,0.0,0.0,0.0,0.0,0.0,0.0,0.0,0.0,0.0,0.0,0.0,0.0,0.0,1.3198,0.0,1.462,0.0,0.0,0.0,0.0,0.0,0.0,0.0,0.0,0.0,0.0,0.0,0.0,0.0,0.0,0.0,0.0,0.0,0.0,0.0,0.0,0.6418,0.5784,0.5789,0.5939,0.6239,0.6392,0.6845,0.7596,0.8554,0.9072,0.9171,1.0099,1.0595,1.0692,1.0692,1.0692,1.0692,1.0692,1.0692,1.0692,1.0692,1.0472,1.0147,0.9974,0.9644,0.9261,0.9647,1.0033,1.0363,-0.3802,0.0,0.0,0.0,0.0,0.0,0.0,0.0,0.0,0.0,0.0,0.0,-0.2915,-0.2802,0.0,0.0,-0.1831,-0.1294,0.0,0.0,0.012,0.0,0.0,0.0,0.0,0.1409,0.1638,0.1826,0.1814,0.0,0.0,0.0,0.0,0.0,0.0,0.3604,0.4296,0.0,0.0,0.5725,0.6482,0.6928,0.7102,0.7275,0.7448,0.7625,0.7848,0.7893,0.7981,0.846,0.8986,0.0,0.9258,0.0,0.0,0.0,0.0,0.0,1.046,0.0,0.0,0.0,0.0,0.0,0.0,0.0,0.0,0.0,0.0,0.0,0.0,0.0,0.0,0.0,0.0,0.0,0.0,0.0,0.0,0.0,0.0,0.0,0.0,0.0,0.0,0.0,0.0,0.0,0.5837,0.5996,0.6208,0.6487,0.6789,0.7141,0.7693,0.8542,0.9006,0.9115,0.9918,1.0413,1.0692,1.0692,1.0692,1.0692,1.0692,1.0692,1.0692,1.0692,1.0637,1.0582,1.0582,1.0202,0.9655,0.9926,1.0308,1.0692,-0.3802,-0.3802,0.0,0.0,0.0,0.0,0.0,0.0,0.0,0.0,0.0,0.0,0.0,0.0,0.0,0.0,0.0,-0.1514,-0.0379,0.0,0.0329,0.0,0.0,0.0944,0.0,0.0,0.1137,0.1626,0.1629,0.0,0.0,0.0,0.0,0.0,0.0,0.3993,0.4711,0.5117,0.5703,0.6387,0.6704,0.7234,0.7856,0.0,0.7896,0.7896,0.8113,0.0,0.0,0.8504,0.889,0.0,0.0,0.0,0.0,0.0,0.0,0.0,0.0,0.0,0.0,1.1301,0.0,0.0,0.0,0.0,1.2878,0.0,0.0,0.0,0.0,0.0,0.0,0.0,0.0,0.0,0.0,0.0,0.0,0.0,0.0,0.0,0.0,0.0,0.0,0.0,0.0,0.0,0.6268,0.6274,0.6423,0.6789,0.7042,0.7437,0.7988,0.8494,0.8962,0.9388,0.9808,1.0243,1.0692,1.0692,1.0692,1.0692,1.0692,1.0692,1.0692,1.0692,1.0527,1.0312,1.0312,1.0312,1.0312,1.0582,1.0692,1.0692,0.0,0.0,0.0,0.0,0.0,0.0,0.0,-0.2605,0.0,0.0,0.0,0.0,0.0,-0.3048,-0.2919,0.0,0.0,-0.1615,-0.1076,-0.0299,0.0,0.0,0.0,0.1092,0.0,0.0,0.0,0.0,0.0,0.0,0.0,0.0,0.0,0.0,0.0,0.4579,0.0,0.0,0.0,0.0,0.0,0.7234,0.768,0.0,0.0,0.8388,0.842,0.8328,0.0,0.8285,0.8324,0.8317,0.85,0.846,0.8455,0.8979,0.9275,0.0,0.0,0.0,1.0594,1.0486,0.0,0.0,0.0,0.0,0.0,0.0,0.0,0.0,0.0,0.0,0.0,0.0,0.0,0.0,0.0,0.0,0.0,0.0,0.0,0.0,0.0,0.0,0.0,0.0,0.0,0.0,0.0,0.622,0.647,0.6789,0.7039,0.7437,0.7988,0.8485,0.8845,0.8962,0.9746,1.0179,1.0243,1.0581,1.0692,1.0692,1.0692,1.0692,1.0692,1.0692,1.0637,1.0582,1.0582,1.0582,1.0527,1.0476,1.0527,1.0692,-0.4153,0.0,0.0,0.0,0.0,0.0,0.0,0.0,0.0,0.0,-0.2382,0.0,-0.298,0.0,-0.268,0.0,-0.2048,-0.1561,-0.0923,-0.0349,0.0,0.0226,0.0702,0.0,0.0,0.0,0.0,0.0,0.0,0.2575,0.0,0.0,0.0,0.0,0.0,0.0,0.5338,0.0,0.6083,0.0,0.0,0.7143,0.0,0.0,0.8069,0.8204,0.0,0.8017,0.7801,0.7716,0.758,0.7445,0.7536,0.7496,0.7544,0.8028,0.86,0.9078,0.9122,0.9772,0.0,1.0283,1.0768,0.0,1.1364,0.0,0.0,0.0,0.0,0.0,0.0,0.0,0.0,0.0,0.0,0.0,0.0,1.1321,0.0,0.0,0.0,0.0,0.0,0.0,0.0,0.0,0.0,0.0,0.0,0.0,0.6694,0.6918,0.7263,0.7637,0.7988,0.8333,0.8614,0.8827,0.9561,0.999,1.0164,1.0556,1.0692,1.0692,1.0692,1.0692,1.0692,1.0692,1.0692,1.0692,1.0692,1.0692,1.0692,1.0527,1.0527,1.0692,-0.4353,0.0,0.0,0.0,-0.3017,0.0,0.0,0.0,-0.2381,0.0,-0.2133,-0.1975,-0.2782,-0.2426,-0.2065,-0.1797,-0.175,-0.1256,-0.009,0.0,0.0,0.0,0.0772,0.0916,0.1143,0.0,0.0,0.0,0.0,0.0,0.0,0.0,0.0,0.0,0.4875,0.0,0.5524,0.5946,0.6083,0.6171,0.6786,0.6922,0.6792,0.7224,0.7401,0.7401,0.7445,0.7268,0.701,0.6836,0.6751,0.6704,0.6476,0.6567,0.6795,0.6836,0.7672,0.8636,0.8851,0.9462,1.0163,1.0716,0.0,0.0,0.0,0.0,1.1548,0.0,0.0,0.0,0.0,0.0,0.0,0.0,0.0,0.0,0.0,0.0,0.0,0.0,0.0,0.0,0.0,0.0,0.0,0.0,0.0,0.0,0.0,0.0,0.7133,0.7079,0.7664,0.7939,0.7939,0.7988,0.836,0.9067,0.929,0.9723,1.0375,1.0544,1.0684,1.0692,1.0637,1.0637,1.0692,1.0692,1.0692,1.0692,1.0692,1.0692,1.0692,1.0692,1.0692,1.0692,-0.3986,-0.3216,-0.2595,0.0,-0.2664,-0.265,0.0,0.0,0.0,0.0,-0.1735,-0.1615,-0.2016,-0.1811,-0.1535,-0.1284,-0.1086,0.0,0.0,0.0,0.0,0.0786,0.1427,0.1859,0.2003,0.2454,0.0,0.3263,0.0,0.0,0.4423,0.0,0.0,0.0,0.0,0.0,0.5689,0.5983,0.6083,0.6083,0.6077,0.6033,0.0,0.0,0.6074,0.6035,0.6745,0.67,0.6349,0.6305,0.613,0.5997,0.6127,0.6482,0.6881,0.7228,0.8021,0.8819,0.8907,0.9559,1.0193,0.9966,1.034,1.0711,0.0,0.0,0.0,0.0,0.0,0.0,0.0,0.0,0.0,0.0,0.0,0.0,0.0,0.0,0.0,0.8325,0.0,0.0,0.0,0.0,0.0,0.0,0.0,0.0,0.0,0.0,0.0,0.6991,0.7075,0.7191,0.7388,0.7789,0.8108,0.8299,0.8911,0.9438,0.9978,0.993,1.0078,1.0366,1.0147,1.0143,1.0417,1.0417,1.0527,1.0692,1.0692,1.0802,1.1021,1.1021,1.0857,1.0747,-0.3908,0.0,0.0,-0.2126,0.0,0.0,-0.1898,0.0,0.0,-0.1819,-0.1501,0.0,-0.1618,-0.12,-0.0876,-0.074,-0.0412,0.0,0.0091,0.0,0.0,0.1077,0.1735,0.213,0.2317,0.2919,0.0,0.3713,0.0,0.0,0.482,0.0,0.0,0.0,0.0,0.5751,0.0,0.5863,0.5816,0.5636,0.5677,0.0,0.0,0.5544,0.5369,0.5193,0.5905,0.6038,0.5816,0.5816,0.573,0.5777,0.6127,0.6482,0.6881,0.736,0.8109,0.8775,0.8867,0.9432,0.9951,0.982,1.0164,1.0424,1.0081,1.0294,1.0476,0.0,0.0,0.0,0.0,0.0,0.0,0.0,0.0,0.0,0.0,0.0,0.0,0.0,0.0,0.0,0.0,0.0,0.0,0.0,0.0,0.0,0.0,0.0,0.0,0.6759,0.6894,0.7092,0.7391,0.7789,0.8038,0.8187,0.8697,0.9178,0.9689,0.9618,0.9831,1.0144,1.0057,1.0147,1.0312,1.0527,1.0747,1.0857,1.0857,1.0911,1.0966,1.124,1.1131,1.0966,0.0,0.0,0.0,0.0,0.0,0.0,0.0,-0.161,0.0,-0.1672,0.0,-0.1065,-0.1254,-0.0657,-0.0188,-0.0185,0.0,0.0555,0.0833,0.0835,0.1031,0.1435,0.1771,0.2077,0.2312,0.3051,0.0,0.0,0.0,0.0,0.0,0.0,0.0,0.0,0.0,0.0,0.0,0.5712,0.5439,0.5077,0.5431,0.529,0.4921,0.5191,0.506,0.475,0.5193,0.5327,0.5371,0.5416,0.5552,0.5777,0.6254,0.6612,0.6925,0.7404,0.8065,0.8684,0.8867,0.9213,0.9602,0.9864,0.999,0.9946,0.9515,0.9554,0.9602,0.9213,0.917,0.9126,0.0,0.0,0.0,0.0,0.0,0.0,0.0,0.0,0.0,0.0,0.0,0.0,0.0,0.0,0.0,0.0,0.0,0.0,0.0,0.0,0.0,0.6552,0.6933,0.0,0.7547,0.0,0.8187,0.8432,0.8675,0.906,0.9595,0.9553,0.9705,1.0,1.0233,1.0312,1.0366,1.0911,1.1126,1.1181,1.1131,1.0966,1.0802,1.1404,1.135,1.1072,0.0,0.0,0.0,0.0,0.0,-0.1334,-0.0724,-0.0765,-0.0901,-0.0901,-0.0654,-0.0559,-0.0568,-0.0046,0.0365,0.0508,0.0648,0.0,0.0,0.0,0.0,0.1269,0.1953,0.2314,0.2358,0.3154,0.3612,0.0,0.0,0.0,0.0,0.0,0.0,0.0,0.0,0.0,0.5874,0.5694,0.0,0.5141,0.5009,0.4729,0.4431,0.4703,0.4795,0.475,0.4966,0.5055,0.5144,0.5508,0.5688,0.5777,0.6254,0.6697,0.7143,0.7628,0.8292,0.8867,0.8911,0.913,0.9345,0.9388,0.9122,0.8763,0.8504,0.8324,0.8233,0.8372,0.8376,0.8552,0.913,0.0,0.0,0.0,0.0,0.0,0.0,0.0,0.0,0.0,0.0,0.0,0.0,0.0,0.0,0.0,0.0,0.0,0.0,0.0,0.0,0.0,0.6949,0.0,0.0,0.0,0.8482,0.8726,0.9011,0.9504,1.0162,0.9596,0.9599,1.0,1.0233,1.0421,1.0637,1.0962,1.124,1.1459,1.1185,1.1072,1.1076,1.1459,1.124,1.0857,0.0,0.0,0.0,0.0,0.0,0.0,0.0,-0.059,0.0,-0.0533,-0.048,-0.0335,-0.0193,0.0144,0.0478,0.0716,0.0859,0.0955,0.0955,0.106,0.1167,0.1129,0.1669,0.0,0.2336,0.2885,0.3297,0.3581,0.0,0.0,0.0,0.0,0.0,0.0,0.0,0.5484,0.0,0.0,0.0,0.5111,0.5066,0.4776,0.4369,0.4645,0.475,0.475,0.5102,0.5191,0.528,0.5591,0.5686,0.5822,0.6438,0.6745,0.7054,0.7632,0.7981,0.8245,0.8464,0.8464,0.8372,0.8372,0.8149,0.7837,0.7394,0.7349,0.7353,0.7177,0.7401,0.7713,0.7937,0.7277,0.0,0.0,0.0,0.0,0.0,0.0,0.0,0.0,0.0,0.0,0.0,0.0,0.0,0.0,0.0,0.0,0.0,0.0,0.0,0.0,0.0,0.0,0.0,0.0,0.0,0.8577,0.8878,0.9275,0.9716,0.9383,0.9443,0.9871,1.0204,1.0494,1.0747,1.1345,1.1678,1.1787,1.1459,1.1185,1.0907,1.124,1.0966,1.0637,0.0,-0.1712,0.0,0.0,-0.1187,0.0,-0.0739,-0.0598,-0.045,-0.0396,-0.0394,-0.0344,-0.0196,0.005,0.0347,0.0684,0.0784,0.0884,0.0982,0.1035,0.1087,0.1186,0.1483,0.1827,0.2318,0.2566,0.2981,0.0,0.0,0.0,0.0,0.0,0.0,0.0,0.0,0.0,0.0,0.0,0.5553,0.5122,0.536,0.5061,0.4555,0.4882,0.4913,0.4871,0.5275,0.5437,0.5419,0.5618,0.566,0.5822,0.6482,0.6704,0.6836,0.7455,0.7492,0.7445,0.7801,0.7577,0.7268,0.7268,0.7177,0.6864,0.6242,0.6378,0.6517,0.5983,0.6517,0.701,0.6748,0.6436,0.0,0.0,0.0,0.0,0.0,0.0,0.0,0.0,0.0,0.0,0.0,0.0,0.0,0.0,0.0,0.0,0.0,0.0,0.0,0.0,0.0,0.7035,0.7534,0.0,0.8617,0.0,0.8962,0.9214,0.9389,0.9307,0.9476,0.9907,1.0343,1.0629,1.0966,1.1678,1.1896,1.1787,1.1568,1.1185,1.0747,1.1017,1.0802,1.0527,0.0,0.0,0.0,0.0,0.0,0.0,-0.0603,-0.0646,-0.0693,-0.0453,-0.0397,-0.0491,-0.0687,-0.0484,-0.0096,0.0382,0.0243,0.0491,0.1473,0.1098,0.1058,0.1512,0.1814,0.2065,0.2364,0.2667,0.2922,0.0,0.0,0.0,0.0,0.0,0.0,0.0,0.0,0.0,0.0,0.6152,0.5961,0.5472,0.5761,0.5502,0.498,0.5449,0.543,0.5201,0.5481,0.5506,0.5431,0.5489,0.5596,0.5777,0.6299,0.6432,0.652,0.7007,0.7003,0.6868,0.6912,0.6735,0.6517,0.6517,0.6027,0.5492,0.5186,0.5186,0.5186,0.5097,0.6163,0.6962,0.652,0.6949,0.7024,0.0,0.0,0.0,0.0,0.0,0.0,0.0,0.0,0.0,0.0,0.0,0.0,0.0,0.0,0.0,0.0,0.0,0.0,0.7483,0.0,0.7475,0.8623,0.9125,0.0,0.9137,0.9845,1.0088,0.9929,0.9857,1.0088,1.0537,1.0727,1.1127,1.1514,1.1896,1.1673,1.1181,1.1181,1.0966,1.0747,1.1017,1.0911,1.0747,0.0,0.0,0.0,0.0,0.0,0.0,0.0,-0.0652,-0.0701,-0.0454,-0.0401,-0.0449,-0.0549,-0.0595,-0.0543,-0.0346,-0.0398,-0.03,0.015,0.0254,0.0257,0.0103,0.0883,0.1305,0.1198,0.1824,0.2294,0.0,0.0,0.0,0.0,0.0,0.0,0.0,0.0,0.549,0.5973,0.6075,0.5978,0.5778,0.5723,0.5464,0.5083,0.5275,0.521,0.5066,0.524,0.5281,0.5239,0.5217,0.5363,0.5612,0.5788,0.5879,0.5924,0.6283,0.6182,0.6005,0.6214,0.5908,0.5544,0.5413,0.5055,0.4652,0.4253,0.4253,0.434,0.434,0.5361,0.6384,0.6741,0.6827,0.6913,0.0,0.0,0.0,0.0,0.0,0.0,0.0,0.0,0.0,0.0,0.0,0.0,0.0,0.0,0.0,0.0,0.0,0.0,0.697,0.0,0.7963,0.8726,0.9244,0.9501,0.9544,0.9912,1.0003,0.9933,0.9902,1.0201,1.0759,1.0783,1.1063,1.1568,1.1509,1.124,1.0857,1.0857,1.0692,1.0527,1.0966,1.1021,1.0962,-0.2109,0.0,-0.1366,0.0,-0.1292,-0.1193,-0.0504,-0.071,-0.0764,-0.0356,-0.0307,-0.0358,-0.0506,-0.0707,-0.0758,-0.0556,-0.0707,-0.0658,-0.0356,-0.0103,-0.0104,-0.0366,0.053,0.0,0.0739,0.1434,0.1965,0.222,0.261,0.0,0.0,0.0,0.0,0.0,0.5211,0.5641,0.5992,0.5992,0.5942,0.5889,0.5687,0.5395,0.5136,0.5232,0.5121,0.4979,0.5052,0.5055,0.5023,0.4936,0.5108,0.5396,0.5376,0.5402,0.5407,0.567,0.5509,0.5265,0.5419,0.5115,0.4688,0.4484,0.4205,0.3927,0.3681,0.3808,0.4117,0.4383,0.5186,0.6033,0.6741,0.6697,0.6709,0.735,0.0,0.0,0.0,0.0,0.0,0.0,0.0,0.5949,0.6305,0.0,0.0,0.0,0.0,0.0,0.0,0.0,0.0,0.0,0.0,0.0,0.0,0.9434,0.9673,0.9799,0.9979,1.0018,0.9969,1.0018,1.0289,1.0766,1.0728,1.0966,1.1295,1.1076,1.0747,1.0417,1.0417,1.0312,1.0202,1.0582,1.0852,1.0966,-0.2167,-0.2016,-0.1926,-0.1704,-0.1837,-0.1613,-0.0555,-0.0872,-0.0935,-0.0104,0.0,-0.021,-0.0761,-0.0808,-0.0606,-0.0051,-0.0505,-0.0356,0.0726,0.0312,0.0209,0.0,0.0,0.1373,0.1556,0.19,0.2218,0.249,0.0,0.0,0.3727,0.0,0.5037,0.4832,0.5639,0.5992,0.5992,0.5992,0.5839,0.5586,0.5586,0.5436,0.5238,0.5484,0.5372,0.509,0.509,0.5026,0.4862,0.4768,0.4897,0.5105,0.5095,0.5122,0.5143,0.5249,0.5066,0.478,0.4594,0.4377,0.412,0.381,0.3513,0.3356,0.3559,0.3942,0.4565,0.5497,0.5902,0.6171,0.6387,0.6612,0.6704,0.6473,0.0,0.0,0.0,0.0,0.0,0.0,0.5542,0.5586,0.525,0.0,0.0,0.0,0.0,0.0,0.0,0.0,0.0,0.8045,0.8211,0.0,0.988,0.9808,0.9799,0.9803,1.0183,1.0335,1.0216,1.0331,1.042,1.0444,1.0615,1.0692,1.0692,1.0692,1.0363,0.9816,0.9816,0.9816,0.9816,0.9816,1.0198,1.0692,-0.1538,-0.1491,-0.134,-0.0881,-0.1043,-0.0944,-0.021,-0.0264,-0.0212,0.0212,0.0478,0.0531,0.0367,0.0052,-0.0156,0.0,-0.0154,-0.0103,0.0,0.0472,0.0532,0.0271,0.1317,0.1761,0.1423,0.2311,0.2805,0.2899,0.0,0.0,0.0,0.4996,0.5253,0.5092,0.5819,0.5961,0.5737,0.5942,0.5839,0.5584,0.5388,0.529,0.519,0.5087,0.4966,0.4885,0.4826,0.4785,0.4756,0.4674,0.4703,0.4842,0.4831,0.4812,0.4805,0.4819,0.4695,0.4535,0.4471,0.434,0.4243,0.4125,0.3893,0.3707,0.3773,0.4078,0.4476,0.5099,0.5544,0.5855,0.5897,0.6163,0.637,0.6509,0.6397,0.0,0.0,0.0,0.0,0.0,0.5438,0.5115,0.0,0.6008,0.0,0.0,0.0,0.0,0.0,0.0,0.0,0.0,0.8766,0.0,1.0122,1.008,1.018,1.0413,1.0411,1.0404,1.0298,0.9968,1.0112,1.0615,1.0233,1.0308,1.0692,1.0253,0.9981,0.9761,0.9596,0.9651,0.9816,1.0036,1.0472,1.0966,-0.1285,-0.1081,-0.0824,-0.0622,-0.0629,-0.0528,-0.0211,-0.016,0.0054,0.0538,0.0866,0.1142,0.136,0.1196,0.0,0.0364,0.0413,0.0464,0.0467,0.0897,0.102,0.0655,0.1667,0.2014,0.1667,0.0,0.0,0.3107,0.3844,0.4468,0.4966,0.5455,0.5663,0.5602,0.5984,0.6058,0.5887,0.5741,0.5639,0.5586,0.5188,0.5037,0.5037,0.4885,0.4784,0.4776,0.4775,0.4755,0.4747,0.4689,0.4708,0.4755,0.4755,0.4755,0.4745,0.4687,0.4583,0.4447,0.4387,0.433,0.4209,0.4087,0.3946,0.385,0.3997,0.4371,0.4709,0.498,0.5373,0.5673,0.5673,0.5716,0.5877,0.6187,0.6059,0.6101,0.6557,0.0,0.0,0.0,0.0,0.0,0.0,0.6029,0.0,0.0,0.0,0.0,0.0,0.0,0.0,0.8293,0.9399,0.0,1.0212,1.0229,1.0408,1.0688,1.0582,1.0476,1.0371,0.9822,0.9934,1.0527,1.0033,1.0143,1.0637,1.0202,0.9926,0.9761,0.9599,0.9489,0.9541,0.9926,1.0308,1.0637,-0.1213,-0.0776,-0.0458,0.0,-0.0572,0.0,-0.0365,-0.0376,-0.0055,0.0822,0.1166,0.157,0.2188,0.2522,0.2253,0.1152,0.0,0.0,0.0,0.1587,0.1775,0.1751,0.2113,0.2283,0.2302,0.2671,0.3006,0.3283,0.437,0.5196,0.5693,0.6066,0.622,0.6156,0.605,0.6097,0.6237,0.5489,0.5338,0.5484,0.5035,0.4834,0.4784,0.4834,0.4834,0.4784,0.4784,0.4784,0.4784,0.4784,0.4784,0.4784,0.4784,0.4784,0.4782,0.4776,0.471,0.455,0.4433,0.4296,0.4171,0.391,0.3846,0.3919,0.4291,0.4792,0.5179,0.5087,0.5349,0.5559,0.5511,0.5372,0.5329,0.5521,0.5384,0.5422,0.582,0.0,0.0,0.0,0.0,0.0,0.0,0.5838,0.6571,0.0,0.0,0.0,0.0,0.0,0.9429,0.9107,1.0124,1.0502,1.0233,1.0351,1.0521,1.0692,1.0692,1.0527,1.0312,0.9926,0.9981,1.0257,0.9926,1.0143,1.0692,1.0417,1.0147,0.9816,0.9816,0.943,0.9047,0.9541,0.9761,0.9871,0.0,0.0,-0.0103,-0.0208,-0.0159,-0.0108,-0.0108,0.0055,0.0446,0.1115,0.151,0.1907,0.2525,0.2607,0.2628,0.2593,0.2368,0.226,0.2269,0.2333,0.241,0.2452,0.2966,0.3245,0.3289,0.3971,0.4641,0.5174,0.5766,0.615,0.6285,0.655,0.6399,0.5899,0.608,0.5766,0.5186,0.519,0.5138,0.4985,0.5087,0.4987,0.4834,0.5037,0.4987,0.4784,0.4784,0.4784,0.4784,0.4784,0.4784,0.4784,0.4784,0.4784,0.4772,0.4757,0.4708,0.4762,0.5047,0.4825,0.4662,0.544,0.5291,0.5005,0.5073,0.5036,0.4958,0.4958,0.5166,0.5138,0.4381,0.4524,0.4782,0.4896,0.5057,0.5287,0.5634,0.5265,0.0,0.0,0.4971,0.5145,0.544,0.62,0.681,0.0,0.0,0.0,0.0,1.0062,1.0312,1.0008,1.0255,1.036,1.0367,1.0358,1.0521,1.0692,1.0472,1.0363,1.0257,0.9761,0.9761,1.0257,0.9926,1.0143,1.0692,1.0417,1.0257,1.0147,0.9655,0.9541,0.9541,0.9213,0.9544,1.0147,-0.0205,-0.0103,-0.0052,-0.0156,-0.0107,-0.0055,-0.0164,0.0056,0.0561,0.1402,0.1794,0.2298,0.3197,0.3392,0.3538,0.3701,0.3269,0.3079,0.3188,0.3321,0.346,0.3492,0.3964,0.4203,0.4203,0.465,0.5208,0.5822,0.632,0.6675,0.6835,0.6886,0.669,0.6363,0.631,0.5992,0.5527,0.5422,0.5244,0.5052,0.5103,0.4974,0.4834,0.509,0.5037,0.4834,0.4937,0.4987,0.4987,0.4987,0.5085,0.5186,0.5286,0.5338,0.5377,0.5473,0.5279,0.5136,0.5369,0.5224,0.5045,0.5377,0.5235,0.5045,0.4998,0.4981,0.4916,0.4676,0.4854,0.4886,0.4208,0.4306,0.4563,0.4703,0.4664,0.4682,0.5031,0.4845,0.0,0.4778,0.514,0.5525,0.5929,0.6489,0.6942,0.7341,0.0,0.0,0.9696,1.0327,1.0591,1.05,1.0518,1.05,1.0379,1.0513,1.0544,1.0531,1.0366,1.0202,1.0036,0.9596,0.9651,1.0036,0.9871,1.0143,1.0692,1.0527,1.0417,1.0257,1.0091,0.9816,0.9599,0.9544,0.9706,0.9871,-0.0261,-0.0104,0.0,-0.0261,-0.0107,-0.0055,-0.0274,-0.0111,0.0505,0.1683,0.2129,0.2744,0.3924,0.4313,0.4536,0.4536,0.4091,0.3862,0.397,0.43,0.45,0.45,0.4838,0.5041,0.5041,0.5152,0.5487,0.6044,0.6546,0.6935,0.7265,0.7111,0.7002,0.6926,0.6605,0.6394,0.6331,0.59,0.5641,0.5462,0.5341,0.5129,0.4956,0.5244,0.5138,0.4935,0.5188,0.524,0.529,0.529,0.5438,0.5636,0.5939,0.6042,0.6042,0.6287,0.6023,0.5709,0.5657,0.5591,0.5425,0.4851,0.4708,0.4708,0.466,0.4814,0.4871,0.4381,0.4485,0.4636,0.4386,0.4338,0.4437,0.4734,0.4435,0.4234,0.4487,0.0,0.4435,0.4885,0.5436,0.5992,0.6461,0.6768,0.7175,0.7675,0.8596,0.9329,0.0,1.0316,1.0569,1.0702,1.08,1.0712,1.0473,1.0564,1.0472,1.0202,1.0202,1.0036,0.9706,0.9434,0.9489,0.9761,0.9761,1.0143,1.0637,1.0692,1.0582,1.0366,1.0582,1.0147,0.9544,0.9981,0.9816,0.9434,0.0212,0.0319,0.0319,0.0266,0.0324,0.0274,0.0,0.0167,0.0785,0.1961,0.2409,0.308,0.4313,0.448,0.4592,0.4817,0.5014,0.4888,0.4445,0.4681,0.4799,0.4799,0.5369,0.5654,0.5654,0.6156,0.6715,0.7326,0.7213,0.7268,0.7549,0.7304,0.6966,0.6653,0.658,0.636,0.6064,0.6215,0.6155,0.5924,0.63,0.6095,0.5658,0.5826,0.5689,0.5486,0.5536,0.5536,0.5586,0.5792,0.5739,0.5687,0.6187,0.6189,0.5992,0.6042,0.6329,0.6564,0.6313,0.6247,0.6085,0.5293,0.5293,0.534,0.4893,0.4656,0.4418,0.4116,0.4074,0.4133,0.4085,0.4083,0.4234,0.4734,0.4734,0.4786,0.5039,0.0,0.5639,0.5486,0.6139,0.6732,0.6986,0.7457,0.7868,0.817,0.8754,0.9329,0.9884,1.0114,1.0427,1.0771,1.0835,1.0828,1.0651,1.046,1.0202,0.9871,0.9871,0.9706,0.9434,0.9103,0.9158,0.9489,0.9706,1.0036,1.0366,1.0637,1.0692,1.0637,1.0421,1.0091,0.9706,0.9599,0.9489,0.9379,0.0325,0.0379,0.0433,0.0649,0.0658,0.061,0.0499,0.0614,0.1121,0.2297,0.2744,0.3361,0.4592,0.4873,0.5098,0.5375,0.5543,0.5596,0.5487,0.5601,0.5659,0.5659,0.6047,0.6267,0.6267,0.6882,0.7271,0.7379,0.7382,0.7493,0.7607,0.7493,0.7238,0.6963,0.7237,0.7098,0.6666,0.6937,0.6791,0.6355,0.6728,0.6458,0.5929,0.6295,0.6272,0.6056,0.6098,0.6278,0.6372,0.6258,0.6337,0.6487,0.6589,0.6639,0.6639,0.6492,0.6392,0.6342,0.6239,0.6087,0.5787,0.4989,0.4839,0.4949,0.4898,0.4808,0.4771,0.5023,0.5085,0.5033,0.4876,0.4876,0.4876,0.493,0.4721,0.0,0.0,0.5451,0.5773,0.5974,0.6578,0.7166,0.7525,0.7787,0.814,0.8535,0.9022,0.9431,0.9685,1.0104,1.04,1.0593,1.058,1.0447,1.0198,1.0091,0.9871,0.9596,0.9596,0.9544,0.9379,0.9047,0.9103,0.9434,0.9706,0.9981,1.0312,1.0582,1.0692,1.0692,1.0582,1.0312,1.0036,0.9706,0.9599,0.9541,0.0551,0.0606,0.0716,0.0935,0.1001,0.0953,0.0897,0.0953,0.1402,0.2576,0.3025,0.3642,0.4761,0.5268,0.5603,0.5766,0.5933,0.6102,0.6386,0.6439,0.6495,0.6386,0.6659,0.6824,0.6824,0.7271,0.749,0.7376,0.749,0.7549,0.7718,0.7607,0.7493,0.7324,0.7768,0.7768,0.7376,0.7604,0.7381,0.6961,0.7148,0.6921,0.6467,0.6865,0.6907,0.6729,0.6766,0.6978,0.716,0.6779,0.6889,0.7089,0.6942,0.6939,0.6939,0.6692,0.6242,0.5796,0.5874,0.5658,0.5247,0.4636,0.4532,0.469,0.488,0.5054,0.5283,0.5728,0.5797,0.5744,0.5527,0.5422,0.5316,0.5108,0.0,0.0,0.0,0.5616,0.593,0.6554,0.6932,0.7431,0.8039,0.8089,0.8327,0.8934,0.9303,0.9532,0.9583,0.9983,1.0285,1.0321,1.0276,1.0202,0.9926,0.9816,0.9651,0.9268,0.9395,0.9377,0.9212,0.9051,0.9047,0.927,0.9636,0.9926,1.0202,1.0637,1.0747,1.0692,1.0747,1.0582,1.0257,0.9926,0.9761,0.9651,0.112,0.1232,0.1232,0.1288,0.1289,0.1177,0.0953,0.1121,0.1626,0.2576,0.3194,0.3923,0.4817,0.5431,0.5768,0.5822,0.6323,0.6659,0.6659,0.6935,0.699,0.6659,0.699,0.7154,0.7154,0.721,0.7487,0.7934,0.7487,0.749,0.7989,0.7715,0.7607,0.7607,0.7881,0.7989,0.7934,0.7934,0.7928,0.791,0.7838,0.778,0.7759,0.7643,0.7598,0.758,0.7495,0.7443,0.7476,0.7491,0.7194,0.6892,0.7089,0.6836,0.6387,0.6139,0.5691,0.531,0.5404,0.5156,0.4823,0.4729,0.5024,0.5197,0.4812,0.5147,0.5521,0.532,0.5267,0.5267,0.5214,0.5,0.4839,0.5055,0.0,0.0,0.6215,0.6526,0.6895,0.7422,0.7305,0.7506,0.8288,0.8396,0.865,0.9372,0.9474,0.9634,0.9833,0.9816,0.9832,1.0041,1.0218,1.0312,1.0257,0.9981,0.9485,0.8937,0.9331,0.9208,0.878,0.8993,0.8939,0.8791,0.9475,0.9816,0.9926,1.0747,1.0907,1.0747,1.0962,1.0747,1.0257,0.9926,0.9651,0.9434,0.1234,0.129,0.1346,0.157,0.1627,0.1627,0.1683,0.1795,0.2187,0.3138,0.3587,0.4091,0.4819,0.5431,0.588,0.6105,0.6492,0.6768,0.699,0.7154,0.7154,0.699,0.7154,0.721,0.721,0.7379,0.7549,0.7771,0.7549,0.766,0.7989,0.7881,0.7826,0.7881,0.8325,0.8491,0.8318,0.8318,0.8318,0.8315,0.8262,0.813,0.7962,0.8131,0.8221,0.8202,0.8065,0.812,0.82,0.8008,0.7753,0.7492,0.7079,0.6817,0.6507,0.5891,0.5421,0.5183,0.5278,0.5085,0.4897,0.4757,0.4816,0.4974,0.5064,0.5246,0.5478,0.5811,0.588,0.5825,0.5604,0.5766,0.5927,0.5873,0.0,0.6798,0.7291,0.7388,0.7553,0.7987,0.817,0.8371,0.8685,0.9059,0.9409,0.9748,0.9736,0.9738,0.973,0.9693,0.9871,1.0198,0.995,0.9831,0.9674,0.9408,0.919,0.9066,0.9377,0.9349,0.9122,0.9231,0.9122,0.8855,0.9735,1.0091,1.0202,1.1076,1.124,1.0966,1.1072,1.0857,1.0527,1.0202,1.0036,0.9926,0.1402,0.1458,0.157,0.1851,0.1908,0.202,0.23,0.2356,0.2636,0.3363,0.3757,0.4204,0.4819,0.5545,0.6102,0.6383,0.6715,0.6935,0.721,0.721,0.721,0.721,0.721,0.721,0.721,0.7438,0.7607,0.7607,0.7662,0.7826,0.7989,0.81,0.8156,0.8156,0.866,0.8826,0.8598,0.854,0.854,0.8598,0.854,0.8432,0.8322,0.8543,0.8598,0.8634,0.8493,0.8551,0.8635,0.822,0.796,0.775,0.7118,0.6748,0.6378,0.5587,0.5375,0.5394,0.5381,0.5418,0.5393,0.4899,0.4899,0.5064,0.5263,0.5452,0.5746,0.6313,0.6439,0.6328,0.6102,0.6434,0.6604,0.6323,0.6821,0.7376,0.7826,0.7856,0.7959,0.8346,0.8632,0.8814,0.8977,0.9399,0.9803,0.9985,0.9973,0.9894,0.9728,0.9645,0.9716,1.0054,0.9631,0.9334,0.9175,0.907,0.9093,0.9298,0.9457,0.9466,0.9359,0.941,0.9194,0.8869,0.9684,1.0147,1.0366,1.1021,1.124,1.1072,1.1072,1.0966,1.0692,1.0421,1.0257,1.0091,0.1739,0.1795,0.1907,0.2132,0.2188,0.23,0.2637,0.2693,0.2806,0.3082,0.3643,0.426,0.4819,0.5714,0.6383,0.6659,0.699,0.721,0.721,0.721,0.721,0.721,0.721,0.721,0.721,0.7438,0.7607,0.7607,0.7881,0.7989,0.7989,0.8318,0.8484,0.854,0.8768,0.8885,0.8881,0.8598,0.8654,0.8881,0.8598,0.8654,0.8885,0.8885,0.8885,0.8865,0.8767,0.8713,0.8635,0.817,0.7806,0.7545,0.7276,0.6643,0.5905,0.5269,0.5534,0.5982,0.5757,0.6164,0.6354,0.5186,0.5308,0.5645,0.5462,0.588,0.6386,0.6659,0.6715,0.6715,0.6715,0.6715,0.6604,0.633,0.6826,0.7324,0.7607,0.7826,0.8156,0.8484,0.8484,0.8649,0.9047,0.9352,0.9709,1.0176,1.0212,1.0132,1.0034,0.9572,0.935,0.9505,0.9097,0.8916,0.8916,0.9171,0.9353,0.9505,0.9614,0.9519,0.9194,0.9405,0.919,0.872,0.9201,0.9761,1.0312,1.0582,1.0857,1.1072,1.1072,1.0966,1.0692,1.0417,1.0091,0.9816,0.1795,0.1964,0.2132,0.2188,0.2413,0.2636,0.2915,0.2971,0.3082,0.3418,0.4147,0.4706,0.4873,0.588,0.6604,0.6715,0.699,0.721,0.721,0.721,0.721,0.721,0.721,0.7268,0.7493,0.7551,0.7718,0.7881,0.7934,0.81,0.8374,0.8429,0.8598,0.8771,0.8881,0.8885,0.8881,0.8598,0.8654,0.8881,0.8598,0.8654,0.8885,0.8885,0.8885,0.8878,0.8834,0.8814,0.8811,0.8654,0.8474,0.8144,0.7653,0.716,0.6775,0.6339,0.6503,0.6783,0.6488,0.6554,0.6561,0.604,0.6026,0.6123,0.6042,0.6325,0.6604,0.6659,0.6879,0.6988,0.6768,0.7213,0.7601,0.7493,0.8214,0.8819,0.9099,0.9044,0.893,0.8813,0.9147,0.9409,0.9311,0.996,1.0321,1.0314,1.0237,1.0241,1.0259,0.9735,0.9513,0.968,0.9101,0.8859,0.9016,0.896,0.9034,0.9298,0.9353,0.9367,0.9362,0.9413,0.9198,0.8872,0.9412,0.9761,0.9981,1.0692,1.0911,1.0857,1.1021,1.0966,1.0692,1.0637,1.0253,0.9816,0.1964,0.2188,0.2412,0.2523,0.2747,0.2971,0.325,0.3306,0.3418,0.3699,0.4426,0.4985,0.5208,0.61,0.6768,0.6879,0.7099,0.721,0.721,0.721,0.721,0.721,0.7324,0.7438,0.7607,0.7607,0.7715,0.7989,0.8156,0.8318,0.8484,0.8598,0.8768,0.8885,0.8885,0.8885,0.8881,0.8712,0.8768,0.8881,0.8712,0.8768,0.8885,0.8885,0.8885,0.8885,0.8885,0.8885,0.8881,0.8768,0.8654,0.8374,0.7771,0.7549,0.7432,0.7046,0.721,0.7435,0.716,0.7213,0.7324,0.7049,0.6717,0.6439,0.6439,0.6771,0.7099,0.7213,0.749,0.7709,0.7598,0.7986,0.8374,0.8374,0.8816,0.932,0.9596,0.9485,0.9375,0.9258,0.9592,0.9761,0.9761,1.0257,1.0542,1.0546,1.0222,1.0206,1.0476,0.9762,0.9533,0.9974,0.9381,0.9061,0.9233,0.8984,0.9057,0.9294,0.9363,0.9398,0.9379,0.9379,0.9213,0.894,0.9265,0.9596,0.9816,1.0363,1.0637,1.0692,1.0857,1.0852,1.0692,1.0692,1.0308,0.9816,0.2244,0.2525,0.2805,0.3082,0.3137,0.325,0.3531,0.3643,0.3699,0.398,0.4596,0.5208,0.5766,0.6379,0.6879,0.7154,0.721,0.721,0.721,0.721,0.721,0.721,0.7493,0.7607,0.7662,0.7662,0.7771,0.8045,0.8374,0.8484,0.8484,0.8768,0.8885,0.8885,0.8885,0.8885,0.8885,0.8885,0.8885,0.8885,0.8885,0.8885,0.8885,0.8885,0.8885,0.8885,0.8885,0.8885,0.8881,0.8598,0.854,0.8432,0.7881,0.7881,0.7989,0.7487,0.7657,0.8045,0.7773,0.81,0.8429,0.81,0.7435,0.6879,0.6824,0.7265,0.7759,0.8042,0.8374,0.8706,0.8923,0.8978,0.9034,0.8978,0.9034,0.9144,0.9485,0.9489,0.9599,0.9816,0.9871,0.9981,1.0257,1.0312,1.0366,1.0582,1.0147,1.0088,1.0582,0.9671,0.9497,1.0253,0.9772,0.9443,0.9379,0.9287,0.932,0.9424,0.9409,0.9381,0.9379,0.9379,0.9213,0.8885,0.8885,0.9213,0.9706,0.9761,1.0091,1.0582,1.0637,1.0637,1.0692,1.0692,1.0308,0.9816,0.2525,0.2805,0.3026,0.3081,0.3306,0.3531,0.3587,0.3757,0.3924,0.3982,0.4931,0.5654,0.5766,0.6599,0.7099,0.721,0.721,0.721,0.721,0.721,0.7268,0.7493,0.7551,0.7718,0.7934,0.7934,0.8045,0.8374,0.8484,0.8484,0.8484,0.8768,0.8885,0.8885,0.8885,0.8885,0.8885,0.8885,0.8885,0.8885,0.8885,0.8885,0.8885,0.8885,0.8885,0.8885,0.8885,0.8885,0.8881,0.8826,0.8826,0.8771,0.866,0.866,0.8657,0.8322,0.8432,0.8657,0.8377,0.8374,0.8484,0.8429,0.8263,0.8042,0.7768,0.8205,0.8644,0.8702,0.9147,0.9482,0.932,0.9702,0.9923,0.9647,0.9974,1.0363,1.0417,1.0257,1.0147,1.0202,1.0202,1.0202,1.0312,1.0312,1.0202,1.0033,1.0143,1.0147,0.9981,0.9783,0.9724,0.9923,0.9618,0.9398,0.9379,0.9343,0.9274,0.9051,0.8926,0.8896,0.8992,0.8992,0.8995,0.8885,0.8885,0.8992,0.9103,0.9379,0.9544,0.9706,1.0202,1.0366,1.0417,1.0637,1.0308,0.9761,0.2859,0.3138,0.3362,0.3362,0.3475,0.3643,0.3757,0.3924,0.4092,0.4372,0.5208,0.5877,0.6047,0.6712,0.7235,0.7236,0.7241,0.7241,0.7241,0.7243,0.7324,0.7607,0.7715,0.7934,0.8208,0.8263,0.8322,0.8484,0.8484,0.8543,0.8712,0.8826,0.8885,0.8885,0.8885,0.8885,0.8885,0.8885,0.8885,0.8885,0.8885,0.8885,0.8885,0.8885,0.8885,0.8885,0.8885,0.8885,0.8885,0.8885,0.8885,0.8885,0.8885,0.8885,0.8881,0.8933,0.8933,0.8881,0.8933,0.893,0.893,0.893,0.904,0.8985,0.8377,0.8706,0.9147,0.9313,0.9702,1.0036,1.0036,1.0257,1.0417,1.0253,1.0472,1.0692,1.0692,1.0582,1.0472,1.0472,1.0366,1.0257,1.0091,1.0202,1.0147,0.9816,0.9816,0.9871,0.9816,0.9541,0.9489,0.9816,0.9544,0.9379,0.9379,0.9379,0.9213,0.8881,0.8804,0.8807,0.8885,0.8885,0.8885,0.8885,0.8885,0.8885,0.8937,0.9268,0.9489,0.9599,0.9926,1.0257,1.0472,1.0472,1.0198,0.9761,0.3194,0.3418,0.3587,0.3643,0.3643,0.3757,0.4036,0.4148,0.4316,0.4819,0.5487,0.5991,0.6274,0.6842,0.7225,0.7271,0.728,0.728,0.728,0.7222,0.7324,0.7607,0.7881,0.8156,0.8429,0.8566,0.8566,0.8484,0.8484,0.8598,0.8826,0.8881,0.8885,0.8885,0.8885,0.8885,0.8885,0.8885,0.8885,0.8885,0.8885,0.8885,0.8885,0.8885,0.8885,0.8885,0.8885,0.8937,0.8992,0.894,0.8937,0.8992,0.894,0.8885,0.894,0.9323,0.9158,0.8995,0.9323,0.9379,0.9379,0.9379,0.9544,0.9537,0.8871,0.9096,0.9541,0.9816,1.0036,1.0312,1.0582,1.0637,1.0637,1.0637,1.0692,1.0692,1.0692,1.0692,1.0692,1.0637,1.0366,1.0091,0.9816,1.0036,1.0036,0.9651,0.9489,0.9489,0.9651,0.9213,0.9213,0.9706,0.9544,0.9379,0.9379,0.9379,0.9213,0.8885,0.8885,0.8885,0.8885,0.8885,0.8885,0.8885,0.8885,0.8937,0.8992,0.9268,0.9544,0.9816,0.9871,1.0143,1.0527,1.0257,0.9981,0.9765,0.3475,0.3587,0.3699,0.3924,0.3924,0.4036,0.4369,0.465,0.4817,0.4873,0.5656,0.6274,0.6274,0.6914,0.7317,0.7277,0.728,0.728,0.728,0.7222,0.7324,0.7607,0.7881,0.8045,0.8045,0.8775,0.8891,0.8484,0.8484,0.854,0.8543,0.8771,0.8885,0.8885,0.8885,0.8885,0.8885,0.8885,0.8885,0.8885,0.8885,0.8885,0.8885,0.8885,0.8885,0.8885,0.8885,0.9103,0.9268,0.8992,0.9103,0.9268,0.8992,0.8885,0.894,0.9323,0.9158,0.8995,0.9323,0.9379,0.9379,0.9379,0.9434,0.9489,0.9596,0.9706,0.9816,1.0147,1.0036,0.9981,1.0312,1.0366,1.0366,1.0366,1.0527,1.0692,1.0692,1.0692,1.0637,1.0366,1.0091,0.9871,0.9816,0.9651,0.9379,0.9047,0.9268,0.9268,0.9047,0.9213,0.9379,0.9434,0.9434,0.9379,0.9379,0.9379,0.9213,0.8885,0.8885,0.8885,0.8885,0.8885,0.8885,0.8885,0.8885,0.9047,0.9323,0.9379,0.9544,0.9816,1.0147,1.0091,0.9871,0.9599,0.9651,0.9724,0.3587,0.3587,0.3699,0.398,0.3982,0.4148,0.465,0.4817,0.4987,0.5156,0.5826,0.6274,0.6274,0.6987,0.7464,0.7535,0.7478,0.7437,0.7437,0.7432,0.7493,0.7607,0.7881,0.81,0.8263,0.8601,0.8811,0.8884,0.8884,0.8884,0.8884,0.8919,0.8885,0.8885,0.8885,0.8885,0.8885,0.8885,0.8885,0.8885,0.8885,0.8885,0.894,0.9103,0.9047,0.8885,0.8885,0.8992,0.9103,0.8937,0.8992,0.9103,0.8937,0.8885,0.8992,0.9485,0.9268,0.8992,0.9485,0.9489,0.9379,0.9379,0.9489,0.9651,0.9761,0.9706,0.971,1.0202,1.0036,0.9926,1.0417,1.0257,1.0147,1.0476,1.0472,1.0527,1.0692,1.0692,1.0582,1.0312,0.9981,0.9761,0.9596,0.9489,0.9268,0.8937,0.9047,0.9047,0.8885,0.9047,0.9103,0.9103,0.9103,0.9103,0.9103,0.8989,0.8819,0.8657,0.8491,0.8549,0.8885,0.8885,0.8885,0.8881,0.8768,0.8823,0.9103,0.9096,0.9316,0.9596,0.9761,0.9706,0.9607,0.9698,0.9731,0.9693]},{"header":{"parameterUnit":"m.s-1","parameterCategory":1,"la1":30.6,"la2":28.766,"lo1":-90.7593,"lo2":-88.6598,"dy":0.0162,"dx":0.0183,"nx":116,"ny":114,"refTime":"2024-03-11T18:00:00:Z","depth":0,"parameterNumber":3,"parameterNumberName":"V-component_of_WINDS"},"data":[0.0,0.0,0.0,0.0,0.0,0.0,0.0,0.0,0.0,0.0,0.0,0.0,0.0,0.0,0.0,0.0,0.0,0.0,0.0,0.0,0.0,0.0,0.0,0.0,0.0,0.0,0.0,0.0,0.0,0.0,0.0,0.0,0.0,0.0,0.0,0.0,0.0,0.0,0.0,0.0,0.0,0.0,0.0,0.0,0.0,0.0,0.0,0.0,0.0,0.0,0.0,0.0,0.0,0.0,0.0,0.0,0.0,0.0,0.0,0.0,0.0,0.0,0.0,0.0,0.0,0.0,0.0,0.0,0.0,0.0,0.0,0.0,0.0,0.0,0.0,0.0,0.0,0.0,0.0,0.0,0.0,0.0,0.0,0.0,0.0,0.0,0.0,0.0,0.0,0.0,0.0,0.0,0.0,0.0,0.0,0.0,0.0,0.0,0.0,0.0,0.0,0.0,0.0,0.0,0.0,0.0,0.0,0.0,0.0,0.0,0.0,0.0,0.0,0.0,0.0,0.0,0.0,0.0,0.0,0.0,0.0,0.0,0.0,0.0,0.0,0.0,0.0,0.0,0.0,0.0,0.0,0.0,0.0,0.0,0.0,0.0,0.0,0.0,0.0,0.0,0.0,0.0,0.0,0.0,0.0,0.0,0.0,0.0,0.0,0.0,0.0,0.0,0.0,0.0,0.0,0.0,0.0,0.0,0.0,0.0,0.0,0.0,0.0,0.0,0.0,0.0,0.0,0.0,0.0,0.0,0.0,0.0,0.0,0.0,0.0,0.0,0.0,0.0,0.0,0.0,0.0,0.0,0.0,0.0,0.0,0.0,0.0,0.0,0.0,0.0,0.0,0.0,0.0,0.0,0.0,0.0,0.0,0.0,0.0,0.0,0.0,0.0,0.0,0.0,0.0,0.0,0.0,0.0,0.0,0.0,0.0,0.0,0.0,0.0,0.0,0.0,0.0,0.0,0.0,0.0,0.0,0.0,0.0,0.0,0.0,0.0,0.0,0.0,0.0,0.0,0.0,0.0,0.0,0.0,0.0,0.0,0.0,0.0,0.0,0.0,0.0,0.0,0.0,0.0,0.0,0.0,0.0,0.0,0.0,0.0,0.0,0.0,0.0,0.0,0.0,0.0,0.0,0.0,0.0,0.0,0.0,0.0,0.0,0.0,0.0,0.0,0.0,0.0,0.0,0.0,0.0,0.0,0.0,0.0,0.0,0.0,0.0,0.0,0.0,0.0,0.0,0.0,0.0,0.0,0.0,0.0,0.0,0.0,0.0,0.0,0.0,0.0,0.0,0.0,0.0,0.0,0.0,0.0,0.0,0.0,0.0,0.0,0.0,0.0,0.0,0.0,0.0,0.0,0.0,0.0,0.0,0.0,0.0,0.0,0.0,0.0,0.0,0.0,0.0,0.0,0.0,0.0,0.0,0.0,0.0,0.0,0.0,0.0,0.0,0.0,0.0,0.0,0.0,0.0,0.0,0.0,0.0,0.0,0.0,0.0,0.0,0.0,0.0,0.0,0.0,0.0,0.0,0.0,0.0,0.0,0.0,0.0,0.0,0.0,0.0,0.0,0.0,0.0,0.0,0.0,0.0,0.0,0.0,0.0,0.0,0.0,0.0,0.0,0.0,0.0,0.0,0.0,0.0,0.0,0.0,0.0,0.0,0.0,0.0,0.0,0.0,0.0,0.0,0.0,0.0,0.0,0.0,0.0,0.0,0.0,0.0,0.0,0.0,0.0,0.0,0.0,0.0,0.0,0.0,0.0,0.0,0.0,0.0,0.0,0.0,0.0,0.0,0.0,0.0,0.0,0.0,0.0,0.0,0.0,0.0,0.0,0.0,0.0,0.0,0.0,0.0,0.0,0.0,0.0,0.0,0.0,0.0,0.0,0.0,0.0,0.0,0.0,0.0,0.0,0.0,0.0,0.0,0.0,0.0,0.0,0.0,0.0,0.0,0.0,0.0,0.0,0.0,0.0,0.0,0.0,0.0,0.0,0.0,0.0,0.0,0.0,0.0,0.0,0.0,0.0,0.0,0.0,0.0,0.0,0.0,0.0,0.0,0.0,0.0,0.0,0.0,0.0,0.0,0.0,0.0,0.0,0.0,0.0,0.0,0.0,0.0,0.0,0.0,0.0,0.0,0.0,0.0,0.0,0.0,0.0,0.0,0.0,0.0,0.0,0.0,0.0,0.0,0.0,0.0,0.0,0.0,0.0,0.0,0.0,0.0,0.0,0.0,0.0,0.0,0.0,0.0,0.0,0.0,0.0,0.0,0.0,0.0,0.0,0.0,0.0,0.0,0.0,0.0,0.0,0.0,0.0,0.0,0.0,0.0,0.0,0.0,0.0,0.0,0.0,0.0,0.0,0.0,0.0,0.0,0.0,0.0,0.0,0.0,0.0,0.0,0.0,0.0,0.0,0.0,0.0,0.0,0.0,0.0,0.0,0.0,0.0,0.0,0.0,0.0,0.0,0.0,0.0,0.0,0.0,0.0,0.0,0.0,0.0,0.0,0.0,0.0,0.0,0.0,0.0,0.0,0.0,0.0,0.0,0.0,0.0,0.0,0.0,0.0,0.0,0.0,0.0,0.0,0.0,0.0,0.0,0.0,0.0,0.0,0.0,0.0,0.0,0.0,0.0,0.0,0.0,0.0,0.0,0.0,0.0,0.0,0.0,0.0,0.0,0.0,0.0,0.0,0.0,0.0,0.0,0.0,0.0,0.0,0.0,0.0,0.0,0.0,0.0,0.0,0.0,0.0,0.0,0.0,0.0,0.0,0.0,0.0,0.0,0.0,0.0,0.0,0.0,0.0,0.0,0.0,0.0,0.0,0.0,0.0,0.0,0.0,0.0,0.0,0.0,0.0,0.0,0.0,0.0,0.0,0.0,0.0,0.0,0.0,0.0,0.0,0.0,0.0,0.0,0.0,0.0,0.0,0.0,0.0,0.0,0.0,0.0,0.0,0.0,0.0,0.0,0.0,0.0,0.0,0.0,0.0,0.0,0.0,0.0,0.0,0.0,0.0,0.0,0.0,0.0,0.0,0.0,0.0,0.0,0.0,0.0,0.0,0.0,0.0,0.0,0.0,0.0,0.0,0.0,0.0,0.0,0.0,0.0,0.0,0.0,0.0,0.0,0.0,0.0,0.0,0.0,0.0,0.0,0.0,0.0,0.0,0.0,0.0,0.0,0.0,0.0,0.0,0.0,0.0,0.0,0.0,0.0,0.0,0.0,0.0,0.0,0.0,0.0,0.0,0.0,0.0,0.0,0.0,0.0,0.0,0.0,0.0,0.0,0.0,0.0,0.0,0.0,0.0,0.0,0.0,0.0,0.0,0.0,0.0,0.0,0.0,0.0,0.0,0.0,0.0,0.0,0.0,0.0,0.0,0.0,0.0,0.0,0.0,0.0,0.0,0.0,0.0,0.0,0.0,0.0,0.0,0.0,0.0,0.0,0.0,0.0,0.0,0.0,0.0,0.0,0.0,0.0,0.0,0.0,0.0,0.0,0.0,0.0,0.0,0.0,0.0,0.0,0.0,0.0,0.0,0.0,0.0,0.0,0.0,0.0,0.0,0.0,0.0,0.0,0.0,0.0,0.0,0.0,0.0,0.0,0.0,0.0,0.0,0.0,0.0,0.0,0.0,0.0,0.0,0.0,0.0,0.0,0.0,0.0,0.0,0.0,0.0,0.0,0.0,0.0,0.0,0.0,0.0,0.0,0.0,0.0,0.0,0.0,0.0,0.0,0.0,0.0,0.0,0.0,0.0,0.0,0.0,0.0,0.0,0.0,0.0,0.0,0.0,0.0,0.0,0.0,0.0,0.0,0.0,0.0,0.0,0.0,0.0,0.0,0.0,0.0,0.0,0.0,0.0,0.0,0.0,0.0,0.0,0.0,0.0,0.0,0.0,0.0,0.0,0.0,0.0,0.0,0.0,0.0,0.0,0.0,0.0,0.0,0.0,0.0,0.0,0.0,0.0,0.0,0.0,0.0,0.0,0.0,0.0,0.0,0.0,0.0,0.0,0.0,0.0,0.0,0.0,0.0,0.0,0.0,0.0,0.0,0.0,0.0,0.0,0.0,0.0,0.0,0.0,0.0,0.0,0.0,0.0,0.0,0.0,0.0,0.0,0.0,0.0,0.0,0.0,0.0,0.0,0.0,0.0,0.0,0.0,0.0,0.0,0.0,0.0,0.0,0.0,0.0,0.0,0.0,0.0,0.0,0.0,0.0,0.0,0.0,0.0,0.0,0.0,0.0,0.0,0.0,0.0,0.0,0.0,0.0,0.0,0.0,0.0,0.0,0.0,0.0,0.0,0.0,0.0,0.0,0.0,0.0,0.0,0.0,0.0,0.0,0.0,0.0,0.0,0.0,0.0,0.0,0.0,0.0,0.0,0.0,0.0,0.0,0.0,0.0,0.0,0.0,0.0,0.0,0.0,0.0,0.0,0.0,0.0,0.0,0.0,0.0,0.0,0.0,0.0,0.0,0.0,0.0,0.0,0.0,0.0,0.0,0.0,0.0,0.0,0.0,0.0,0.0,0.0,0.0,0.0,0.0,0.0,0.0,0.0,0.0,0.0,0.0,0.0,0.0,0.0,0.0,0.0,0.0,0.0,0.0,0.0,0.0,0.0,0.0,0.0,0.0,0.0,0.0,0.0,0.0,0.0,0.0,0.0,0.0,0.0,0.0,0.0,0.0,0.0,0.0,0.0,0.0,0.0,0.0,0.0,0.0,0.0,0.0,0.0,0.0,0.0,0.0,0.0,0.0,0.0,0.0,0.0,0.0,0.0,0.0,0.0,0.0,0.0,0.0,0.0,0.0,0.0,0.0,0.0,0.0,0.0,0.0,0.0,0.0,0.0,0.0,0.0,0.0,0.0,0.0,0.0,0.0,0.0,0.0,0.0,0.0,0.0,0.0,0.0,0.0,0.0,0.0,0.0,0.0,0.0,0.0,0.0,0.0,0.0,0.0,0.0,0.0,0.0,0.0,0.0,0.0,0.0,0.0,0.0,0.0,0.0,0.0,0.0,0.0,0.0,0.0,0.0,0.0,0.0,0.0,0.0,0.0,0.0,0.0,0.0,0.0,0.0,0.0,0.0,0.0,0.0,0.0,0.0,0.0,0.0,0.0,0.0,0.0,0.0,0.0,0.0,0.0,0.0,0.0,0.0,0.0,0.0,0.0,0.0,0.0,0.0,0.0,0.0,0.0,0.0,0.0,0.0,0.0,0.0,0.0,0.0,0.0,0.0,0.0,0.0,0.0,0.0,0.0,0.0,0.0,0.0,0.0,0.0,0.0,0.0,0.0,0.0,0.0,0.0,0.0,0.0,0.0,0.0,0.0,0.0,0.0,0.0,0.0,0.0,0.0,0.0,0.0,0.0,0.0,0.0,0.0,0.0,0.0,0.0,0.0,0.0,0.0,0.0,0.0,0.0,0.0,0.0,0.0,0.0,0.0,0.0,0.0,0.0,0.0,0.0,0.0,0.0,0.0,0.0,0.0,0.0,0.0,0.0,0.0,0.0,0.0,0.0,0.0,0.0,0.0,0.0,0.0,0.0,0.0,0.0,0.0,0.0,0.0,0.0,0.0,0.0,0.0,0.0,0.0,0.0,0.0,0.0,0.0,0.0,0.0,0.0,0.0,0.0,0.0,0.0,0.0,0.0,0.0,0.0,0.0,0.0,0.0,0.0,0.0,0.0,0.0,0.0,0.0,0.0,0.0,0.0,0.0,0.0,0.0,0.0,0.0,0.0,0.0,0.0,0.0,0.0,0.0,0.0,0.0,0.0,0.0,0.0,0.0,0.0,0.0,0.0,0.0,0.0,0.0,0.0,0.0,0.0,0.0,0.0,0.0,0.0,0.0,0.0,0.0,0.0,0.0,0.0,0.0,0.0,0.0,0.0,0.0,0.0,0.0,0.0,0.0,0.0,0.0,0.0,0.0,0.0,0.0,0.0,0.0,0.0,0.0,0.0,0.0,0.0,0.0,0.0,0.0,0.0,0.0,0.0,0.0,0.0,0.0,0.0,0.0,0.0,0.0,0.0,0.0,0.0,0.0,0.0,0.0,0.0,0.0,0.0,0.0,0.0,0.0,2.5556,0.0,0.0,0.0,0.0,0.0,0.0,0.0,0.0,0.0,0.0,0.0,0.0,0.0,0.0,0.0,0.0,0.0,0.0,0.0,0.0,0.0,0.0,0.0,0.0,0.0,0.0,0.0,0.0,0.0,0.0,0.0,0.0,0.0,0.0,0.0,0.0,0.0,1.7527,1.698,1.6895,1.6513,1.5878,1.5442,0.0,0.0,0.0,0.0,0.0,0.0,0.0,0.0,0.0,0.0,0.0,0.0,0.0,0.0,0.0,0.0,0.0,0.0,0.0,0.0,0.0,0.0,0.0,0.0,0.0,0.0,0.0,0.0,0.0,0.0,0.0,0.0,0.0,0.0,0.0,0.0,0.0,0.0,0.0,0.0,0.0,0.0,0.0,0.0,0.0,0.0,0.0,0.0,0.0,0.0,0.0,0.0,0.0,0.0,0.0,0.0,0.0,0.0,0.0,0.0,0.0,0.0,0.0,0.0,0.0,0.0,0.0,0.0,0.0,0.0,0.0,0.0,0.0,2.7737,0.0,0.0,0.0,0.0,0.0,0.0,0.0,0.0,0.0,0.0,0.0,0.0,0.0,0.0,0.0,0.0,0.0,0.0,0.0,0.0,0.0,0.0,0.0,1.806,1.8528,1.804,1.8779,1.9089,1.8603,1.9358,1.9764,1.9611,1.9977,2.0075,1.9834,1.9609,1.9317,1.8997,1.8749,1.8351,1.7826,0.0,0.0,0.0,0.0,0.0,0.0,0.0,0.0,0.0,0.0,0.0,0.0,0.0,0.0,0.0,0.0,0.0,0.0,0.0,0.0,0.0,0.0,0.0,0.0,0.0,0.0,0.0,0.0,0.0,0.0,0.0,0.0,0.0,0.0,0.0,0.0,0.0,0.0,0.0,0.0,0.0,0.0,0.0,0.0,0.0,0.0,0.0,0.0,0.0,0.0,0.0,0.0,0.0,0.0,0.0,0.0,0.0,0.0,0.0,0.0,0.0,0.0,0.0,0.0,0.0,0.0,0.0,3.3025,3.4138,3.6517,3.5179,3.4932,3.5419,3.2643,3.1255,3.0916,0.0,0.0,0.0,0.0,0.0,0.0,0.0,0.0,0.0,0.0,0.0,0.0,0.0,0.0,0.0,0.0,0.0,0.0,0.0,0.0,0.0,0.0,1.9097,1.9291,1.9483,1.9121,1.8957,1.9161,1.9206,1.9213,1.9184,1.9775,2.0065,1.9987,2.0103,2.0167,2.0177,2.0028,1.9786,1.9507,2.0139,2.0015,1.9162,1.7721,0.0,0.0,0.0,0.0,0.0,0.0,0.0,0.0,0.0,0.0,0.0,0.0,0.0,0.0,0.0,0.0,0.0,0.0,0.0,0.0,0.0,0.0,0.0,0.0,0.0,0.0,0.0,0.0,0.0,0.0,0.0,0.0,0.0,0.0,0.0,0.0,0.0,0.0,0.0,0.0,0.0,0.0,0.0,2.861,2.885,0.0,0.0,0.0,0.0,0.0,0.0,0.0,0.0,0.0,0.0,0.0,0.0,0.0,3.1098,3.196,3.3152,3.4234,3.5173,3.5843,3.6372,3.6758,3.6534,3.6516,3.6652,3.6224,0.0,3.2681,3.1648,0.0,0.0,0.0,0.0,0.0,0.0,0.0,0.0,0.0,0.0,0.0,0.0,0.0,0.0,0.0,0.0,0.0,0.0,0.0,0.0,0.0,2.0193,2.0457,2.0272,2.0879,2.1022,2.0411,2.1096,2.1258,2.0704,2.0997,2.1049,2.0792,2.091,2.1038,2.1131,2.1144,2.1262,2.1436,2.1857,2.1806,2.1379,2.1098,1.9908,1.8077,1.7451,0.0,0.0,0.0,0.0,0.0,0.0,0.0,0.0,0.0,0.0,0.0,0.0,0.0,0.0,0.0,0.0,0.0,0.0,0.0,0.0,0.0,0.0,0.0,0.0,0.0,0.0,0.0,0.0,0.0,0.0,0.0,0.0,0.0,0.0,0.0,0.0,0.0,0.0,0.0,3.0017,3.0294,3.0481,3.0463,3.0369,0.0,0.0,0.0,0.0,0.0,0.0,0.0,0.0,0.0,3.3989,3.4303,3.4659,3.505,3.5672,3.6389,3.7188,3.7099,3.7565,3.8472,3.8021,3.8082,3.85,3.8048,3.7231,3.6158,3.5056,3.4495,3.4257,0.0,0.0,0.0,0.0,3.2006,3.2251,0.0,0.0,0.0,0.0,0.0,0.0,0.0,0.0,0.0,0.0,0.0,0.0,2.0579,2.1368,2.1728,2.1334,2.2468,2.2829,2.1914,2.2827,2.3022,2.2191,2.2218,2.2077,2.169,2.2078,2.2372,2.2625,2.2765,2.2999,2.3324,2.3555,2.3484,2.3167,2.3881,2.2569,1.9808,1.9245,1.8563,0.0,0.0,0.0,0.0,0.0,0.0,0.0,0.0,0.0,0.0,0.0,0.0,0.0,0.0,0.0,0.0,0.0,0.0,0.0,0.0,0.0,0.0,0.0,0.0,0.0,0.0,0.0,0.0,0.0,0.0,0.0,0.0,0.0,0.0,0.0,0.0,0.0,0.0,3.1863,3.2196,3.2302,3.2504,3.2454,0.0,0.0,0.0,0.0,0.0,0.0,3.5473,3.6353,3.6871,3.6987,3.7297,3.7398,3.7297,3.7559,3.7997,3.8609,3.8182,3.8647,3.9854,3.9258,3.944,4.0209,3.9612,3.9492,3.9609,3.7859,3.6845,3.6372,3.6245,3.5841,3.5334,3.5258,3.5379,3.5731,0.0,0.0,0.0,0.0,0.0,0.0,0.0,0.0,0.0,0.0,0.0,2.1556,2.2125,2.2628,2.2993,2.3146,2.3187,2.3336,2.3652,2.3494,2.3244,2.2872,2.2909,2.2788,2.245,2.3715,2.4612,2.5117,2.5314,2.5266,2.4989,2.5323,2.5262,2.4909,2.5715,2.459,2.2093,2.1621,2.144,2.1391,0.0,0.0,0.0,0.0,0.0,0.0,0.0,0.0,0.0,0.0,0.0,0.0,0.0,0.0,0.0,0.0,0.0,0.0,0.0,0.0,0.0,0.0,0.0,0.0,0.0,0.0,0.0,0.0,0.0,0.0,0.0,0.0,0.0,0.0,0.0,0.0,0.0,0.0,0.0,3.3966,3.5333,0.0,0.0,0.0,0.0,3.6517,3.6653,3.6938,3.7424,3.7471,3.749,3.7557,3.7585,3.7594,3.7573,3.8337,3.8775,3.889,3.9546,3.9946,4.0081,4.0043,4.053,4.1399,4.1371,4.182,4.2317,3.8762,3.7334,3.7433,3.7471,3.757,3.7644,3.7769,3.7854,3.8054,0.0,0.0,0.0,0.0,0.0,0.0,0.0,0.0,2.1206,2.1484,2.2082,2.2606,2.2906,2.3411,2.3996,2.4727,2.544,2.5938,2.6177,2.6217,2.5906,2.5179,2.4843,2.4688,2.4683,2.536,2.5776,2.5877,2.599,2.6109,2.6188,2.6136,2.6189,2.6318,2.699,2.6691,2.5596,2.4875,2.4078,2.3297,2.2978,2.2081,0.0,0.0,0.0,0.0,0.0,0.0,0.0,0.0,0.0,0.0,0.0,0.0,0.0,0.0,0.0,0.0,0.0,0.0,0.0,0.0,0.0,0.0,0.0,0.0,0.0,0.0,0.0,0.0,0.0,0.0,0.0,0.0,0.0,0.0,0.0,0.0,0.0,3.5432,3.6105,0.0,3.6607,3.6784,3.7023,3.7347,3.7918,3.8356,3.861,3.9054,3.935,3.9465,3.9421,3.968,4.0234,4.0569,4.0722,4.0705,4.101,4.0882,4.0351,4.0372,4.0534,4.0894,4.1453,4.1876,4.2096,4.1346,4.0708,4.021,4.0279,4.0042,3.9678,3.9779,4.0164,4.0651,0.0,0.0,0.0,0.0,0.0,0.0,0.0,0.0,2.2341,2.2341,2.3293,2.4008,2.4077,2.4833,2.5608,2.6238,2.6983,2.7469,2.7587,2.7612,2.7306,2.6589,2.6136,2.6162,2.6695,2.6901,2.7118,2.7359,2.731,2.7364,2.7527,2.7273,2.7391,2.7884,2.8427,2.868,2.8679,2.8286,2.7132,2.553,2.5387,2.4315,2.2843,0.0,0.0,0.0,0.0,0.0,0.0,0.0,0.0,0.0,0.0,0.0,0.0,0.0,0.0,0.0,0.0,0.0,0.0,0.0,0.0,0.0,0.0,0.0,0.0,0.0,0.0,0.0,0.0,0.0,0.0,0.0,0.0,0.0,0.0,0.0,3.6092,3.6882,3.7448,3.7853,3.7995,3.8185,3.8402,3.8654,3.9197,3.9544,3.9669,4.0146,4.045,4.0549,4.0496,4.0758,4.1362,4.1359,4.1505,4.1801,4.1817,4.1532,4.0976,4.1277,4.1265,4.1068,4.2244,4.2745,4.2818,4.3682,4.352,4.2653,4.2036,4.1508,4.104,4.0791,4.1055,4.1531,0.0,0.0,0.0,0.0,0.0,0.0,0.0,2.3202,2.3621,2.3621,2.4838,2.5694,2.5635,2.6924,2.7797,2.7756,2.7687,2.772,2.7868,2.7558,2.725,2.7,2.6738,2.7166,2.8317,2.8295,2.8708,2.9617,2.9373,2.9174,2.9052,2.8809,2.8993,2.9584,3.005,3.0606,3.119,3.1725,3.0567,2.8329,2.8076,2.6899,2.5394,0.0,0.0,0.0,0.0,0.0,0.0,0.0,0.0,0.0,0.0,0.0,0.0,0.0,0.0,0.0,0.0,0.0,0.0,0.0,0.0,0.0,0.0,0.0,0.0,0.0,0.0,0.0,0.0,0.0,0.0,0.0,0.0,0.0,3.6266,3.7403,3.8263,3.8369,3.9519,4.0034,3.9319,4.0019,4.0539,4.0595,4.0546,4.0542,4.0595,4.064,4.0654,4.07,4.0689,4.073,4.0771,4.0682,4.1123,4.2072,4.2025,4.1972,4.1972,4.2818,4.2774,4.2137,4.3866,4.4595,4.4679,4.5531,4.5446,4.4562,4.2649,4.1882,4.1754,4.0918,4.0607,4.0757,0.0,0.0,0.0,0.0,0.0,0.0,0.0,2.3997,2.4115,2.4115,2.5209,2.5994,2.6034,2.718,2.8214,2.8877,2.8872,2.9076,2.9655,2.9277,2.8911,2.8652,2.8896,2.9227,2.9593,2.9589,2.9673,2.9891,3.0254,3.0354,3.0227,3.0604,3.0827,3.0986,3.1631,3.1987,3.2068,3.273,3.2539,3.1691,3.0225,2.8818,2.759,0.0,0.0,0.0,0.0,0.0,0.0,0.0,0.0,0.0,0.0,0.0,0.0,0.0,0.0,0.0,0.0,0.0,0.0,0.0,0.0,0.0,0.0,0.0,0.0,0.0,0.0,0.0,0.0,0.0,0.0,0.0,3.723,3.8206,3.8165,3.8647,3.9221,3.9819,4.0304,4.0521,4.0311,4.0506,4.0675,4.0739,4.0739,4.0732,4.0736,4.1342,4.1382,4.072,4.1951,4.2615,4.2596,4.3228,4.3673,4.3963,4.3885,4.355,4.2986,4.3195,4.32,4.3147,4.4201,4.4702,4.4806,4.5633,4.5877,4.5589,4.4386,4.3544,4.3014,4.2816,4.2784,4.2942,0.0,0.0,0.0,0.0,0.0,0.0,0.0,2.4495,2.4493,2.4535,2.5849,2.6812,2.6897,2.8241,2.9353,2.9938,2.992,3.004,3.0388,3.0068,2.9966,0.0,0.0,3.0887,3.1359,3.1322,3.1277,3.1209,3.1504,3.1602,3.1506,3.1803,3.2091,3.2359,3.273,3.3012,3.3222,3.359,3.3666,3.3463,3.261,3.1443,3.0228,3.0337,3.0281,3.0065,2.9468,2.9736,3.0237,2.9338,0.0,0.0,0.0,0.0,0.0,0.0,0.0,0.0,0.0,0.0,0.0,0.0,0.0,0.0,0.0,0.0,0.0,0.0,0.0,0.0,0.0,0.0,0.0,0.0,3.8452,3.9353,3.9692,3.981,4.0076,4.0564,4.0694,4.0745,4.0745,4.0744,4.0761,4.0798,4.1147,4.1333,4.1336,4.2197,4.2408,4.1802,4.2844,4.3373,4.3337,4.3865,4.4321,4.4699,4.4664,4.4405,4.3956,4.4303,4.4131,0.0,4.4778,4.5122,4.4906,4.5741,4.6115,0.0,0.0,0.0,0.0,0.0,4.3716,4.4186,0.0,0.0,0.0,0.0,0.0,0.0,0.0,2.4792,2.4809,2.4924,2.6488,2.7664,2.7903,2.9505,3.0624,3.0782,3.0739,3.0613,3.0405,3.0308,0.0,3.1497,3.1695,3.2213,3.3107,3.3059,3.2979,3.2927,3.2903,3.2845,3.2776,3.2741,3.3077,3.3686,3.356,3.3824,3.436,3.4314,3.4201,3.4136,3.4731,3.4113,3.291,3.3439,3.3178,3.2494,3.2264,3.228,3.228,3.1409,0.0,0.0,0.0,0.0,0.0,0.0,0.0,0.0,0.0,0.0,0.0,0.0,0.0,0.0,0.0,0.0,0.0,0.0,0.0,0.0,0.0,0.0,0.0,0.0,3.942,3.9883,4.0791,4.0818,4.0756,4.0818,4.0901,4.097,4.0959,4.1061,4.1119,4.1119,4.1745,4.2172,4.2269,0.0,0.0,0.0,0.0,4.3646,4.3557,4.3598,4.4034,4.4861,4.4856,4.4856,4.488,4.5721,4.5249,4.3897,4.5441,4.5714,4.5114,4.5891,4.6215,4.6114,4.5212,4.4839,4.4681,4.3869,4.4112,4.4899,0.0,0.0,0.0,0.0,0.0,0.0,0.0,2.5103,2.5107,2.5135,2.6152,2.7184,2.7984,2.9101,3.0051,3.0674,3.07,3.0593,3.0342,0.0,3.1414,3.1643,3.2508,3.3061,3.3254,3.3193,3.3149,3.3139,3.3705,3.3923,3.3825,3.445,3.4759,3.4783,3.475,3.4792,3.486,3.4794,3.4745,3.4723,3.4749,3.4593,3.4441,3.5028,3.5434,3.561,3.4814,3.4976,3.5403,3.4603,3.4534,3.4873,3.5015,0.0,0.0,0.0,0.0,0.0,0.0,0.0,0.0,0.0,0.0,0.0,0.0,0.0,0.0,0.0,0.0,0.0,0.0,0.0,0.0,3.9376,4.0135,4.0758,4.0945,4.0967,4.0935,4.0882,4.1557,4.2017,4.2002,4.2644,4.3052,4.3052,4.2566,4.2566,4.3266,4.3469,4.3529,4.3456,4.4842,4.5216,4.4457,4.5191,4.5643,4.5827,0.0,0.0,4.5827,4.5969,4.5885,4.5694,4.6037,4.6084,4.596,4.6199,4.6288,4.6252,4.6017,4.5948,4.5948,4.5765,4.5814,4.5996,0.0,0.0,0.0,0.0,0.0,0.0,0.0,2.5264,2.5249,2.5303,2.6115,2.6886,2.7395,2.8294,2.916,2.9936,3.0339,3.0727,0.0,3.1491,3.2156,3.3168,3.371,3.4198,3.4594,3.4575,3.4547,3.4546,3.4894,3.5015,3.4969,3.5332,3.5457,3.5346,3.5316,3.5258,3.5197,3.5081,3.5069,3.5119,3.5381,3.5545,3.564,3.6051,3.6589,3.7036,3.6461,3.6759,3.7321,3.6439,3.6406,3.6725,3.6816,3.6522,3.6006,0.0,0.0,0.0,0.0,0.0,0.0,0.0,0.0,0.0,0.0,0.0,0.0,0.0,0.0,3.8124,3.8732,0.0,3.971,4.0217,4.0694,4.1003,4.1049,4.1049,4.1036,4.0968,4.1357,4.1813,4.226,4.2688,4.3104,4.3471,4.3523,4.3731,4.4132,4.4627,4.4865,4.4744,4.5652,4.5905,4.5405,4.5896,4.615,4.615,4.6126,4.6126,4.615,4.6131,4.6142,4.6199,4.6248,4.6249,4.6255,4.6296,4.6301,4.6301,4.6262,4.6279,4.6294,4.63,4.6303,4.6305,0.0,0.0,0.0,0.0,0.0,0.0,0.0,2.4882,2.4925,2.5128,2.5774,2.6366,2.6746,2.7421,2.8232,2.9207,2.9965,3.0778,0.0,3.1946,3.2779,3.4352,3.4745,3.5234,3.5895,3.5909,3.5917,3.5914,3.5851,3.5816,3.5818,3.576,3.5697,3.5645,3.5588,3.5531,3.547,3.5357,3.5319,3.54,3.5927,3.6173,3.6264,3.6567,3.7138,3.777,3.7566,3.8022,3.8575,3.7838,3.7826,3.8096,3.8117,3.7879,3.7544,3.7393,3.7389,0.0,0.0,0.0,0.0,0.0,0.0,0.0,0.0,0.0,3.8566,3.8614,3.8709,3.9026,3.9899,4.001,4.0283,4.1206,4.1312,4.1346,4.1562,4.1603,4.1585,4.1535,4.1501,4.1852,4.2728,4.2961,4.3307,4.3899,4.4485,4.4872,4.4992,4.5601,4.5974,4.6045,4.6141,4.616,4.6115,4.6165,4.6199,4.6199,4.6203,4.6203,4.6203,4.6203,4.6209,4.6192,4.6271,4.6306,4.6291,4.6305,4.6306,4.6305,4.6308,4.6308,4.6304,4.6304,4.6306,4.6307,0.0,0.0,0.0,0.0,0.0,0.0,0.0,0.0,2.3503,2.4154,2.4384,2.5054,2.6547,2.6857,2.7568,2.9071,2.9931,0.0,3.0739,3.2196,3.3162,3.3445,3.4944,3.5811,3.5902,3.5893,3.5937,3.5995,3.5912,3.5899,3.589,3.5877,3.583,3.5788,3.5768,3.5756,3.5741,3.5683,3.5615,3.5568,3.5579,3.5592,3.5668,3.6343,3.7395,3.8474,3.8319,3.877,3.9402,3.94,3.943,3.9508,3.9629,3.9661,3.9514,3.8811,0.0,3.8536,3.7829,3.7762,3.8286,3.9827,3.9669,3.9342,0.0,0.0,4.0495,4.05,4.0649,4.0811,4.0936,4.0955,4.1239,4.2112,4.2256,4.2512,4.3305,4.3402,4.3419,4.3395,4.3359,4.364,4.452,4.5319,4.5797,4.5873,4.5267,4.5222,4.5995,4.5404,4.5394,4.6159,4.6193,4.6206,4.6196,4.6203,4.6199,4.6199,4.6193,4.6203,4.6203,4.6198,4.6206,4.6206,4.6261,4.6301,4.6308,4.6308,4.6308,4.6308,4.6308,4.6308,4.6308,4.6308,4.6308,4.6308,0.0,0.0,0.0,0.0,0.0,0.0,0.0,0.0,0.0,2.4682,2.4868,2.5151,2.5818,2.6397,2.7218,2.8395,2.9266,0.0,3.1232,3.2535,3.347,3.3977,3.5221,3.5899,3.589,3.5894,3.5911,3.594,3.5911,3.5898,3.5895,3.593,3.6191,3.659,3.6072,3.6145,3.6589,3.5998,3.5735,3.5718,3.5694,3.5644,3.564,3.5994,3.6774,3.7686,3.788,3.8457,0.0,0.0,3.9602,4.007,4.012,3.9795,3.9451,3.9669,3.9414,0.0,3.9425,3.954,3.9766,0.0,4.0495,4.0354,4.0809,4.0956,4.097,4.0977,4.1045,4.1106,4.1106,4.1479,4.1935,0.0,4.2824,4.3275,4.3654,4.3693,4.3888,4.4395,4.4409,4.451,4.4852,4.5228,4.5638,4.6103,4.5849,4.5796,4.6118,4.5826,4.5825,4.6187,4.6242,4.624,4.6198,4.624,4.6237,4.6209,4.6195,4.6198,4.6198,4.6233,4.6269,4.6266,4.6295,4.6305,4.6308,4.6308,4.6308,4.6308,4.6308,4.6308,4.6308,4.6308,4.6308,4.6308,0.0,0.0,0.0,0.0,0.0,0.0,0.0,0.0,0.0,0.0,2.4846,2.5091,2.5308,2.6159,2.7056,2.7946,0.0,0.0,0.0,3.2614,3.3514,3.4086,3.5216,3.5815,3.5815,3.583,3.5955,3.6206,3.6204,3.6212,3.6237,3.6301,3.6523,3.6849,3.6202,3.6286,3.682,3.6125,3.5837,3.5838,3.5827,3.5807,3.5763,3.5788,3.616,3.6731,3.7224,3.794,0.0,0.0,3.9459,4.0068,4.0337,3.9972,3.9599,4.0273,4.0084,3.9817,4.0599,4.0812,0.0,4.0902,4.0944,4.0974,4.1028,4.1061,4.1105,4.1105,4.1105,4.1103,4.1096,4.1574,4.2064,4.2356,4.2939,4.3429,4.3663,4.3917,4.4284,4.4905,4.5125,4.5244,4.525,4.5267,4.5501,4.6075,4.6192,4.622,4.6164,4.6173,4.6211,4.6238,4.626,4.6258,4.6233,4.6258,4.6255,4.6206,4.6211,4.6233,4.6233,4.6284,4.6303,4.63,4.6301,4.6305,4.6308,4.6308,4.6308,4.6308,4.6308,4.6308,4.6308,4.6308,4.6308,4.6308,0.0,0.0,0.0,0.0,0.0,0.0,0.0,0.0,0.0,0.0,0.0,0.0,0.0,2.6178,2.709,0.0,0.0,0.0,0.0,3.2274,3.318,3.3145,3.4729,3.5618,3.5618,3.5669,3.6129,3.6968,3.6968,3.6993,3.7074,3.7127,3.6752,3.6045,3.6013,3.6015,3.6028,3.5931,3.5908,3.5904,3.5897,3.5905,3.5882,3.5827,3.5829,3.5931,3.6665,0.0,0.0,0.0,3.9311,3.949,4.0396,4.0675,0.0,4.0687,4.0717,4.0759,4.0863,0.0,4.099,4.0992,4.1044,4.1087,4.1108,4.1108,4.1108,4.1108,4.1108,4.1103,4.1098,4.1113,4.1406,4.2269,4.2425,4.2724,4.3585,4.4436,4.4953,4.4919,4.5599,4.6095,0.0,4.6153,4.617,4.6203,4.6258,4.6303,4.6282,4.6233,4.6238,4.63,4.624,4.6233,4.6303,4.6233,4.6209,4.6206,4.6279,4.6303,4.6303,4.6296,4.6305,4.6294,4.63,4.6304,4.6307,4.6308,4.6308,4.6308,4.6308,4.6308,4.6308,4.6308,4.6308,4.6308,0.0,0.0,0.0,0.0,0.0,0.0,0.0,0.0,0.0,0.0,0.0,0.0,0.0,0.0,0.0,0.0,0.0,0.0,0.0,3.0918,3.1771,3.2281,3.394,3.486,3.486,3.5427,3.5844,3.6135,3.6134,3.6142,3.6169,3.6284,3.6492,3.6765,3.6237,3.6327,3.6814,3.6222,3.5974,3.597,3.597,3.6285,3.676,3.6743,3.7053,3.7475,0.0,0.0,0.0,0.0,3.8953,3.9609,4.0541,0.0,3.9964,3.9961,4.0398,4.0872,4.0942,0.0,4.1016,4.1055,4.1086,4.109,4.1107,4.1107,4.1105,4.1098,4.1095,4.1093,4.1101,4.1562,4.2069,4.2355,4.2898,4.3351,4.3658,4.3946,4.435,4.4893,4.5175,0.0,0.0,0.0,0.0,4.6203,4.6211,4.6231,4.622,4.6253,4.626,4.6221,4.626,4.6282,4.6303,4.6288,4.6271,4.6271,4.6294,4.6296,4.6296,4.63,4.6305,4.6294,4.63,4.6304,4.6307,4.6308,4.6308,4.6308,4.6308,4.6308,4.6366,4.695,4.6793,4.6306,0.0,0.0,0.0,0.0,0.0,0.0,0.0,0.0,0.0,0.0,0.0,0.0,0.0,0.0,0.0,0.0,0.0,0.0,0.0,0.0,3.092,3.1417,3.2787,3.3671,3.3994,3.4219,3.4641,3.5276,3.5563,3.5712,3.5747,3.6137,3.6465,3.6709,3.6223,3.6303,3.6796,3.6248,3.6178,3.6403,3.6121,3.6649,3.7603,3.7305,3.772,0.0,0.0,0.0,0.0,3.8108,3.8636,3.9262,4.0189,4.0103,3.9727,4.0032,4.0533,4.098,4.1019,4.1038,4.1048,4.1093,4.1093,4.1093,4.1094,4.1093,4.1092,4.1104,4.1356,4.147,4.1165,4.1802,4.2291,4.1992,4.2417,4.2887,4.3195,4.3502,4.4001,4.4859,4.5204,4.5601,0.0,0.0,0.0,4.6238,4.6236,4.6233,4.6248,4.6284,4.6288,4.624,4.6286,4.629,4.629,4.6298,4.63,4.63,4.63,4.63,4.63,4.63,4.6303,4.6309,4.6299,4.6303,4.6306,4.6308,4.6308,4.6308,4.6306,4.6305,4.6364,4.6927,4.6788,4.6339,0.0,0.0,0.0,0.0,0.0,0.0,0.0,0.0,0.0,0.0,0.0,0.0,0.0,0.0,0.0,0.0,0.0,0.0,0.0,0.0,0.0,3.0539,3.1271,3.2092,3.2953,3.2263,3.273,3.4431,3.52,3.5607,3.569,3.6511,3.6502,3.5769,3.5839,3.5864,3.5879,3.5878,3.6334,3.7015,3.6249,3.6935,3.8318,3.7559,0.0,0.0,0.0,0.0,0.0,0.0,0.0,0.0,3.9519,3.9814,4.0028,4.0858,4.1095,4.1097,4.1093,4.1094,4.1093,4.1108,4.1107,4.1108,4.1091,4.1093,4.1094,4.1109,4.1752,4.2081,0.0,0.0,4.2116,4.1246,4.1161,4.1496,4.2239,4.3128,4.3972,0.0,0.0,0.0,0.0,0.0,0.0,4.6298,0.0,4.6288,4.6298,4.63,4.6302,4.6302,4.6302,4.6302,4.63,4.6302,4.6302,4.6302,4.6302,4.6302,4.6302,4.6302,4.6302,4.6303,4.6297,4.6302,4.6303,4.6308,4.6307,4.6306,4.6303,4.6301,4.6301,4.6359,4.6356,4.6488,0.0,0.0,0.0,0.0,0.0,0.0,0.0,0.0,0.0,0.0,0.0,0.0,0.0,0.0,0.0,0.0,0.0,0.0,0.0,0.0,0.0,0.0,0.0,0.0,0.0,0.0,0.0,0.0,0.0,3.3854,3.3874,3.4137,3.4169,3.3962,3.4028,3.4068,3.4061,3.4062,3.4564,3.5312,0.0,3.6401,3.8453,0.0,0.0,0.0,0.0,0.0,0.0,0.0,0.0,0.0,0.0,4.075,4.0812,4.1024,4.1107,4.1091,4.1093,4.111,4.1104,4.1101,4.1101,4.1103,4.1091,4.1091,4.1092,4.1094,4.1289,4.1366,0.0,0.0,0.0,4.1244,4.2195,0.0,4.1575,4.2745,0.0,4.3982,0.0,4.5556,4.6214,4.6269,0.0,0.0,4.6249,4.6233,4.6236,4.6261,4.629,4.629,4.629,4.6306,4.63,4.6306,4.629,4.629,4.6295,4.6295,4.629,4.6295,4.6297,4.6299,4.6306,4.6308,4.6308,4.6306,4.6303,4.6303,4.6297,4.6293,4.6365,4.6962,4.7186,4.7313,0.0,0.0,0.0,0.0,0.0,0.0,0.0,0.0,0.0,0.0,0.0,0.0,0.0,0.0,0.0,0.0,0.0,0.0,0.0,0.0,0.0,0.0,0.0,0.0,0.0,0.0,0.0,0.0,0.0,0.0,0.0,3.3148,3.3333,3.3349,3.3385,3.3395,3.3398,3.3395,0.0,0.0,0.0,0.0,0.0,0.0,0.0,0.0,0.0,0.0,0.0,0.0,0.0,4.0556,4.097,4.0857,4.0643,4.0995,0.0,4.1091,4.11,4.0819,4.0522,4.0524,4.0256,4.0007,3.9993,4.0306,4.0562,4.0566,4.1152,0.0,4.1679,0.0,0.0,0.0,0.0,0.0,4.2322,4.3083,4.3842,0.0,4.4696,0.0,4.6215,4.6305,4.6305,0.0,4.6261,4.6234,4.6238,4.6272,4.6297,4.6297,4.6297,4.6295,4.6291,4.6295,4.6297,4.6297,4.6301,4.6299,4.6293,4.63,4.6301,4.63,0.0,4.6308,4.6327,4.6688,4.6601,4.6327,4.7098,4.7168,4.693,4.776,4.8064,4.8137,0.0,0.0,0.0,0.0,0.0,0.0,0.0,0.0,0.0,0.0,0.0,0.0,0.0,0.0,0.0,0.0,0.0,0.0,0.0,0.0,0.0,0.0,0.0,0.0,0.0,0.0,0.0,0.0,0.0,0.0,0.0,0.0,0.0,0.0,0.0,0.0,0.0,0.0,0.0,0.0,0.0,0.0,0.0,0.0,0.0,0.0,0.0,0.0,0.0,0.0,4.0698,4.0094,4.0858,4.0543,4.005,4.0732,4.0849,4.0774,4.0752,4.0207,3.963,3.9634,3.9118,3.8599,3.86,3.9266,3.9895,3.9899,0.0,4.2394,4.2397,4.2498,4.2811,4.3572,0.0,4.2929,4.3457,4.373,4.406,4.4588,4.4859,4.5306,4.6048,4.6332,4.6425,4.6315,4.6412,4.6415,4.6301,4.6302,4.6302,4.6302,4.6302,4.6302,4.6302,4.6302,4.6302,4.6302,4.6303,4.6301,4.6296,4.6301,4.6301,4.6317,0.0,0.0,4.6365,4.7162,4.7047,4.6522,4.8045,4.8232,4.7764,4.8521,4.8872,4.8967,0.0,0.0,0.0,0.0,0.0,0.0,0.0,0.0,0.0,0.0,2.1407,2.304,0.0,0.0,0.0,0.0,0.0,0.0,0.0,0.0,0.0,0.0,0.0,0.0,0.0,0.0,0.0,0.0,0.0,0.0,0.0,0.0,0.0,0.0,0.0,0.0,0.0,0.0,0.0,0.0,0.0,0.0,0.0,0.0,0.0,0.0,0.0,0.0,0.0,0.0,4.1601,4.0897,4.1049,4.0558,3.9913,3.999,3.9545,3.9025,3.8969,3.8874,3.8803,3.8804,3.8708,3.8594,3.8599,3.9231,0.0,0.0,4.1199,4.2399,4.2409,4.2985,4.352,4.3683,4.4177,4.4101,4.2812,0.0,4.4294,0.0,0.0,0.0,0.0,0.0,0.0,0.0,0.0,4.7066,4.634,4.6305,4.6306,4.6306,4.6303,4.6303,4.6306,4.6306,4.6306,4.6306,4.6308,4.6307,4.6306,4.6308,4.6308,4.6347,4.705,0.0,4.6367,4.7171,4.7414,4.73,4.7604,4.807,4.8584,4.874,4.9218,4.9792,0.0,0.0,0.0,0.0,0.0,0.0,0.0,1.963,1.9987,2.0093,2.0542,2.169,2.3901,2.4511,2.5089,0.0,0.0,0.0,0.0,0.0,0.0,0.0,0.0,0.0,0.0,0.0,0.0,0.0,0.0,0.0,0.0,0.0,0.0,0.0,0.0,0.0,0.0,0.0,0.0,0.0,0.0,0.0,0.0,0.0,0.0,0.0,0.0,0.0,0.0,0.0,4.1442,4.1187,4.1625,4.15,4.1103,4.0615,3.9889,3.9206,3.9148,3.8519,3.7874,3.7874,3.7552,3.7365,3.7828,0.0,0.0,0.0,4.1493,4.2542,4.2995,4.3045,0.0,4.4234,4.4731,4.4543,4.326,0.0,0.0,0.0,0.0,0.0,0.0,0.0,0.0,0.0,0.0,4.6735,4.6326,4.6308,4.6308,4.6308,4.6307,4.6307,4.6308,4.6308,4.6308,4.6308,4.6308,4.6308,4.6307,4.6308,4.6542,4.6992,4.742,0.0,4.7022,4.8328,4.8328,4.7635,4.8958,4.9452,4.9484,4.9932,5.0353,5.0677,0.0,0.0,0.0,0.0,0.0,0.0,0.0,1.9415,1.987,2.0019,2.0064,2.0676,2.2263,2.3038,2.3509,0.0,0.0,0.0,0.0,0.0,0.0,0.0,0.0,0.0,0.0,0.0,0.0,0.0,0.0,0.0,0.0,0.0,0.0,0.0,0.0,0.0,0.0,0.0,0.0,0.0,0.0,0.0,0.0,0.0,0.0,0.0,0.0,0.0,0.0,0.0,4.1215,4.1438,4.1745,4.1848,4.1713,4.1014,4.0045,3.9211,3.916,3.8057,3.6918,3.6941,3.6476,3.6233,3.7095,3.844,0.0,0.0,4.1925,4.2877,4.3543,4.3278,4.3385,0.0,4.4979,4.4738,4.4071,4.3975,0.0,0.0,0.0,0.0,0.0,0.0,0.0,0.0,0.0,0.0,4.6308,4.6308,4.6308,4.6308,4.6308,4.6308,4.6308,4.6308,4.6308,4.6308,4.6308,4.6307,4.6307,4.6307,4.6776,4.7616,4.7791,0.0,0.0,4.9467,4.9282,4.8259,5.0252,5.0716,5.0365,5.1047,5.13,5.13,0.0,0.0,0.0,0.0,0.0,0.0,0.0,1.9797,1.9875,1.9829,1.9928,2.0337,2.1164,2.1493,2.1904,0.0,0.0,0.0,0.0,0.0,0.0,0.0,0.0,0.0,0.0,0.0,0.0,0.0,0.0,0.0,0.0,0.0,0.0,0.0,0.0,0.0,0.0,0.0,0.0,0.0,0.0,0.0,0.0,0.0,0.0,0.0,0.0,0.0,0.0,0.0,0.0,4.2011,4.0511,4.0048,4.0017,3.9874,0.0,0.0,3.7339,3.6685,3.6033,3.6091,3.6045,3.6225,3.7093,0.0,0.0,4.0764,4.2377,4.3513,4.3585,4.4196,0.0,0.0,0.0,4.4896,4.4884,4.4881,0.0,0.0,0.0,0.0,0.0,0.0,0.0,0.0,0.0,0.0,4.6346,4.6308,4.6308,4.6307,4.6308,4.6308,4.6308,4.6308,4.6308,4.6308,4.6308,4.6308,4.6308,4.6308,4.6777,4.7637,4.8437,0.0,0.0,4.9705,5.0018,4.9881,5.0052,5.056,5.1183,5.1261,5.13,5.13,0.0,0.0,0.0,0.0,0.0,0.0,1.9193,1.9565,1.9862,1.9909,1.9926,2.0053,2.0355,2.0414,2.0759,2.1593,0.0,0.0,0.0,0.0,0.0,0.0,0.0,0.0,0.0,0.0,0.0,0.0,0.0,0.0,0.0,0.0,0.0,0.0,0.0,0.0,0.0,0.0,0.0,0.0,0.0,0.0,0.0,0.0,0.0,0.0,0.0,0.0,0.0,0.0,0.0,0.0,4.0744,4.0484,0.0,0.0,3.8809,3.7836,3.7868,3.692,3.5908,3.5929,3.5966,3.6362,3.7708,0.0,3.9775,4.1461,4.277,4.3448,4.2902,4.3529,4.3952,0.0,0.0,0.0,4.4211,0.0,0.0,0.0,0.0,0.0,0.0,0.0,0.0,0.0,0.0,0.0,4.71,4.6597,4.6305,4.6304,4.6305,4.6307,4.6308,4.6308,4.6308,4.6308,4.6308,4.6562,4.707,4.7089,4.7558,4.8437,4.9297,0.0,0.0,5.0116,5.0254,4.9418,5.0407,5.0989,5.13,5.13,5.13,5.13,0.0,0.0,0.0,0.0,0.0,1.8734,1.9066,1.9533,1.9896,1.9961,1.9945,1.9906,1.9867,2.0038,2.0396,2.0984,2.1048,0.0,0.0,0.0,0.0,0.0,0.0,0.0,0.0,0.0,0.0,0.0,0.0,0.0,0.0,0.0,0.0,0.0,0.0,0.0,0.0,0.0,0.0,0.0,0.0,0.0,0.0,0.0,0.0,0.0,0.0,0.0,0.0,0.0,0.0,0.0,0.0,0.0,0.0,0.0,3.9389,3.8675,3.8714,3.7696,3.6618,3.6628,3.6671,3.7094,0.0,0.0,4.0241,4.1957,4.2786,4.3105,4.2758,4.3187,4.3415,0.0,0.0,4.4014,4.4083,4.4294,0.0,0.0,0.0,0.0,0.0,0.0,0.0,0.0,0.0,0.0,4.7955,4.6902,4.6297,4.63,4.6302,4.6305,4.6307,4.6307,4.6308,4.6308,4.6308,4.6758,4.7598,4.7597,4.8222,4.9316,0.0,0.0,0.0,5.0547,5.0527,4.9321,5.0757,5.13,5.13,5.13,5.13,5.13,0.0,0.0,0.0,0.0,0.0,0.0,1.9768,1.9944,1.9965,1.9908,1.9969,1.9939,1.982,2.0508,2.0962,2.0907,2.09,0.0,0.0,0.0,0.0,0.0,0.0,0.0,0.0,0.0,0.0,2.7293,0.0,0.0,0.0,0.0,0.0,0.0,0.0,0.0,0.0,0.0,0.0,0.0,0.0,0.0,0.0,0.0,0.0,0.0,0.0,0.0,0.0,0.0,0.0,0.0,0.0,0.0,0.0,0.0,4.0225,3.9489,3.9497,3.8884,3.8282,3.835,3.838,3.8604,0.0,0.0,4.0198,4.1937,4.2319,4.258,4.344,4.3599,4.3591,4.3584,4.4312,0.0,4.4972,4.5667,0.0,0.0,0.0,0.0,0.0,0.0,0.0,0.0,0.0,0.0,4.8782,4.7209,4.6305,4.6293,4.6304,4.6307,4.6307,4.6307,4.6308,4.6308,4.6308,4.6757,4.7598,4.7598,4.8554,0.0,0.0,0.0,0.0,5.1039,5.0879,5.0176,5.0988,5.13,5.13,5.13,5.13,5.13,0.0,0.0,0.0,0.0,0.0,0.0,0.0,1.9845,1.9858,1.9823,1.9763,1.972,1.9725,2.0367,2.0796,2.0832,2.1373,0.0,0.0,0.0,0.0,0.0,0.0,0.0,0.0,0.0,2.6579,2.7973,2.8458,2.9179,0.0,0.0,0.0,0.0,0.0,0.0,0.0,0.0,0.0,0.0,0.0,0.0,0.0,0.0,0.0,0.0,0.0,0.0,0.0,0.0,0.0,0.0,0.0,0.0,0.0,3.9127,3.934,3.9514,3.9562,3.8952,3.8324,3.8377,3.8422,3.8679,3.9509,0.0,4.0032,4.1175,4.1891,4.2206,4.1879,4.2311,4.2712,4.2708,4.2948,0.0,0.0,0.0,0.0,0.0,0.0,0.0,0.0,0.0,0.0,0.0,0.0,0.0,4.9684,4.8626,4.7476,4.6332,4.6297,4.6301,4.6304,4.6304,4.6305,4.6305,4.6892,4.7655,4.8515,4.9101,4.9687,0.0,0.0,0.0,0.0,5.0573,5.0539,4.935,5.0748,5.13,5.13,5.13,5.13,5.13,0.0,0.0,0.0,0.0,0.0,0.0,0.0,1.9769,1.9788,1.9726,1.993,2.005,2.0085,2.0967,2.1602,2.1693,2.245,0.0,0.0,0.0,0.0,0.0,0.0,0.0,0.0,2.6076,2.7037,2.8404,2.8912,2.9502,3.014,3.0218,3.04,0.0,0.0,0.0,0.0,0.0,0.0,0.0,0.0,0.0,3.5812,0.0,0.0,0.0,0.0,0.0,0.0,0.0,0.0,0.0,0.0,0.0,0.0,0.0,3.868,3.9557,0.0,3.9199,3.8878,3.925,3.9377,3.9533,0.0,0.0,4.0307,4.0859,4.1399,4.1714,4.1489,4.1661,4.2027,4.2672,4.2783,4.3283,0.0,0.0,0.0,0.0,0.0,0.0,0.0,0.0,0.0,0.0,0.0,0.0,5.0104,4.9267,4.8314,4.7288,4.7249,4.7232,4.7236,4.7236,4.7256,4.7297,4.7806,4.8511,4.9371,4.9939,0.0,0.0,0.0,0.0,0.0,5.0612,5.0557,4.9382,5.0764,5.1296,5.1308,5.1296,5.13,5.13,0.0,0.0,0.0,0.0,0.0,0.0,0.0,1.9693,1.9738,1.9605,2.029,2.0764,2.0696,2.2055,2.304,2.3169,0.0,0.0,0.0,0.0,0.0,0.0,0.0,0.0,0.0,2.679,2.7802,2.8696,2.9627,3.0125,3.0211,3.0253,3.0642,3.1312,0.0,0.0,0.0,0.0,0.0,0.0,3.5621,3.5635,0.0,0.0,0.0,0.0,0.0,0.0,0.0,0.0,0.0,0.0,0.0,0.0,0.0,0.0,0.0,0.0,0.0,3.9646,3.9898,4.0704,4.0908,4.0917,4.0903,0.0,0.0,4.0912,4.0912,4.1174,4.2032,4.1583,4.1664,4.3389,4.3695,4.3981,0.0,4.569,0.0,0.0,0.0,0.0,0.0,0.0,0.0,0.0,0.0,0.0,5.0182,4.9423,4.8978,4.8986,4.8986,4.8927,4.8792,4.8792,4.8794,4.8819,4.8873,4.9284,5.0012,5.0192,0.0,0.0,0.0,0.0,0.0,5.1039,5.0855,5.0082,5.0965,5.1308,5.1295,5.1292,5.13,5.1296,0.0,0.0,0.0,0.0,0.0,0.0,0.0,0.0,0.0,0.0,2.0181,2.0618,2.0548,2.1926,2.2877,0.0,0.0,0.0,0.0,0.0,0.0,0.0,0.0,0.0,0.0,2.7848,2.8489,2.9661,2.9807,2.9984,3.0204,3.0152,3.0252,3.0467,3.1891,0.0,0.0,0.0,0.0,0.0,3.5552,3.5552,0.0,0.0,0.0,0.0,3.5773,3.5933,0.0,0.0,0.0,0.0,0.0,0.0,0.0,0.0,3.7926,3.8903,3.9565,0.0,4.0645,4.0849,4.093,4.0987,0.0,0.0,0.0,0.0,0.0,4.1228,4.2052,4.2092,4.2548,4.4244,4.4513,4.4842,4.576,0.0,0.0,0.0,0.0,0.0,0.0,0.0,0.0,0.0,0.0,5.1082,5.1082,5.0906,5.0789,5.0793,5.0793,5.0152,4.8811,4.8792,4.8496,4.7925,4.9185,4.9581,4.9232,5.0524,0.0,0.0,0.0,0.0,5.0174,5.1042,5.0887,5.0154,5.0988,5.1296,5.1292,5.1296,5.13,5.1296,0.0,0.0,0.0,0.0,0.0,0.0,0.0,0.0,0.0,0.0,0.0,2.1202,2.1443,2.2535,0.0,0.0,0.0,0.0,0.0,0.0,0.0,0.0,0.0,0.0,2.8369,2.8377,2.8919,3.0057,3.0007,2.987,2.9665,2.9994,3.0145,3.0233,3.2427,0.0,0.0,0.0,0.0,0.0,3.5527,0.0,0.0,0.0,0.0,0.0,3.5704,3.5781,0.0,3.5931,3.5969,3.6073,0.0,0.0,0.0,0.0,3.8404,3.9192,3.9674,4.0078,4.045,4.0839,4.0968,4.1011,4.0991,0.0,0.0,0.0,0.0,4.1095,4.1514,4.1998,4.2715,4.4006,4.4554,0.0,0.0,0.0,0.0,0.0,0.0,0.0,0.0,0.0,0.0,0.0,0.0,5.1408,5.1408,5.1392,5.1394,5.1394,5.1394,5.0947,4.9996,4.9606,4.9173,4.8757,4.9666,4.9868,4.9481,5.0795,5.1404,0.0,0.0,0.0,5.0691,5.0762,5.0735,5.0686,5.1133,5.1292,5.1308,5.1296,5.13,5.1296,0.0,0.0,0.0,0.0,0.0,0.0,0.0,0.0,0.0,0.0,0.0,0.0,0.0,0.0,0.0,0.0,0.0,0.0,0.0,0.0,0.0,0.0,0.0,2.7568,2.8389,2.8684,2.917,2.9927,2.9944,2.9631,2.9002,2.9677,3.0192,3.0663,3.2914,3.4533,0.0,0.0,0.0,0.0,3.5532,0.0,0.0,0.0,0.0,0.0,0.0,0.0,0.0,3.5957,3.6009,3.6147,3.7031,0.0,0.0,0.0,0.0,0.0,4.0168,4.0162,4.027,4.0844,4.0999,4.1,4.0995,0.0,0.0,0.0,0.0,0.0,0.0,4.2159,0.0,0.0,0.0,0.0,4.6061,4.6192,0.0,0.0,0.0,0.0,0.0,0.0,0.0,0.0,0.0,5.126,5.1394,5.1408,5.1394,5.1392,5.1394,5.1394,5.1394,5.0535,5.0028,4.9909,5.0051,5.0115,5.0122,5.1008,5.1402,0.0,0.0,0.0,5.1336,5.0592,5.0673,5.1295,5.1292,5.1308,5.1295,5.1292,5.13,5.1296,0.0,0.0,0.0,0.0,0.0,0.0,0.0,0.0,0.0,0.0,0.0,0.0,0.0,0.0,0.0,0.0,0.0,0.0,0.0,0.0,0.0,0.0,2.8032,2.7855,2.8378,2.9044,2.9276,2.9089,2.8981,2.8938,2.8918,2.8974,3.0179,3.2268,3.283,3.3954,3.5441,0.0,0.0,3.5604,3.5589,0.0,0.0,0.0,0.0,0.0,0.0,0.0,0.0,3.5962,3.5996,3.6156,3.7028,0.0,0.0,0.0,0.0,0.0,4.1798,4.1995,4.1835,4.1178,4.0997,4.0993,0.0,0.0,0.0,0.0,0.0,0.0,0.0,4.4326,4.467,0.0,0.0,0.0,0.0,0.0,0.0,0.0,0.0,0.0,0.0,0.0,0.0,0.0,0.0,5.0611,5.1358,5.1403,5.139,5.1401,5.141,5.1394,5.1394,5.0543,4.9724,4.9013,4.9795,5.0151,5.0128,5.0994,5.1406,0.0,0.0,5.1281,5.1394,5.1189,5.1196,5.1296,5.1296,5.1296,5.1296,5.13,5.13,5.1296,0.0,0.0,0.0,0.0,0.0,0.0,0.0,0.0,0.0,0.0,0.0,0.0,0.0,0.0,0.0,0.0,0.0,0.0,0.0,0.0,0.0,2.8569,2.8104,2.8025,2.8379,2.8313,2.8171,2.8039,2.8017,2.782,2.7502,2.7916,2.9718,3.2603,3.2811,3.3852,3.5463,3.5604,3.5645,3.5651,0.0,0.0,0.0,0.0,0.0,0.0,0.0,0.0,0.0,0.0,3.6661,3.677,3.7175,0.0,0.0,0.0,0.0,0.0,4.2297,4.2746,4.2997,4.2578,4.2108,4.1766,0.0,0.0,0.0,0.0,0.0,0.0,0.0,0.0,4.4531,4.5832,0.0,0.0,0.0,0.0,0.0,0.0,0.0,0.0,0.0,0.0,0.0,0.0,0.0,0.0,5.1323,5.1383,5.1391,5.1405,5.1399,5.1171,5.0703,4.984,4.9197,4.8818,4.9241,4.9421,4.944,5.0794,5.1401,5.1362,0.0,5.0956,5.1355,5.0859,5.0914,5.13,5.13,5.13,5.1296,5.1308,5.1304,5.128,0.0,0.0,0.0,0.0,0.0,0.0,0.0,0.0,0.0,0.0,0.0,0.0,0.0,0.0,0.0,0.0,0.0,0.0,0.0,0.0,2.8736,2.8103,2.789,2.7791,2.7764,2.7368,2.7115,2.7017,2.7044,2.6903,2.6617,2.744,2.9539,3.2649,3.2838,3.3891,3.5528,3.5651,3.58,3.5961,0.0,0.0,0.0,0.0,0.0,0.0,0.0,0.0,0.0,0.0,0.0,0.0,0.0,0.0,0.0,4.0135,4.123,4.2402,4.2402,4.3045,4.3708,4.3706,0.0,0.0,0.0,0.0,0.0,0.0,0.0,0.0,0.0,4.4108,0.0,0.0,0.0,0.0,0.0,0.0,0.0,0.0,0.0,0.0,0.0,0.0,0.0,0.0,0.0,0.0,5.1287,5.1366,5.1391,5.1388,5.1389,5.1086,5.0401,4.9347,4.8903,4.9091,4.8899,4.9022,4.9456,5.0786,5.1391,5.1351,5.0679,5.0779,5.1355,5.0657,5.0738,5.13,5.13,5.1296,5.1288,5.1287,5.1278,5.1269,0.0,0.0,0.0,0.0,0.0,0.0,0.0,0.0,0.0,0.0,0.0,0.0,0.0,0.0,0.0,0.0,0.0,0.0,0.0,0.0,2.905,2.8306,2.7567,2.6765,2.5903,2.6627,2.673,2.6196,2.614,2.6582,2.7535,2.8386,3.023,3.2792,3.2936,3.396,3.5598,3.5662,3.6129,3.6748,3.6007,0.0,0.0,0.0,0.0,0.0,0.0,0.0,0.0,0.0,0.0,0.0,0.0,0.0,4.0054,4.0781,4.1678,4.24,4.2392,4.3038,4.3701,4.3708,4.3658,0.0,0.0,0.0,0.0,0.0,0.0,0.0,0.0,4.5861,4.591,0.0,0.0,0.0,0.0,0.0,0.0,0.0,0.0,0.0,0.0,0.0,0.0,0.0,0.0,0.0,5.1265,5.1356,5.1369,5.1314,5.1364,5.1379,5.1301,4.9634,4.9208,5.0007,4.9242,4.9715,5.1214,5.1337,5.1395,5.1389,5.126,5.128,5.1391,5.1261,5.1245,5.13,5.13,5.1308,5.1287,5.122,5.1215,5.1219,0.0,0.0,0.0,0.0,0.0,0.0,0.0,0.0,0.0,0.0,0.0,0.0,0.0,0.0,0.0,0.0,0.0,0.0,0.0,0.0,2.8788,2.7549,2.7275,2.6522,2.518,2.5336,2.5352,2.5178,2.5804,2.6913,2.8431,2.9258,3.0779,3.2825,3.3468,3.4436,3.5604,3.5662,3.6184,3.6897,3.6031,3.7054,0.0,0.0,0.0,0.0,0.0,0.0,0.0,0.0,3.9301,3.9284,3.9092,3.9762,4.0604,4.0409,4.1322,4.2511,4.3057,4.3441,4.3824,4.4369,4.4482,0.0,0.0,0.0,0.0,0.0,0.0,0.0,0.0,0.0,0.0,0.0,0.0,0.0,0.0,0.0,0.0,0.0,0.0,0.0,0.0,0.0,0.0,0.0,0.0,0.0,5.1242,5.0809,5.0761,5.1275,5.1375,5.1408,5.1399,4.9673,4.9501,5.0887,4.9508,4.9451,5.0619,5.1156,5.1403,5.1396,5.133,5.1312,5.1339,5.1304,5.13,5.1296,5.1308,5.1295,5.1287,5.1225,5.12,5.1189,0.0,0.0,0.0,0.0,0.0,0.0,0.0,0.0,0.0,0.0,0.0,0.0,0.0,0.0,0.0,0.0,0.0,0.0,0.0,2.7997,2.8175,2.7118,2.6933,2.6241,2.4884,2.4708,2.4654,2.4723,2.6006,2.7575,2.9369,3.0192,3.1524,3.3275,3.3942,3.4756,3.5633,3.569,3.6355,3.7309,3.6454,3.7665,0.0,0.0,0.0,0.0,0.0,0.0,0.0,0.0,4.0218,4.0109,3.9503,4.0134,4.0996,4.0444,4.1471,4.2813,4.2872,4.3269,4.3819,0.0,0.0,0.0,0.0,0.0,0.0,0.0,0.0,0.0,0.0,0.0,0.0,0.0,0.0,0.0,0.0,0.0,0.0,0.0,0.0,0.0,0.0,0.0,0.0,0.0,0.0,0.0,0.0,4.9956,4.9889,5.0491,5.082,5.099,5.0981,4.9805,4.9948,5.139,4.963,4.9397,5.0534,5.114,5.1397,5.1366,5.1316,5.13,5.1308,5.1287,5.1272,5.1308,5.1287,5.1273,5.1259,5.1184,5.1186,5.1186,0.0,0.0,0.0,0.0,0.0,0.0,0.0,0.0,0.0,0.0,0.0,0.0,0.0,0.0,0.0,0.0,0.0,0.0,2.7217,2.7221,2.7221,2.7198,2.6502,2.5766,2.5012,2.4947,2.4941,2.5031,2.6765,2.8535,3.0311,3.1187,3.2526,3.4179,3.4264,3.4831,3.569,3.5703,3.6662,3.8127,3.7316,3.8523,4.0696,0.0,0.0,0.0,0.0,0.0,0.0,0.0,4.1101,4.1093,4.1104,4.1112,4.1113,4.1103,4.2342,4.3306,4.1588,4.2334,4.359,0.0,0.0,0.0,0.0,0.0,0.0,0.0,0.0,0.0,0.0,0.0,0.0,0.0,0.0,0.0,0.0,0.0,0.0,0.0,0.0,0.0,0.0,0.0,0.0,0.0,0.0,0.0,0.0,4.8787,4.8798,4.8795,4.963,5.0087,5.009,5.0094,5.0529,5.136,4.963,4.9713,5.1394,5.1384,5.1344,5.1291,5.1308,5.131,5.1287,5.122,5.1244,5.1287,5.124,5.1196,5.1184,5.112,5.1133,5.1196,0.0,0.0,0.0,0.0,0.0,0.0,0.0,0.0,0.0,0.0,0.0,0.0,0.0,0.0,0.0,0.0,0.0,0.0,2.8196,2.876,2.8569,2.7392,2.7176,2.6491,2.5231,2.5847,2.642,2.6906,2.802,2.9193,3.0387,3.1264,3.1955,3.2506,3.3793,3.4508,3.4754,3.5427,3.6367,3.74,3.7167,3.8258,4.0009,0.0,0.0,0.0,0.0,0.0,0.0,0.0,0.0,0.0,4.1093,4.1522,4.2006,4.2013,4.2383,4.281,4.2893,4.2808,0.0,4.3393,0.0,0.0,0.0,0.0,0.0,0.0,0.0,0.0,0.0,0.0,0.0,0.0,0.0,0.0,0.0,0.0,0.0,0.0,0.0,0.0,0.0,0.0,0.0,0.0,0.0,0.0,0.0,4.8222,4.8178,4.8772,4.9058,4.9184,4.9186,4.9194,4.9313,4.9564,4.9045,4.9711,5.1381,5.066,5.0681,5.131,5.1254,5.1269,5.1292,5.1284,5.1248,5.122,5.1211,5.1196,5.1208,5.1183,5.1139,5.1127,0.0,0.0,0.0,0.0,0.0,0.0,0.0,0.0,0.0,0.0,2.5633,2.641,0.0,0.0,0.0,0.0,0.0,0.0,2.7627,2.8118,2.8127,2.7471,2.7537,2.7198,2.635,2.7244,2.7923,2.8297,2.8831,2.9706,3.0927,3.1453,3.1906,3.2312,3.375,3.4376,3.4399,3.533,3.6241,3.7061,3.7087,3.8147,3.9707,0.0,0.0,0.0,0.0,0.0,0.0,0.0,0.0,0.0,4.1093,4.1694,4.2388,4.2366,4.2844,4.3422,4.3617,4.3486,0.0,4.3854,4.4375,4.4821,4.511,0.0,0.0,0.0,0.0,0.0,0.0,0.0,0.0,0.0,0.0,0.0,0.0,0.0,0.0,0.0,0.0,0.0,0.0,0.0,0.0,0.0,0.0,0.0,0.0,4.7276,4.7216,4.7755,4.81,4.8454,4.8806,4.9147,4.9323,4.9313,4.8947,4.9318,5.0319,4.9711,4.9904,5.077,5.106,5.123,5.1263,5.128,5.1263,5.1196,5.1161,5.1159,5.115,5.1121,5.1108,5.1095,0.0,0.0,2.5398,2.5398,0.0,0.0,0.0,0.0,0.0,0.0,2.6515,2.7539,0.0,0.0,0.0,2.7665,2.7675,2.7333,2.6314,2.6463,2.6875,2.7501,2.7663,2.7787,2.7916,2.8826,2.9284,2.921,2.9282,3.0106,3.1578,3.1582,3.2085,3.3035,3.3901,3.4341,3.4477,3.5341,3.6155,3.692,3.6969,3.7992,3.9509,3.9728,0.0,0.0,0.0,0.0,0.0,0.0,0.0,0.0,4.1092,4.171,4.2396,4.2415,4.3533,4.4619,4.3899,0.0,0.0,4.472,4.4741,0.0,4.5738,0.0,0.0,0.0,0.0,0.0,0.0,0.0,0.0,0.0,0.0,0.0,0.0,0.0,0.0,0.0,0.0,0.0,0.0,0.0,0.0,0.0,0.0,0.0,0.0,4.6209,4.6208,4.6203,4.6963,4.7798,4.8675,4.9466,4.9895,0.0,4.9032,4.8573,4.8585,4.8584,4.905,4.9946,5.0821,5.1215,5.1194,5.1269,5.1254,5.1184,5.1136,5.1107,5.1089,5.1022,5.1062,5.1108,0.0,0.0,2.5402,2.5402,0.0,0.0,0.0,0.0,0.0,0.0,0.0,0.0,0.0,0.0,0.0,2.8604,2.9269,2.9047,2.7523,2.8727,2.8975,2.7791,2.7853,2.7947,2.7981,2.8894,2.936,2.9276,2.9912,3.0407,3.077,3.0751,3.125,3.2204,3.3118,3.3899,3.4501,3.4747,3.5357,3.6144,3.6155,3.6796,3.7882,3.9265,3.9809,0.0,0.0,0.0,0.0,0.0,0.0,0.0,4.1093,4.1702,4.2527,4.3136,4.3587,4.3985,4.4424,4.4622,0.0,0.0,4.5144,4.5613,4.5848,4.5805,0.0,0.0,0.0,0.0,0.0,0.0,0.0,0.0,0.0,0.0,0.0,0.0,0.0,0.0,0.0,0.0,0.0,0.0,0.0,0.0,0.0,0.0,4.6209,4.6204,4.6203,4.6203,4.6385,4.6904,4.7777,4.7977,4.8379,0.0,4.8105,4.7684,4.7678,4.7636,4.8443,4.996,5.0875,5.1254,5.1194,5.1225,5.1205,5.1194,5.1173,5.115,5.1095,5.1082,5.1082,5.1107,0.0,0.0,0.0,0.0,0.0,0.0,0.0,0.0,0.0,0.0,0.0,0.0,0.0,2.8871,0.0,0.0,2.904,2.8719,2.7813,2.9012,2.9563,2.9103,2.9192,2.9233,2.9246,2.9721,2.9954,2.9924,3.0347,0.0,0.0,0.0,0.0,3.199,3.2905,3.3521,3.3978,3.4853,3.5482,3.5908,3.5897,3.6419,3.7347,3.8718,3.9475,3.9953,4.08,0.0,0.0,0.0,0.0,0.0,0.0,0.0,4.239,4.2809,4.3208,4.3685,4.453,0.0,0.0,4.5143,0.0,4.5788,4.5749,4.5749,0.0,0.0,0.0,0.0,0.0,0.0,0.0,0.0,0.0,0.0,0.0,0.0,0.0,0.0,0.0,0.0,0.0,0.0,0.0,0.0,0.0,4.6165,4.6205,4.617,4.6165,4.619,4.6196,4.659,4.7447,4.7485,4.788,4.8642,4.7793,4.7157,4.6756,4.7561,4.8649,4.9948,5.0865,5.1229,5.1192,5.12,5.1203,5.1196,5.1165,5.1133,5.1095,5.1063,5.1075,5.1108,0.0,0.0,0.0,0.0,0.0,0.0,0.0,0.0,0.0,0.0,0.0,0.0,0.0,2.9147,2.9066,0.0,0.0,0.0,2.7551,2.8543,2.9545,3.0487,3.0573,3.0604,3.0602,3.0602,3.0604,3.0607,0.0,0.0,0.0,0.0,0.0,3.2508,0.0,3.3624,3.386,3.5139,3.578,3.5906,3.5747,3.621,3.7093,0.0,0.0,3.9785,4.0586,4.0974,4.1103,4.1094,0.0,0.0,0.0,0.0,4.1998,4.214,4.2657,4.3388,4.4406,0.0,4.5034,4.5652,4.5783,0.0,4.564,4.5692,0.0,0.0,0.0,0.0,0.0,0.0,0.0,0.0,0.0,0.0,0.0,0.0,0.0,0.0,0.0,0.0,0.0,0.0,0.0,0.0,0.0,4.6123,4.6177,4.6126,4.6134,4.6189,4.6197,4.6594,4.7388,4.747,4.7953,4.8807,4.7991,4.7179,4.6477,4.7933,4.8988,4.9732,5.0745,5.1186,5.1177,5.1186,5.1181,5.119,5.1115,5.1108,5.1089,5.1041,5.1055,5.1108,0.0,0.0,0.0,0.0,0.0,0.0,0.0,0.0,0.0,0.0,2.9448,3.0047,2.9944,3.01,2.9611,2.8088,2.9248,2.914,2.6964,0.0,0.0,3.0548,3.0595,3.06,3.0604,3.0604,3.06,3.0595,0.0,0.0,0.0,0.0,0.0,3.4347,0.0,0.0,3.5603,3.5085,3.5298,3.5916,3.5154,3.5378,0.0,0.0,0.0,0.0,0.0,4.0469,4.1088,4.1025,4.1006,0.0,0.0,0.0,4.114,4.1881,4.215,4.2531,0.0,0.0,4.5675,0.0,4.5765,4.568,0.0,0.0,0.0,0.0,0.0,0.0,0.0,0.0,0.0,0.0,0.0,0.0,0.0,0.0,0.0,0.0,0.0,0.0,0.0,0.0,0.0,0.0,4.6071,4.6104,4.611,4.6108,4.6098,4.6106,4.6162,4.6586,4.7397,4.7463,4.8256,4.9726,4.8786,4.8289,4.8184,4.8462,4.8654,4.8852,5.0431,5.1113,5.1101,5.1108,5.1108,5.1101,5.1095,5.1095,5.1095,5.1088,5.1094,5.1081,0.0,0.0,0.0,0.0,0.0,0.0,0.0,0.0,0.0,0.0,0.0,3.0246,3.0273,2.9883,2.9535,2.9333,2.9566,2.9486,2.8925,2.9592,3.0214,3.0633,3.0621,3.061,3.0665,3.0668,3.0668,0.0,0.0,0.0,0.0,3.2878,3.3414,0.0,0.0,0.0,0.0,0.0,3.5655,3.597,3.5583,3.5662,0.0,0.0,0.0,0.0,0.0,0.0,0.0,4.08,4.0582,4.0222,4.0668,0.0,0.0,0.0,4.1575,4.2328,4.4025,4.5075,4.5679,0.0,4.561,4.5565,4.5493,0.0,0.0,0.0,0.0,0.0,0.0,0.0,0.0,0.0,0.0,0.0,0.0,0.0,0.0,0.0,0.0,0.0,0.0,0.0,0.0,0.0,4.6085,4.6099,4.6099,4.6099,4.6128,4.6154,4.6154,4.632,4.6677,4.7181,4.7782,4.8438,4.7954,4.7733,4.7785,4.8309,4.8819,4.9308,5.0052,5.0364,5.0371,5.0371,5.0364,5.0416,5.0862,5.1063,5.1095,5.1095,5.1101,5.1101,0.0,0.0,0.0,0.0,0.0,0.0,0.0,0.0,0.0,0.0,0.0,3.0286,3.0374,0.0,0.0,0.0,2.9796,2.9853,3.0582,3.0628,3.0645,3.0699,3.0649,3.066,3.0701,3.0701,0.0,0.0,0.0,0.0,3.3309,3.3314,3.394,0.0,3.5033,0.0,0.0,0.0,0.0,0.0,0.0,0.0,0.0,0.0,0.0,0.0,0.0,0.0,0.0,0.0,0.0,0.0,0.0,0.0,0.0,0.0,0.0,0.0,0.0,0.0,4.5207,4.5409,4.5429,4.5419,0.0,0.0,0.0,0.0,0.0,0.0,0.0,0.0,0.0,0.0,0.0,0.0,0.0,0.0,0.0,0.0,0.0,0.0,0.0,0.0,0.0,0.0,4.6095,4.6085,4.6075,4.6061,4.6105,4.6141,4.6113,4.6089,4.6098,4.714,4.7858,4.8217,4.7859,4.7741,4.783,4.85,4.9167,4.9783,5.0002,5.0106,5.0098,5.0098,5.0099,5.0158,5.0782,5.1048,5.1095,5.1081,5.1067,5.1067,0.0,0.0,0.0,0.0,0.0,0.0,0.0,0.0,0.0,0.0,0.0,3.0371,3.0305,3.0386,3.0105,2.9347,3.0046,3.0563,3.0687,3.0687,3.0704,3.0697,3.0697,0.0,3.07,3.07,0.0,0.0,0.0,0.0,3.3297,3.3368,3.43,3.5934,3.5927,3.5932,3.5933,0.0,0.0,0.0,0.0,3.6639,0.0,0.0,0.0,0.0,0.0,0.0,0.0,0.0,0.0,0.0,0.0,0.0,0.0,0.0,0.0,0.0,0.0,4.3465,0.0,4.5101,4.5253,0.0,0.0,0.0,0.0,0.0,0.0,0.0,0.0,0.0,0.0,0.0,0.0,0.0,0.0,0.0,0.0,0.0,0.0,0.0,0.0,0.0,0.0,0.0,4.6066,4.6071,4.6007,4.6002,4.6002,4.6007,4.6071,4.6095,4.6098,4.7667,4.922,5.0701,4.9793,4.9415,4.9475,4.9591,4.9652,4.9746,5.0586,5.0935,5.0935,5.0935,5.0935,5.0935,5.0986,5.1046,5.1094,5.102,5.1012,5.1012,0.0,0.0,0.0,0.0,0.0,0.0,0.0,0.0,0.0,0.0,0.0,0.0,0.0,3.0467,3.038,3.0126,3.0444,3.0676,3.0704,3.071,3.0712,3.0767,3.0718,3.0711,3.0767,0.0,0.0,0.0,0.0,3.2228,3.3383,3.3953,3.4876,3.5993,3.6009,3.6304,3.6835,3.6835,0.0,0.0,3.7149,3.7056,0.0,0.0,0.0,0.0,0.0,0.0,0.0,0.0,0.0,0.0,0.0,0.0,0.0,0.0,0.0,0.0,0.0,0.0,0.0,4.4832,4.5053,4.5106,4.5192,4.539,0.0,0.0,0.0,0.0,0.0,0.0,0.0,0.0,0.0,0.0,0.0,0.0,0.0,0.0,0.0,0.0,0.0,0.0,0.0,0.0,0.0,4.6021,4.5994,4.5991,4.6026,4.6066,4.6095,4.6348,4.6863,4.7394,4.8205,4.9301,4.891,4.9001,4.9542,4.9561,4.9879,5.0425,5.0778,5.0635,5.0174,5.0174,5.017,5.0211,5.0724,5.099,5.1027,5.1012,5.0971,5.0948,0.0,0.0,0.0,0.0,0.0,0.0,0.0,0.0,0.0,0.0,0.0,0.0,0.0,0.0,3.0276,3.0637,3.0707,3.0733,3.0725,3.0733,3.0754,3.079,3.0762,3.0893,3.1237,0.0,0.0,0.0,0.0,0.0,0.0,3.4433,3.5176,3.5996,3.5995,3.6327,0.0,0.0,0.0,3.694,0.0,3.7758,3.7237,0.0,0.0,0.0,0.0,0.0,0.0,0.0,0.0,0.0,0.0,0.0,0.0,0.0,0.0,0.0,0.0,0.0,0.0,0.0,0.0,4.4549,4.4934,0.0,0.0,0.0,0.0,0.0,0.0,0.0,0.0,0.0,0.0,0.0,0.0,0.0,0.0,0.0,0.0,0.0,0.0,0.0,0.0,0.0,0.0,0.0,4.5994,4.6011,4.6032,4.61,4.6382,4.6897,4.7654,4.7915,4.8409,4.9131,4.9086,4.935,4.9872,4.9872,5.0189,5.0775,5.0801,5.0563,5.009,5.0105,5.0109,5.017,5.0685,5.0925,5.0963,5.0968,5.0948,5.0948,0.0,0.0,0.0,0.0,0.0,0.0,0.0,0.0,0.0,0.0,0.0,0.0,0.0,0.0,0.0,3.0723,3.0794,3.0806,3.08,3.0792,3.0791,3.081,3.0815,3.1229,3.207,0.0,0.0,0.0,0.0,0.0,0.0,0.0,3.5194,3.5996,3.5993,3.5994,3.6055,0.0,3.6847,3.6295,0.0,3.8784,3.7539,0.0,0.0,0.0,4.0178,4.0172,0.0,0.0,0.0,0.0,0.0,0.0,0.0,0.0,0.0,0.0,0.0,0.0,0.0,0.0,0.0,0.0,4.4613,0.0,4.4924,0.0,0.0,0.0,0.0,0.0,0.0,0.0,0.0,0.0,0.0,0.0,0.0,0.0,0.0,0.0,0.0,0.0,0.0,0.0,4.6002,4.6002,4.5997,4.6002,4.6032,4.6134,4.6955,4.7717,4.8396,4.9264,4.9996,5.0565,5.0584,5.0614,5.0606,5.0606,5.0635,5.0692,5.0692,5.0766,5.0899,5.0901,5.0898,5.0898,5.0897,5.0905,5.0898,5.0897,5.0937,5.1005,0.0,0.0,0.0,0.0,0.0,0.0,0.0,0.0,0.0,0.0,0.0,0.0,0.0,0.0,3.0467,3.0764,3.0794,3.0806,3.08,3.0804,3.0804,3.0797,3.1406,3.1855,3.2087,0.0,0.0,0.0,0.0,0.0,0.0,0.0,0.0,0.0,3.5994,3.5996,3.6101,3.7541,0.0,0.0,3.926,3.948,0.0,0.0,0.0,0.0,0.0,3.9638,3.9364,0.0,4.0026,4.0377,0.0,0.0,0.0,0.0,0.0,0.0,3.9811,0.0,0.0,0.0,0.0,0.0,4.3704,4.4233,4.4701,0.0,0.0,0.0,0.0,0.0,0.0,0.0,0.0,0.0,0.0,0.0,0.0,0.0,0.0,0.0,0.0,0.0,0.0,0.0,4.6011,4.5991,4.6008,4.6011,4.6293,4.6959,4.7154,4.7624,4.8384,4.9181,4.9599,4.974,5.0325,5.0573,5.0534,5.0534,5.0534,5.0554,5.0614,5.0644,5.0702,5.0784,5.0852,5.0897,5.0908,5.0905,5.0898,5.0897,5.0913,5.0921,0.0,0.0,3.1141,3.1432,0.0,0.0,0.0,0.0,0.0,0.0,0.0,0.0,0.0,0.0,0.0,3.0789,3.0804,3.0798,3.0794,3.0799,3.0951,3.1328,3.1834,3.2434,3.3169,0.0,0.0,0.0,0.0,0.0,0.0,0.0,0.0,0.0,0.0,0.0,0.0,0.0,0.0,0.0,3.9262,0.0,0.0,3.9505,3.9685,0.0,0.0,0.0,3.9849,3.9811,4.0073,0.0,0.0,0.0,0.0,0.0,0.0,0.0,0.0,0.0,0.0,0.0,0.0,0.0,4.3011,4.3498,4.3952,0.0,0.0,0.0,0.0,0.0,0.0,0.0,0.0,0.0,0.0,0.0,0.0,0.0,0.0,0.0,0.0,4.5972,4.5997,4.5997,4.6005,4.5991,4.5994,4.5991,4.6254,4.677,4.7095,4.7592,4.8343,4.9122,4.9603,4.9823,5.0291,5.0489,5.0457,5.0457,5.0457,5.0468,5.0521,5.0532,5.0521,5.0692,5.0793,5.0846,5.0804,5.0838,5.089,5.0836,5.0869,5.0948,0.0,0.0,3.2163,3.2891,3.2364,3.1841,0.0,0.0,0.0,0.0,0.0,0.0,0.0,0.0,0.0,0.0,3.0893,3.0891,3.0812,3.0889,3.1288,3.2069,3.2181,3.2972,3.4519,3.474,0.0,0.0,0.0,0.0,0.0,0.0,0.0,0.0,3.6026,3.6411,0.0,0.0,0.0,3.7332,3.9013,3.9742,0.0,0.0,4.0848,0.0,4.072,4.0646,4.0585,4.0507,4.0347,0.0,0.0,0.0,0.0,0.0,3.8723,0.0,0.0,0.0,0.0,0.0,0.0,0.0,4.2255,4.259,4.2823,4.3647,4.4065,0.0,0.0,0.0,0.0,0.0,0.0,0.0,0.0,0.0,0.0,0.0,0.0,0.0,4.5977,4.595,4.5986,4.5991,4.5994,4.5991,4.5997,4.5997,4.6065,4.6226,4.6915,4.7617,4.8299,4.9076,4.973,5.0259,5.0344,5.039,5.039,5.039,5.039,5.0401,5.0457,5.0427,5.0393,5.0576,5.0701,5.0775,5.0673,5.0739,5.0882,5.0756,5.0808,5.099,3.2626,3.2792,3.2905,3.3045,3.2943,3.2582,0.0,0.0,0.0,0.0,0.0,0.0,0.0,0.0,0.0,0.0,3.1445,3.1546,3.0856,3.1457,3.1914,3.2085,3.2768,3.331,3.3649,3.503,3.5493,0.0,0.0,0.0,0.0,0.0,0.0,0.0,3.6637,3.6651,0.0,0.0,0.0,3.7273,3.8992,0.0,4.0684,4.0786,4.0784,4.0713,4.0648,4.0571,4.0508,0.0,3.9936,3.9299,0.0,0.0,0.0,0.0,0.0,0.0,0.0,0.0,0.0,0.0,0.0,0.0,4.0574,4.1012,4.1493,0.0,4.2128,0.0,0.0,0.0,0.0,0.0,0.0,0.0,0.0,0.0,0.0,0.0,0.0,0.0,4.5912,4.5912,4.5912,4.5917,4.5923,4.5941,4.6003,4.6003,4.6338,4.7037,4.7172,4.7564,4.8288,4.8997,4.9374,4.9444,5.0034,5.0314,5.0314,5.0314,5.0314,5.0314,5.0337,5.0325,5.0325,5.0371,5.0514,5.0739,5.0812,5.0872,5.0882,5.0756,5.0756,5.0836,3.3624,3.3729,3.3865,3.4276,3.3989,3.3434,3.2619,0.0,0.0,0.0,0.0,0.0,0.0,0.0,0.0,0.0,0.0,0.0,0.0,0.0,3.2285,3.2727,3.2742,3.3163,3.403,3.4903,3.5325,0.0,0.0,0.0,0.0,0.0,0.0,0.0,0.0,0.0,0.0,0.0,3.8231,3.9,3.9005,0.0,4.0245,4.0599,4.0706,4.0642,4.0609,4.0564,4.0489,4.0455,4.0102,0.0,0.0,3.8498,3.7848,0.0,3.6468,3.6844,0.0,0.0,0.0,3.6926,0.0,0.0,0.0,3.9868,4.0514,4.1197,4.1348,0.0,0.0,0.0,0.0,0.0,0.0,0.0,0.0,0.0,0.0,0.0,0.0,0.0,4.6505,4.6105,4.5854,4.5905,4.5911,4.5923,4.5997,4.5997,4.618,4.6589,4.6578,4.6909,4.7642,4.8317,4.8835,4.9205,4.9958,5.0302,5.0302,5.0302,5.0302,5.0302,5.0344,5.0325,5.0302,5.0412,5.0502,5.0605,5.0635,5.0739,5.0825,5.0702,5.0673,5.0701,3.4647,3.4647,3.4863,3.5507,3.5046,3.4322,3.3552,0.0,0.0,0.0,0.0,0.0,0.0,0.0,0.0,0.0,0.0,0.0,0.0,0.0,3.2908,3.3624,3.2989,3.3251,3.4669,3.486,3.518,3.5668,0.0,0.0,0.0,0.0,0.0,0.0,0.0,0.0,0.0,0.0,0.0,4.0275,0.0,3.8994,3.981,4.043,4.0642,4.0607,4.0566,4.0534,4.0476,4.0458,0.0,4.0014,3.9211,3.8786,0.0,0.0,0.0,0.0,0.0,0.0,0.0,0.0,0.0,3.7602,0.0,0.0,0.0,4.0132,0.0,0.0,0.0,0.0,0.0,0.0,0.0,0.0,0.0,0.0,0.0,0.0,0.0,0.0,0.0,4.6088,4.5814,4.5874,4.588,4.5918,4.5974,4.5986,4.5955,4.5899,4.5893,4.6167,4.6744,4.7587,4.8336,4.8975,4.9881,5.0302,5.0302,5.0302,5.0302,5.0302,5.0367,5.0348,5.0314,5.0478,5.0532,5.0511,5.0459,5.0566,5.0757,5.0624,5.0575,5.0576,3.5568,3.5553,3.5577,3.5674,3.5616,3.5277,0.0,0.0,0.0,0.0,0.0,0.0,0.0,0.0,0.0,0.0,0.0,0.0,3.3445,0.0,0.0,3.4549,3.4464,3.4498,3.4693,3.5461,3.5529,3.4846,0.0,0.0,0.0,0.0,0.0,0.0,3.6812,0.0,0.0,0.0,3.8384,0.0,3.9064,3.9786,0.0,4.059,4.0621,4.0581,4.0469,4.0408,4.0388,0.0,4.0129,3.9963,0.0,3.9112,0.0,0.0,0.0,0.0,0.0,0.0,0.0,0.0,3.6472,0.0,0.0,0.0,3.656,3.7374,0.0,0.0,0.0,0.0,0.0,0.0,0.0,0.0,0.0,0.0,0.0,0.0,0.0,0.0,0.0,4.5279,4.5739,4.5803,4.581,4.5838,4.5906,4.5918,4.5899,4.5906,4.59,4.5889,4.5844,4.728,4.8048,4.8151,4.9614,5.0302,5.0302,5.0302,5.0302,5.0302,5.0302,5.0302,5.0302,5.0325,5.0416,5.0593,5.0586,5.0596,5.0616,5.0534,5.0521,5.0492,3.576,3.5761,3.5761,3.5765,3.5769,3.5487,0.0,0.0,0.0,0.0,0.0,0.0,0.0,0.0,0.0,0.0,0.0,3.6542,0.0,0.0,0.0,0.0,3.476,3.4422,3.5433,3.5319,3.5309,3.5445,3.5812,0.0,0.0,0.0,0.0,0.0,3.7822,0.0,3.794,0.0,0.0,0.0,0.0,0.0,0.0,4.0564,4.0527,4.0477,4.0417,4.0394,4.0379,0.0,4.0109,0.0,0.0,0.0,0.0,0.0,0.0,0.0,0.0,0.0,0.0,0.0,0.0,0.0,3.6017,0.0,3.6644,0.0,0.0,0.0,0.0,0.0,0.0,0.0,0.0,0.0,0.0,0.0,0.0,0.0,0.0,0.0,0.0,0.0,0.0,0.0,0.0,4.5309,4.5867,4.5906,4.5887,4.5847,4.5845,4.58,4.5701,4.6723,4.7501,4.8019,4.9089,4.9843,5.0302,5.0302,5.0302,5.0302,5.0302,5.0302,5.0302,5.0302,5.0348,5.0435,5.0429,5.0493,5.0585,5.0513,5.0438,5.0371,3.5795,0.0,0.0,0.0,0.0,0.0,0.0,0.0,0.0,0.0,0.0,0.0,3.6524,3.716,0.0,0.0,3.812,3.8259,0.0,0.0,3.6758,0.0,0.0,0.0,0.0,3.5851,3.5724,3.636,3.6126,0.0,0.0,0.0,0.0,0.0,0.0,3.8758,3.8452,0.0,0.0,4.0732,4.0639,4.0585,4.0535,4.0484,4.0433,4.04,4.0377,4.0368,4.0351,4.0233,4.0119,0.0,3.9315,0.0,0.0,0.0,0.0,0.0,3.7088,0.0,0.0,0.0,0.0,0.0,0.0,0.0,0.0,0.0,0.0,0.0,0.0,0.0,0.0,0.0,0.0,0.0,0.0,0.0,0.0,0.0,0.0,0.0,0.0,0.0,0.0,0.0,0.0,0.0,4.5486,4.5544,4.5615,4.5793,4.5769,4.5735,4.5665,4.6368,4.7155,4.8009,4.8747,4.9522,5.0302,5.0302,5.0302,5.0302,5.0302,5.0302,5.0302,5.0302,5.0314,5.0325,5.0325,5.0424,5.0551,5.0478,5.0382,5.0302,3.5795,3.5795,0.0,0.0,0.0,0.0,0.0,0.0,0.0,0.0,0.0,0.0,0.0,0.0,0.0,0.0,0.0,3.8525,3.8553,0.0,3.7655,0.0,0.0,3.7605,0.0,0.0,3.7229,3.725,3.6409,0.0,0.0,0.0,0.0,0.0,0.0,3.7601,3.8364,3.9199,3.9946,4.0614,4.0603,4.0511,4.0415,0.0,4.0388,4.0388,4.0325,0.0,0.0,4.0224,4.0101,0.0,0.0,0.0,0.0,0.0,0.0,0.0,0.0,0.0,0.0,3.682,0.0,0.0,0.0,0.0,3.399,0.0,0.0,0.0,0.0,0.0,0.0,0.0,0.0,0.0,0.0,0.0,0.0,0.0,0.0,0.0,0.0,0.0,0.0,0.0,0.0,0.0,4.4601,4.4639,4.4993,4.5769,4.575,4.5668,4.5594,4.6397,4.7204,4.8017,4.875,4.9518,5.0302,5.0302,5.0302,5.0302,5.0302,5.0302,5.0302,5.0302,5.0337,5.0401,5.0401,5.0401,5.0401,5.0325,5.0302,5.0302,0.0,0.0,0.0,0.0,0.0,0.0,0.0,3.7253,0.0,0.0,0.0,0.0,0.0,3.9276,3.9286,0.0,0.0,3.9987,3.9438,3.9159,0.0,0.0,0.0,3.85,0.0,0.0,0.0,0.0,0.0,0.0,0.0,0.0,0.0,0.0,0.0,3.9422,0.0,0.0,0.0,0.0,0.0,4.0511,4.0449,0.0,0.0,4.0328,4.0262,4.0261,0.0,4.027,4.0242,4.0203,4.0205,4.0014,3.9775,3.968,3.9391,0.0,0.0,0.0,3.8693,3.8135,0.0,0.0,0.0,0.0,0.0,0.0,0.0,0.0,0.0,0.0,0.0,0.0,0.0,0.0,0.0,0.0,0.0,0.0,0.0,0.0,0.0,0.0,0.0,0.0,0.0,0.0,0.0,4.4607,4.4967,4.5769,4.5731,4.5668,4.5594,4.5783,4.6311,4.7204,4.7905,4.8673,4.9518,5.0046,5.0302,5.0302,5.0302,5.0302,5.0302,5.0302,5.0314,5.0325,5.0325,5.0325,5.0337,5.0367,5.0337,5.0302,3.8311,0.0,0.0,0.0,0.0,0.0,0.0,0.0,0.0,0.0,3.8951,0.0,4.0104,0.0,4.0223,0.0,4.0788,4.0869,4.0302,4.0037,0.0,4.1503,4.0189,0.0,0.0,0.0,0.0,0.0,0.0,3.8645,0.0,0.0,0.0,0.0,0.0,0.0,3.9544,0.0,4.07,0.0,0.0,4.0508,0.0,0.0,4.0334,4.0326,0.0,4.0304,4.0366,4.0402,4.0408,4.0414,4.0417,4.0444,4.0455,4.0362,4.0244,4.0118,4.0109,3.9935,0.0,3.8716,3.8341,0.0,3.7026,0.0,0.0,0.0,0.0,0.0,0.0,0.0,0.0,0.0,0.0,0.0,0.0,3.7916,0.0,0.0,0.0,0.0,0.0,0.0,0.0,0.0,0.0,0.0,0.0,0.0,4.446,4.5275,4.5538,4.5635,4.5594,4.5513,4.5918,4.6772,4.7524,4.8294,4.9135,4.9931,5.0302,5.0302,5.0302,5.0302,5.0302,5.0302,5.0302,5.0302,5.0302,5.0302,5.0302,5.0337,5.0337,5.0302,3.821,0.0,0.0,0.0,3.73,0.0,0.0,0.0,3.8931,0.0,3.9865,4.0205,4.1078,4.1139,4.112,4.1152,4.1115,4.1094,4.1094,4.0371,0.0,0.0,4.1614,4.1963,4.3657,0.0,0.0,0.0,0.0,0.0,0.0,0.0,0.0,0.0,3.9348,0.0,3.9617,4.0385,4.07,4.0687,4.0549,4.0546,4.0588,4.0454,4.0422,4.0422,4.0414,4.0446,4.0531,4.058,4.0615,4.0603,4.06,4.0605,4.0607,4.058,4.0411,4.0196,4.0129,3.9989,3.9656,3.8639,0.0,0.0,0.0,0.0,3.6907,0.0,0.0,0.0,0.0,0.0,0.0,0.0,0.0,0.0,0.0,0.0,0.0,0.0,0.0,0.0,0.0,0.0,0.0,0.0,0.0,0.0,0.0,0.0,4.3501,4.438,4.5194,4.5603,4.5603,4.5594,4.5945,4.6646,4.7518,4.8328,4.9071,4.9874,5.0264,5.0302,5.0314,5.0314,5.0302,5.0302,5.0302,5.0302,5.0302,5.0302,5.0302,5.0302,5.0302,5.0302,3.9153,3.9224,3.8937,0.0,3.8697,3.9129,0.0,0.0,0.0,0.0,4.0764,4.1101,4.1963,4.1484,4.1358,4.2012,4.147,0.0,0.0,0.0,0.0,4.2356,4.2183,4.2577,4.3684,4.3212,0.0,4.3275,0.0,0.0,4.2524,0.0,0.0,0.0,0.0,0.0,4.0481,4.0636,4.07,4.07,4.0662,4.0668,0.0,0.0,4.0642,4.0688,4.0576,4.0583,4.066,4.0666,4.0713,4.0733,4.0694,4.0639,4.0573,4.0473,4.0323,4.0196,4.0177,4.0007,3.9769,3.9605,3.9449,3.9289,0.0,0.0,0.0,0.0,0.0,0.0,0.0,0.0,0.0,0.0,0.0,0.0,0.0,0.0,0.0,3.6604,0.0,0.0,0.0,0.0,0.0,0.0,0.0,0.0,0.0,0.0,0.0,4.4454,4.531,4.5727,4.5676,4.5629,4.5692,4.5896,4.6657,4.7449,4.8236,4.9084,4.9811,5.039,5.0435,5.0416,5.0359,5.0359,5.0337,5.0302,5.0302,5.0278,5.0231,5.0231,5.0267,5.029,4.0123,0.0,0.0,3.9728,0.0,0.0,4.0424,0.0,0.0,4.1659,4.1672,0.0,4.2352,4.2307,4.2276,4.2396,4.1951,0.0,4.1679,0.0,0.0,4.2936,4.2973,4.3366,4.4217,4.3809,0.0,4.469,0.0,0.0,4.4014,0.0,0.0,0.0,0.0,4.1577,0.0,4.0752,4.0739,4.0745,4.0719,0.0,0.0,4.0738,4.0781,4.0823,4.0726,4.0707,4.0739,4.0739,4.0771,4.0784,4.0694,4.0639,4.0573,4.0449,4.0306,4.0206,4.0206,4.0057,3.9911,3.9943,3.9837,3.977,3.9878,3.9804,3.9615,0.0,0.0,0.0,0.0,0.0,0.0,0.0,0.0,0.0,0.0,0.0,0.0,0.0,0.0,0.0,0.0,0.0,0.0,0.0,0.0,0.0,0.0,0.0,0.0,4.3916,4.5121,4.5743,4.5695,4.5629,4.5586,4.5559,4.6359,4.6943,4.7359,4.8628,4.9422,4.9857,5.0273,5.0435,5.0401,5.0337,5.029,5.0267,5.0267,5.0255,5.0243,5.0182,5.0207,5.0243,0.0,0.0,0.0,0.0,0.0,0.0,0.0,4.2157,0.0,4.2565,0.0,4.2447,4.256,4.3042,4.3105,4.246,0.0,4.2399,4.2394,4.2511,4.2956,4.3824,4.3851,4.4248,4.5058,4.4329,0.0,0.0,0.0,0.0,0.0,0.0,0.0,0.0,0.0,0.0,0.0,4.0971,4.0969,4.0976,4.091,4.087,4.0818,4.0804,4.084,4.0897,4.0823,4.0806,4.08,4.0794,4.0796,4.0784,4.0635,4.0598,4.0565,4.0441,4.0314,4.0206,4.0206,4.0108,3.9996,3.9933,3.9881,3.9892,4.0017,3.9988,3.9996,4.0108,4.0118,4.0128,0.0,0.0,0.0,0.0,0.0,0.0,0.0,0.0,0.0,0.0,0.0,0.0,0.0,0.0,0.0,0.0,0.0,0.0,0.0,0.0,0.0,4.3197,4.472,0.0,4.5709,0.0,4.5559,4.5495,4.6244,4.6608,4.664,4.8303,4.9069,4.9149,5.0018,5.0401,5.039,5.0255,5.0188,5.0175,5.0207,5.0243,5.0278,5.0145,5.0158,5.02,0.0,0.0,0.0,0.0,0.0,4.3651,4.4232,4.3841,4.3467,4.3467,4.2846,4.2672,4.3395,4.2324,4.1776,4.2341,4.2397,0.0,0.0,0.0,0.0,4.4728,4.4723,4.5097,4.5955,4.5829,4.5893,0.0,0.0,0.0,0.0,0.0,0.0,0.0,0.0,0.0,4.1796,4.1841,0.0,4.1873,4.1928,4.1509,4.0874,4.0883,4.0892,4.0897,4.0812,4.0801,4.079,4.0802,4.0797,4.0784,4.0635,4.0564,4.0508,4.0419,4.0308,4.0206,4.0196,4.0147,4.0077,4.0067,4.0109,4.0148,4.0224,4.0242,4.0241,4.0252,4.0271,4.0234,4.0147,0.0,0.0,0.0,0.0,0.0,0.0,0.0,0.0,0.0,0.0,0.0,0.0,0.0,0.0,0.0,0.0,0.0,0.0,0.0,0.0,0.0,4.4183,0.0,0.0,0.0,4.5485,4.5419,4.5563,4.5941,4.656,4.7697,4.8532,4.9149,5.0018,5.0379,5.0314,5.0224,5.0182,5.0133,5.0194,5.02,5.0219,5.0133,5.0182,5.0267,0.0,0.0,0.0,0.0,0.0,0.0,0.0,4.5035,0.0,4.443,4.4001,4.3905,4.4335,4.4023,4.3786,4.3744,4.3741,4.3759,4.3759,4.4147,4.4555,4.4986,4.4969,0.0,4.5526,4.5534,4.5721,4.615,0.0,0.0,0.0,0.0,0.0,0.0,0.0,4.2735,0.0,0.0,0.0,4.2782,4.2807,4.2329,4.1568,4.1577,4.129,4.0897,4.0815,4.0804,4.0792,4.0751,4.0777,4.0778,4.0646,4.0576,4.0523,4.0438,4.0351,4.0298,4.0252,4.0252,4.0252,4.0252,4.0278,4.0319,4.0383,4.0391,4.0411,4.0442,4.0422,4.0383,4.036,3.9749,0.0,0.0,0.0,0.0,0.0,0.0,0.0,0.0,0.0,0.0,0.0,0.0,0.0,0.0,0.0,0.0,0.0,0.0,0.0,0.0,0.0,0.0,0.0,0.0,0.0,4.5448,4.541,4.5589,4.5957,4.6903,4.7747,4.8518,4.9327,4.9905,5.029,5.0139,5.0082,5.0057,5.0133,5.0194,5.0236,5.0182,5.0243,5.0314,0.0,4.2387,0.0,0.0,4.3519,0.0,4.5131,4.5699,4.5838,4.535,4.5115,4.4999,4.4999,4.5449,4.5467,4.478,4.4895,4.4991,4.5009,4.5164,4.528,4.5277,4.5288,4.5236,4.5175,4.5181,4.5488,0.0,0.0,0.0,0.0,0.0,0.0,0.0,0.0,0.0,0.0,0.0,4.3652,4.3685,4.3656,4.3161,4.2451,4.2435,4.19,4.1158,4.1108,4.0949,4.0814,4.0944,4.0919,4.0778,4.0639,4.0603,4.058,4.0471,4.0425,4.0414,4.0366,4.0389,4.0446,4.0446,4.0442,4.0477,4.0557,4.0556,4.0574,4.0636,4.0574,4.0531,4.0595,4.0072,0.0,0.0,0.0,0.0,0.0,0.0,0.0,0.0,0.0,0.0,0.0,0.0,0.0,0.0,0.0,0.0,0.0,0.0,0.0,0.0,0.0,4.5376,4.5632,0.0,4.5659,0.0,4.5572,4.5542,4.5387,4.6261,4.7103,4.7892,4.8659,4.9476,5.0243,5.0082,5.0031,5.0057,5.0108,5.0194,5.029,5.0212,5.0278,5.0337,0.0,0.0,0.0,0.0,0.0,0.0,4.6031,4.5581,4.5385,4.6091,4.5486,4.4997,4.4995,4.4372,4.3906,4.3826,4.453,4.4997,4.4995,4.5748,4.6179,4.6186,4.6175,4.6145,4.6072,4.6075,4.6118,0.0,0.0,0.0,0.0,0.0,0.0,0.0,0.0,0.0,0.0,4.4479,4.4525,4.4568,4.4511,4.4013,4.3289,4.3212,4.2683,4.1984,4.1987,4.1472,4.091,4.1691,4.146,4.0784,4.0628,4.0607,4.0593,4.0512,4.0492,4.0496,4.0488,4.0518,4.0574,4.0574,4.063,4.0686,4.0765,4.0765,4.0765,4.0776,4.0629,4.0519,4.0593,4.0442,4.0092,0.0,0.0,0.0,0.0,0.0,0.0,0.0,0.0,0.0,0.0,0.0,0.0,0.0,0.0,0.0,0.0,0.0,0.0,4.2986,0.0,4.4078,4.5419,4.6137,0.0,4.5418,4.6069,4.5977,4.5252,4.6126,4.6956,4.7777,4.8636,4.9427,5.012,5.0031,5.0063,5.0175,5.0175,5.0243,5.029,5.0212,5.0255,5.029,0.0,0.0,0.0,0.0,0.0,0.0,0.0,4.5991,4.5913,4.6248,4.5994,4.5779,4.5778,4.5465,4.5251,4.5252,4.5584,4.578,4.5781,4.6601,4.7089,4.709,4.7589,4.7834,4.7758,4.7758,4.7757,0.0,0.0,0.0,0.0,0.0,0.0,0.0,0.0,4.5116,4.537,4.5376,4.5409,4.5415,4.5383,4.4903,4.4181,4.4159,4.3616,4.2807,4.2294,4.1875,4.1546,4.1371,4.1432,4.1576,4.1512,4.15,4.1493,4.1421,4.1061,4.0791,4.1273,4.1061,4.0738,4.0775,4.0801,4.0829,4.0893,4.0893,4.0864,4.0864,4.0723,4.0595,4.0557,4.0523,4.0231,0.0,0.0,0.0,0.0,0.0,0.0,0.0,0.0,0.0,0.0,0.0,0.0,0.0,0.0,0.0,0.0,0.0,0.0,4.3092,0.0,4.5163,4.6234,4.6472,4.6699,4.691,4.6634,4.6315,4.599,4.6337,4.7231,4.8529,4.9403,4.9902,5.0108,5.0101,5.0182,5.0267,5.0267,5.0302,5.0337,5.0243,5.0231,5.0224,4.6006,0.0,4.4706,0.0,4.5528,4.557,4.6208,4.6518,4.6673,4.6678,4.6913,4.6874,4.6364,4.6303,4.6302,4.6305,4.6303,4.6401,4.6678,4.7265,4.7715,4.7967,4.8552,0.0,4.8412,4.867,4.8671,4.8426,4.78,0.0,0.0,0.0,0.0,0.0,4.5739,4.5944,4.59,4.59,4.5906,4.5893,4.5899,4.558,4.5079,4.5049,4.4511,4.3702,4.3084,4.271,4.2438,4.2094,4.2369,4.2786,4.2257,4.2096,4.2135,4.2356,4.1846,4.1385,4.2232,4.2034,4.1553,4.1359,4.131,4.1259,4.1046,4.0956,4.0887,4.084,4.0765,4.0668,4.0557,4.0564,4.0364,3.9657,0.0,0.0,0.0,0.0,0.0,0.0,0.0,4.0108,4.0963,0.0,0.0,0.0,0.0,0.0,0.0,0.0,0.0,0.0,0.0,0.0,0.0,4.6892,4.7282,4.7895,4.7458,4.7131,4.6901,4.7131,4.7892,4.9067,4.9935,5.0243,5.017,5.0219,5.029,5.0359,5.0359,5.0401,5.0424,5.0325,5.0248,5.0243,4.8428,4.7359,4.6444,4.7313,4.6761,4.6202,4.6286,4.7023,4.7588,4.7578,4.832,4.8203,4.6498,4.6301,4.6305,4.6308,4.6306,4.6678,4.7533,4.7597,4.7988,0.0,0.0,4.8398,4.7533,4.8361,4.8387,4.7513,0.0,0.0,4.7353,0.0,4.5994,4.5977,4.5925,4.59,4.59,4.59,4.5899,4.5911,4.5911,4.5929,4.5972,4.5904,4.5386,4.4672,4.4672,4.4109,4.3518,4.4432,4.4713,4.4375,4.2646,4.2092,4.2266,4.3139,4.2807,4.2368,4.3253,4.3471,4.3281,4.2486,4.2276,4.2054,4.1194,4.0943,4.0859,4.0724,4.0707,4.0687,4.0614,4.0598,4.0603,4.0581,0.0,0.0,0.0,0.0,0.0,0.0,4.0718,4.1047,4.1997,0.0,0.0,0.0,0.0,0.0,0.0,0.0,0.0,4.2885,4.3768,0.0,4.6481,4.7414,4.7895,4.7914,4.8692,4.8621,4.7807,4.8602,4.9022,4.9137,4.9939,5.0302,5.0302,5.0302,5.0371,5.05,5.05,5.05,5.05,5.05,5.0404,5.0302,4.6986,4.7125,4.7247,4.7511,4.7821,4.8057,4.8066,4.8319,4.8496,4.8496,4.8728,4.8688,4.8123,4.8027,4.7773,0.0,4.7187,4.7304,0.0,4.8103,4.8806,4.9687,5.0276,5.0438,5.0155,5.0396,5.0371,5.0092,0.0,0.0,0.0,4.704,4.656,4.6028,4.6552,4.6455,4.5893,4.5906,4.5899,4.5892,4.5955,4.5986,4.5997,4.5989,4.5806,4.552,4.4976,4.4588,4.4316,4.401,4.4282,4.466,4.4111,4.3936,4.3878,4.3562,4.2869,4.2257,4.2539,4.218,4.1679,4.1416,4.138,4.1338,4.1057,4.095,4.0869,4.0796,4.0738,4.0694,4.0668,4.0629,4.0795,4.1386,4.1265,0.0,0.0,0.0,0.0,0.0,4.2013,4.2034,0.0,4.3434,0.0,0.0,0.0,0.0,0.0,0.0,0.0,0.0,4.4576,0.0,4.7368,4.7677,4.8414,4.9522,4.9243,4.8945,4.8708,4.8996,4.9425,4.9939,5.0298,5.0382,5.0302,5.0393,5.0468,5.0511,5.0542,5.0532,5.05,5.0457,5.0348,5.0243,4.7111,4.7175,4.7219,4.7535,4.8043,4.8415,4.8417,4.8964,4.9375,4.9352,4.9641,4.9831,4.9845,4.981,0.0,4.7733,4.7303,4.7244,4.7576,4.8351,4.9189,5.0054,5.093,5.1249,5.091,0.0,0.0,5.0803,5.0244,4.9212,4.775,4.7422,4.6964,4.646,4.6629,4.6403,4.5874,4.5932,4.5925,4.5911,4.5978,4.5994,4.5994,4.5991,4.6002,4.5924,4.5433,4.5239,4.5161,4.4617,4.4792,4.5239,4.5239,4.5239,4.5142,4.4598,4.3607,4.2758,4.3097,4.2534,4.18,4.1498,4.1453,4.1403,4.1036,4.1155,4.1334,4.1302,4.1509,4.1686,4.1686,4.166,4.1816,4.2343,4.2441,4.2731,4.3552,0.0,0.0,0.0,0.0,0.0,0.0,4.4299,0.0,0.0,0.0,0.0,0.0,0.0,0.0,4.4209,4.5185,0.0,4.7788,4.8124,4.8965,5.0283,4.9786,4.9549,4.9591,4.9663,4.9939,5.0337,5.0438,5.0416,5.0314,5.0424,5.0478,5.0511,5.0562,5.0582,5.0553,5.0478,5.0382,5.0314,4.8325,4.7415,4.6658,0.0,4.7692,0.0,4.7772,4.9198,5.0254,5.0208,5.0904,5.1402,5.1399,5.1344,5.034,4.7974,0.0,0.0,0.0,4.847,4.9284,5.0145,5.0952,5.1004,5.0201,5.0965,5.0966,5.0088,4.9946,4.9435,4.8554,4.7682,4.7248,4.7158,4.6345,4.5925,4.5827,4.5943,4.596,4.5904,4.5975,4.5997,4.6002,4.5997,4.5997,4.6002,4.6002,4.6002,4.6002,4.6002,4.6002,4.6002,4.6002,4.6002,4.5982,4.5924,4.4812,4.3748,4.4506,4.4108,4.3315,4.2555,4.2365,4.2142,4.1262,4.1659,4.2183,4.2194,4.2792,4.3317,4.3323,4.336,4.3404,4.34,4.3457,4.3767,4.4583,0.0,0.0,0.0,0.0,0.0,0.0,4.4718,4.4972,0.0,0.0,0.0,0.0,0.0,4.4121,4.4268,4.5668,4.6885,4.7884,4.8697,4.95,5.0302,5.0302,5.0337,5.0401,5.0478,5.0468,5.0412,5.0478,5.0416,5.0302,5.0359,5.0435,5.05,5.05,5.0573,5.0663,5.0553,5.0511,5.0489,0.0,0.0,4.7363,4.7558,4.8691,4.959,4.959,5.0469,5.1111,5.1081,5.1267,5.139,5.1403,5.0812,5.0146,4.9483,4.9299,4.9284,4.9499,4.9691,5.0176,5.1054,5.1242,5.1225,5.1027,5.1174,5.1118,5.0831,5.0119,4.964,4.9406,4.8525,4.7796,4.7191,4.6971,4.6539,4.5958,4.5997,4.5983,4.598,4.5989,4.6,4.5997,4.5994,4.6,4.6002,4.6002,4.6002,4.6002,4.6002,4.6002,4.6002,4.6002,4.6002,4.5885,4.5258,4.4792,4.4374,4.3871,4.3621,4.3442,4.3135,4.3094,4.3089,4.2865,4.2948,4.3095,4.3095,4.3247,4.3408,4.351,4.3496,4.3665,4.4261,4.4381,4.4669,4.5473,4.4907,0.0,0.0,4.4941,4.4724,4.5535,4.5557,4.5568,0.0,0.0,0.0,0.0,4.5622,4.5807,4.5854,4.626,4.7217,4.8774,4.8995,4.95,5.0302,5.0348,5.0371,5.0412,5.0511,5.0511,5.0412,5.0478,5.0416,5.0302,5.0359,5.0412,5.0435,5.0551,5.0553,5.0553,5.0633,5.0572,5.0435,4.6894,4.7285,4.7598,4.7597,4.9043,5.0195,5.0195,5.0879,5.1403,5.1407,5.1375,5.1355,5.1346,5.0903,5.0599,5.0548,4.9873,4.9455,4.9468,4.9831,5.0272,5.0739,5.1077,5.1254,5.1254,5.1215,5.1161,5.1095,5.0563,5.0281,5.0221,4.9385,4.8762,4.8333,4.7926,4.7514,4.7138,4.713,4.6934,4.6602,4.6596,4.6355,4.5997,4.6008,4.5994,4.5997,4.6005,4.6,4.6,4.6,4.5969,4.5958,4.5947,4.596,4.5858,4.5394,4.5023,4.4647,4.4128,4.3732,4.3438,4.3399,4.3416,4.3438,4.3444,4.3721,4.4003,4.403,4.4325,4.4616,4.4724,4.4715,4.4827,4.5225,4.5327,4.5502,4.5936,4.5622,0.0,4.5944,4.5551,4.5407,4.5809,4.5812,4.5765,4.5703,0.0,0.0,4.5861,4.6584,4.6805,4.6405,4.7202,4.8106,4.9091,4.9461,4.9874,5.0356,5.039,5.0424,5.0457,5.0542,5.0532,5.0457,5.0489,5.0416,5.0302,5.0337,5.0359,5.0412,5.0446,5.05,5.0562,5.0572,5.0521,5.0489,4.7792,4.7793,4.7793,4.7792,4.9121,5.0195,5.0194,5.0879,5.1404,5.1398,5.1342,5.1294,5.1295,5.1225,5.1206,5.1206,4.9891,4.9067,4.9078,4.9775,5.017,5.017,5.0825,5.1178,5.1178,5.1167,5.1132,5.1069,5.1007,5.0956,5.089,5.0202,4.9823,4.9676,4.8931,4.8565,4.8495,4.849,4.8108,4.748,4.7336,4.6829,4.618,4.603,4.5983,4.5986,4.5978,4.5991,4.5986,4.5986,4.5949,4.5905,4.5887,4.5893,4.5893,4.5821,4.5364,4.4873,4.4859,4.4336,4.3786,4.3853,4.3869,4.3869,4.3874,4.4408,4.4932,4.4982,4.5541,4.6037,4.6081,4.6105,4.6076,4.6007,4.6056,4.6075,4.6071,0.0,4.6056,4.5991,4.5929,4.59,4.5974,4.5969,4.5947,4.5866,4.6378,4.6635,0.0,4.7266,4.743,4.682,4.8219,4.9079,4.927,4.997,5.0348,5.0424,5.0424,5.0457,5.0521,5.0593,5.0582,5.0511,5.0511,5.0416,5.0314,5.0302,5.0325,5.039,5.0325,5.0435,5.0572,5.0468,5.05,5.0593,4.8691,4.869,4.869,4.8691,4.953,5.0194,5.0195,5.0879,5.1381,5.133,5.1311,5.1275,5.1225,5.1211,5.1201,5.12,5.0906,5.0761,5.0802,5.0938,5.1005,5.1005,5.1086,5.1114,5.1114,5.1056,5.1005,5.0921,5.0917,5.0909,5.0888,5.0766,5.036,4.9693,4.9565,4.9141,4.8509,4.8431,4.838,4.8251,4.7455,4.7088,4.6926,4.6197,4.5918,4.5923,4.5917,4.5917,4.5911,4.5925,4.5912,4.5899,4.5834,4.5854,4.59,4.5893,4.5756,4.5624,4.564,4.553,4.5454,4.5572,4.5572,4.5547,4.5597,4.574,4.5881,4.589,4.5992,4.6084,4.6108,4.6089,4.6075,4.6007,4.6007,4.6021,4.6014,0.0,4.5925,4.5923,4.586,4.6073,4.6746,4.6753,4.6705,4.6633,4.6666,4.6635,4.65,4.733,4.8022,4.8586,4.8872,4.9353,5.0111,5.0291,5.0424,5.0489,5.0489,5.0521,5.0593,5.0653,5.0643,5.0582,5.0521,5.0457,5.039,5.0314,5.0302,5.0314,5.0379,5.0446,5.0521,5.0562,5.0582,5.0603,4.9608,4.9608,4.9588,4.9546,5.0269,5.0856,5.0857,5.1168,5.1374,5.1316,5.1294,5.1277,5.1201,5.1194,5.1192,5.1144,5.1126,5.1101,5.1132,5.1139,5.1153,5.1153,5.1089,5.1042,5.1042,5.0983,5.0929,5.0893,5.0913,5.0897,5.0899,5.0897,5.0697,5.0341,5.0302,5.0105,4.979,4.9753,4.9497,4.9102,4.8638,4.8241,4.7857,4.7416,4.7242,4.7191,4.6713,4.6512,4.644,4.5982,4.5814,4.5793,4.5798,4.5791,4.5791,4.5831,4.5845,4.5852,4.5847,4.5848,4.5886,4.6019,4.6035,4.6122,4.6599,4.6726,4.6867,4.7293,4.7384,4.739,4.7386,4.7386,4.7386,4.74,4.7402,0.0,0.0,4.6931,4.6597,4.6552,4.6076,4.5889,4.6208,4.6224,4.6163,4.6052,4.6416,4.6614,4.6562,4.7791,4.8667,4.9045,4.9507,4.9954,5.0404,5.0446,5.0489,5.0542,5.0542,5.0572,5.0603,5.0663,5.0653,5.0593,5.0521,5.0468,5.0401,5.0325,5.0302,5.0302,5.0325,5.0401,5.0457,5.0521,5.0562,5.0553,5.0485,5.0485,5.0464,5.0401,5.0967,5.1397,5.1398,5.1397,5.1387,5.1302,5.1297,5.1277,5.1205,5.1194,5.1159,5.1101,5.1082,5.1082,5.1087,5.106,5.1053,5.1087,5.1012,5.0971,5.0971,5.0929,5.0877,5.0874,5.0877,5.0888,5.0883,5.0899,5.0897,5.0901,5.0836,5.0836,5.0874,5.088,5.0518,4.9927,4.9684,4.9243,4.8713,4.8461,4.8377,4.8263,4.739,4.7044,4.6858,4.6047,4.5754,4.5723,4.5765,4.5746,4.5746,4.5803,4.5866,4.5964,4.6171,4.608,4.605,4.6547,4.6538,4.6581,4.7425,4.7584,4.7755,4.8393,4.8522,4.8528,4.8514,4.8526,4.8538,4.8599,0.0,0.0,0.0,4.7894,4.7443,4.7381,4.6735,4.6262,4.618,4.6172,4.605,4.5697,4.6241,4.6593,4.6583,4.7996,4.8911,4.9083,4.995,5.0424,5.0478,5.05,5.0532,5.0623,5.0381,5.0285,5.0316,5.0365,5.0346,5.0325,5.0455,5.0478,5.0424,5.0314,5.029,5.0302,5.029,5.0325,5.0412,5.0478,5.0511,5.0532,5.1316,5.1313,5.1313,5.1312,5.1351,5.1393,5.1397,5.1394,5.138,5.1302,5.1307,5.1276,5.12,5.1138,5.1121,5.1095,5.1035,5.1012,5.1012,5.0956,5.0948,5.1012,5.0948,5.0906,5.0906,5.0898,5.0858,5.081,5.0858,5.0877,5.0801,5.0863,5.0899,5.0899,5.0838,5.0801,5.081,5.081,5.0771,5.0656,4.9837,4.947,4.9335,4.8602,4.8312,4.8197,4.732,4.6992,4.6868,4.5995,4.5746,4.5773,4.5723,4.5742,4.5807,4.586,4.5938,4.616,4.6975,4.661,4.6371,4.801,4.7803,4.7451,4.8316,4.8458,4.8456,4.8577,4.8582,4.8582,4.8588,4.8591,4.8588,4.8605,0.0,0.0,4.8431,4.835,4.8299,4.8221,4.816,4.807,4.7921,4.7922,4.754,4.6586,4.6565,4.6572,4.6511,4.7452,4.8326,4.9081,4.9942,5.0401,5.0412,5.0468,5.0563,5.0683,4.9738,4.9383,4.9481,4.9423,4.9433,4.9538,5.0207,5.05,5.0478,5.029,5.0236,5.029,5.0224,5.029,5.0412,5.0478,5.0532,5.0593,5.1391,5.1409,5.1408,5.1402,5.14,5.14,5.1398,5.1394,5.1379,5.131,5.13,5.1263,5.1219,5.1138,5.1108,5.1101,5.1034,5.0978,5.0948,5.0906,5.0906,5.0948,5.0906,5.0898,5.0898,5.0893,5.0888,5.0855,5.0888,5.0872,5.0801,5.0838,5.0846,5.0838,5.0767,5.074,5.0729,5.0729,5.0729,5.0709,5.0382,5.0265,5.0272,4.9928,4.9795,4.9679,4.885,4.8524,4.8352,4.7533,4.7279,4.7301,4.7364,4.7383,4.7427,4.7547,4.7583,4.7806,4.8679,4.7875,4.709,4.8301,4.8354,4.8338,4.9213,4.939,4.9522,5.0035,5.0145,5.0151,5.0157,5.0119,5.008,5.0086,0.0,4.995,4.99,4.9431,4.907,4.9041,4.8496,4.8085,4.803,4.8,4.7574,4.6609,4.6551,4.6311,4.5774,4.7119,4.8518,4.9846,4.9737,4.9422,4.8916,4.8968,4.9287,4.9826,4.9391,4.9536,5.0134,5.0114,5.0134,5.0221,5.0376,5.0446,5.0424,5.0219,5.0182,5.0243,5.02,5.0267,5.0337,5.0424,5.0457,5.0478,5.1407,5.1405,5.1402,5.1392,5.141,5.1406,5.1394,5.1391,5.1378,5.1316,5.1308,5.1273,5.1219,5.1145,5.1082,5.1067,5.1005,5.0956,5.0898,5.0898,5.0898,5.0898,5.0898,5.0898,5.0898,5.0905,5.0899,5.0899,5.0891,5.0846,5.0801,5.0784,5.0775,5.0775,5.0731,5.0702,5.0702,5.0692,5.0692,5.0702,5.0692,5.073,5.0748,5.0711,5.0702,5.0577,4.9749,4.9442,4.9288,4.8468,4.8214,4.8249,4.8346,4.8399,4.8449,4.8566,4.859,4.8765,4.9631,4.8978,4.8274,4.919,4.919,4.9213,5.0076,5.0291,5.0435,5.0958,5.106,5.1074,5.1082,5.1022,5.102,5.1035,5.0952,5.0874,5.0846,5.0308,4.9896,4.9873,4.9269,4.8741,4.8433,4.8353,4.7914,4.6978,4.692,4.6798,4.6513,4.7408,4.8569,4.9975,4.9262,4.8584,4.8038,4.8058,4.8471,4.9267,4.8938,4.9275,5.0189,5.016,5.022,5.0298,5.0406,5.0435,5.039,5.0231,5.0182,5.02,5.02,5.0243,5.0302,5.0379,5.0412,5.0446,5.1396,5.1394,5.139,5.1401,5.1399,5.1394,5.1397,5.1394,5.1388,5.1314,5.1296,5.1269,5.1219,5.1146,5.1067,5.1012,5.0948,5.0898,5.0898,5.0898,5.0898,5.0898,5.0898,5.0898,5.0898,5.0905,5.0899,5.0899,5.0838,5.0801,5.0801,5.0729,5.0701,5.0692,5.0693,5.0712,5.0693,5.0702,5.0692,5.0693,5.0702,5.0692,5.0712,5.0712,5.0712,5.0596,4.9721,4.9413,4.9288,4.8496,4.8259,4.8321,4.8322,4.8413,4.8529,4.8602,4.8572,4.8716,4.9569,4.9756,4.9949,5.0948,5.0503,5.0034,5.0899,5.1108,5.1087,5.1012,5.1005,5.1005,5.1005,5.1005,5.102,5.1094,5.099,5.0901,5.0899,5.0846,5.0775,5.0701,5.0701,5.0336,4.9413,4.9257,4.8809,4.7876,4.7788,4.8184,4.9043,4.8398,4.8382,4.9188,4.849,4.8106,4.8106,4.8019,4.8401,4.9188,4.833,4.8409,4.9306,4.9246,4.9287,4.9452,5.0258,5.0511,5.0401,5.0325,5.0267,5.02,5.02,5.0243,5.0302,5.0359,5.0446,5.05,5.1394,5.1408,5.1401,5.1399,5.1408,5.1378,5.1343,5.134,5.1314,5.1292,5.1258,5.121,5.1194,5.1108,5.102,5.1005,5.0948,5.0898,5.0898,5.0898,5.0898,5.0898,5.0898,5.0909,5.0897,5.0908,5.0883,5.0838,5.081,5.0784,5.072,5.071,5.0702,5.0712,5.0693,5.0712,5.0693,5.0702,5.0692,5.0693,5.0702,5.0692,5.0712,5.0712,5.0712,5.0673,5.0423,5.0308,5.0289,5.0038,4.997,5.0005,5.0083,5.0155,5.0189,5.0266,5.0245,5.0247,5.0562,5.0632,5.069,5.103,5.0914,5.0784,5.105,5.1055,5.102,5.1012,5.0963,5.0929,5.0978,5.0917,5.0861,5.0897,5.0785,5.0664,5.0634,5.0644,5.0644,5.0625,5.0586,5.0458,5.0238,5.0074,4.9621,4.8785,4.8162,4.8181,4.9056,4.8943,4.9226,5.0089,4.9403,4.8991,4.8942,4.776,4.7866,4.9267,4.8401,4.8757,5.0209,5.0179,5.0239,5.0317,5.0477,5.0511,5.0468,5.0302,5.0255,5.0267,5.0231,5.0243,5.0302,5.0314,5.0393,5.05,5.1408,5.1399,5.1389,5.1364,5.1352,5.134,5.1303,5.13,5.1292,5.1292,5.1235,5.1184,5.1161,5.1063,5.0978,5.0963,5.0914,5.0898,5.0898,5.0898,5.0898,5.0898,5.0901,5.0905,5.0899,5.0899,5.0863,5.0801,5.0775,5.0729,5.0701,5.0702,5.0693,5.0712,5.0712,5.0712,5.0693,5.0702,5.0693,5.0693,5.0702,5.0693,5.0712,5.0712,5.0712,5.0712,5.0712,5.0712,5.0693,5.0693,5.0692,5.072,5.0855,5.0888,5.0866,5.0941,5.0898,5.0885,5.0945,5.0917,5.0901,5.096,5.1024,5.106,5.106,5.0998,5.0914,5.0917,5.0877,5.0825,5.0841,5.0782,5.072,5.072,5.0645,5.0594,5.0542,5.0563,5.0584,5.0566,5.0523,5.0511,5.0511,5.0412,5.0134,4.9614,4.9143,4.9067,4.9549,4.9356,4.962,5.0429,4.9708,4.949,4.9816,4.8471,4.8279,4.9248,4.8738,4.9208,5.0603,5.0603,5.0633,5.0702,5.0604,5.0542,5.05,5.0371,5.0314,5.0302,5.0267,5.0248,5.0302,5.0302,5.0382,5.05,5.1396,5.1403,5.1369,5.1314,5.1291,5.1303,5.1304,5.1296,5.1292,5.1291,5.124,5.1161,5.1101,5.1029,5.0963,5.0906,5.0898,5.0898,5.0898,5.0898,5.0898,5.0898,5.0897,5.0899,5.0891,5.0891,5.0855,5.0793,5.072,5.0701,5.0701,5.0693,5.0712,5.0712,5.0712,5.0712,5.0712,5.0712,5.0712,5.0712,5.0712,5.0712,5.0712,5.0712,5.0712,5.0712,5.0712,5.0712,5.0693,5.0702,5.0692,5.073,5.0838,5.0838,5.0801,5.0858,5.0852,5.0793,5.0874,5.0784,5.071,5.0784,5.0885,5.0963,5.0971,5.089,5.0778,5.0773,5.072,5.0664,5.0606,5.0596,5.0586,5.0596,5.0586,5.0567,5.0563,5.0582,5.0562,5.05,5.0489,5.0468,5.0412,5.0401,5.039,5.0325,5.0435,5.0427,5.0325,4.9752,4.9726,5.0393,4.9693,4.9736,5.0603,4.9805,4.9382,4.9342,4.9266,4.9708,5.0603,5.0603,5.0633,5.0712,5.0712,5.0633,5.0521,5.0511,5.0446,5.0325,5.0314,5.0314,5.0302,5.0302,5.0382,5.05,5.1403,5.1369,5.1317,5.1294,5.13,5.1304,5.13,5.1308,5.1295,5.131,5.1208,5.1114,5.1101,5.0981,5.0914,5.0898,5.0898,5.0898,5.0898,5.0898,5.0909,5.0897,5.0908,5.0883,5.081,5.081,5.0793,5.072,5.0701,5.0701,5.0701,5.0693,5.0712,5.0712,5.0712,5.0712,5.0712,5.0712,5.0712,5.0712,5.0712,5.0712,5.0712,5.0712,5.0712,5.0712,5.0712,5.0712,5.0693,5.0702,5.0702,5.0712,5.0731,5.0731,5.0712,5.0748,5.073,5.0712,5.0739,5.072,5.0701,5.071,5.0738,5.0773,5.0836,5.0727,5.0635,5.0644,5.0586,5.0544,5.0594,5.0502,5.0459,5.0513,5.0429,5.0371,5.0359,5.0412,5.0435,5.0424,5.0424,5.0424,5.0401,5.0401,5.0424,5.0438,5.0416,5.0435,5.0468,5.0327,5.0319,5.0459,5.0359,5.0401,5.0603,5.0411,5.0344,5.0365,4.9673,4.9817,5.0673,5.0673,5.0692,5.0712,5.0712,5.0673,5.0653,5.0603,5.0572,5.0521,5.0424,5.039,5.0359,5.0314,5.0382,5.0511,5.1346,5.131,5.1296,5.1296,5.1308,5.1296,5.1308,5.1295,5.1282,5.1259,5.1161,5.1089,5.1089,5.0986,5.1072,5.1486,5.1525,5.1525,5.1525,5.113,5.0901,5.0899,5.0863,5.081,5.0747,5.0738,5.0748,5.0701,5.0701,5.0711,5.0702,5.0702,5.0712,5.0712,5.0712,5.0712,5.0712,5.0712,5.0712,5.0712,5.0712,5.0712,5.0712,5.0712,5.0712,5.0712,5.0712,5.0712,5.0712,5.0712,5.0712,5.0712,5.0712,5.0712,5.0693,5.0664,5.0664,5.0693,5.0664,5.0644,5.0644,5.0644,5.0625,5.0635,5.0739,5.0664,5.0586,5.0556,5.0502,5.0457,5.0457,5.0412,5.0359,5.0393,5.0348,5.0302,5.0302,5.0325,5.0348,5.0348,5.039,5.0412,5.0446,5.0424,5.0435,5.05,5.05,5.0489,5.05,5.0553,5.0582,5.05,5.0572,5.0603,5.0603,5.0603,5.0633,5.0693,5.025,5.0269,5.0712,5.0712,5.0712,5.0712,5.0712,5.0712,5.0683,5.0623,5.0582,5.0562,5.0478,5.0412,5.0348,5.0348,5.0404,5.0511,5.1307,5.1292,5.13,5.1296,5.1296,5.1308,5.1287,5.1278,5.1264,5.1219,5.1132,5.1095,5.1101,5.1106,5.1409,5.2152,5.221,5.221,5.221,5.1389,5.0901,5.0899,5.0838,5.0775,5.071,5.0846,5.0846,5.0701,5.0701,5.0702,5.0702,5.0693,5.0712,5.0712,5.0712,5.0712,5.0712,5.0712,5.0712,5.0712,5.0712,5.0712,5.0712,5.0712,5.0712,5.0712,5.0712,5.0683,5.0673,5.0702,5.0683,5.0673,5.0702,5.0712,5.0702,5.0613,5.0643,5.0692,5.0613,5.0603,5.0603,5.0603,5.0572,5.0534,5.0635,5.0615,5.0553,5.05,5.0457,5.0401,5.0325,5.0314,5.0314,5.0314,5.0302,5.0302,5.0302,5.0302,5.0302,5.0314,5.039,5.0446,5.05,5.0457,5.0457,5.0532,5.0582,5.0582,5.0532,5.0633,5.0633,5.0521,5.0572,5.0603,5.0603,5.0603,5.0633,5.0712,5.0712,5.0712,5.0712,5.0712,5.0712,5.0712,5.0712,5.0683,5.0673,5.0623,5.0572,5.05,5.0489,5.0416,5.0337,5.0412,5.0468,5.053,5.1308,5.13,5.1292,5.1295,5.1295,5.1287,5.122,5.1215,5.12,5.1194,5.1133,5.1101,5.1101,5.1648,5.2066,5.219,5.221,5.221,5.221,5.1389,5.0901,5.0899,5.0838,5.0793,5.0793,5.1405,5.1405,5.0701,5.0701,5.0692,5.0711,5.0712,5.0712,5.0712,5.0712,5.0712,5.0712,5.0712,5.0712,5.0712,5.0712,5.0712,5.0712,5.0712,5.0712,5.0712,5.0712,5.0653,5.0623,5.0673,5.0653,5.0623,5.0673,5.0712,5.0702,5.0613,5.0643,5.0692,5.0613,5.0603,5.0603,5.0603,5.0593,5.0582,5.0542,5.0521,5.05,5.0435,5.0457,5.0468,5.0401,5.039,5.039,5.039,5.0337,5.0302,5.0302,5.0302,5.0314,5.039,5.0446,5.0489,5.05,5.0532,5.0603,5.0663,5.0623,5.0623,5.0663,5.0633,5.0603,5.0593,5.0593,5.0603,5.0603,5.0603,5.0633,5.0712,5.0712,5.0712,5.0712,5.0712,5.0712,5.0712,5.0712,5.0663,5.0613,5.0603,5.0572,5.05,5.0435,5.0446,5.0489,5.0562,5.0532,5.0617,5.13,5.13,5.1292,5.1291,5.131,5.1278,5.1215,5.12,5.1203,5.1206,5.1134,5.1101,5.1101,5.2191,5.3111,5.3614,5.3207,5.2917,5.2917,5.1655,5.0897,5.0899,5.0838,5.0784,5.0738,5.1058,5.128,5.1366,5.1366,5.1366,5.1366,5.0904,5.0712,5.0712,5.0712,5.0712,5.0712,5.0712,5.0712,5.0712,5.0712,5.0712,5.0702,5.0653,5.0663,5.0712,5.0712,5.0673,5.0653,5.0683,5.0673,5.0653,5.0683,5.0712,5.0673,5.0563,5.0623,5.0673,5.0563,5.0582,5.0603,5.0603,5.0582,5.0532,5.0511,5.0521,5.054,5.0424,5.0457,5.0478,5.0359,5.0412,5.0435,5.0367,5.0348,5.0337,5.0302,5.0302,5.0325,5.0401,5.0468,5.0511,5.0542,5.0582,5.0623,5.0683,5.0663,5.0663,5.0712,5.0663,5.0653,5.0653,5.0653,5.0653,5.0653,5.0654,5.0664,5.0712,5.074,5.075,5.0712,5.0712,5.0712,5.0693,5.0693,5.0683,5.0653,5.0615,5.0575,5.0542,5.0511,5.0521,5.06,5.108,5.1252,5.1359]}]]